[[{"header":{"parameterUnit":"m.s-1","parameterCategory":1,"la1":30.6,"la2":29.2853,"lo1":-89.7004,"lo2":-87.6739,"dx":0.0162,"dy":0.0183,"nx":112,"ny":82,"refTime":"2023-01-23T06:00:00:Z","depth":0,"parameterNumber":2,"parameterNumberName":"U-component_of_WINDS"},"data":[0.0,0.0,0.0,0.0,0.0,0.0,0.0,0.0,0.0,0.0,0.0,0.0,0.0,0.0,0.0,0.0,0.0,0.0,0.0,0.0,0.0,0.0,0.0,0.0,0.0,0.0,0.0,0.0,0.0,0.0,0.0,0.0,0.0,0.0,0.0,0.0,0.0,0.0,0.0,0.0,0.0,0.0,0.0,0.0,0.0,0.0,0.0,0.0,0.0,0.0,0.0,0.0,0.0,0.0,0.0,0.0,0.0,0.0,0.0,0.0,0.0,0.0,0.0,0.0,0.0,0.0,0.0,0.0,0.0,0.0,0.0,0.0,0.0,0.0,0.0,0.0,0.0,0.0,0.0,0.0,0.0,0.0,0.0,0.0,0.0,0.0,0.0,0.0,0.0,0.0,-7.1729,-7.3164,-7.5852,-7.7603,-7.7603,-7.7865,-7.7136,-7.5027,0.0,0.0,0.0,0.0,0.0,0.0,0.0,0.0,0.0,0.0,0.0,0.0,0.0,0.0,0.0,0.0,0.0,0.0,0.0,0.0,0.0,0.0,0.0,0.0,0.0,0.0,0.0,0.0,0.0,0.0,0.0,0.0,0.0,0.0,0.0,0.0,0.0,0.0,0.0,0.0,0.0,0.0,0.0,0.0,0.0,0.0,0.0,0.0,0.0,0.0,0.0,0.0,0.0,0.0,0.0,0.0,0.0,0.0,0.0,0.0,0.0,0.0,0.0,0.0,0.0,0.0,0.0,0.0,0.0,0.0,0.0,0.0,0.0,0.0,0.0,0.0,0.0,0.0,0.0,0.0,0.0,0.0,0.0,0.0,0.0,0.0,0.0,0.0,0.0,0.0,0.0,0.0,0.0,0.0,0.0,0.0,0.0,0.0,0.0,0.0,0.0,0.0,0.0,0.0,-7.1716,-7.4988,-7.7002,-7.8178,-7.8178,-7.7368,-7.6455,-7.5555,0.0,0.0,0.0,0.0,0.0,0.0,0.0,0.0,0.0,0.0,0.0,0.0,0.0,0.0,0.0,0.0,0.0,0.0,0.0,0.0,0.0,0.0,0.0,0.0,0.0,0.0,0.0,0.0,0.0,0.0,0.0,0.0,0.0,0.0,0.0,0.0,0.0,0.0,0.0,0.0,0.0,0.0,0.0,0.0,0.0,0.0,0.0,0.0,0.0,0.0,0.0,0.0,0.0,0.0,0.0,0.0,0.0,0.0,0.0,0.0,0.0,0.0,0.0,0.0,0.0,0.0,0.0,0.0,0.0,0.0,0.0,0.0,0.0,0.0,0.0,0.0,0.0,0.0,0.0,0.0,0.0,0.0,0.0,0.0,0.0,0.0,0.0,0.0,0.0,0.0,0.0,0.0,0.0,0.0,0.0,0.0,0.0,0.0,0.0,0.0,0.0,0.0,0.0,-7.1413,-7.3625,-7.593,-7.776,-7.8779,-7.8779,-7.7734,-7.6769,-7.5772,-7.5872,0.0,0.0,0.0,0.0,0.0,0.0,0.0,0.0,0.0,0.0,0.0,0.0,0.0,0.0,0.0,0.0,0.0,0.0,0.0,0.0,0.0,0.0,0.0,0.0,0.0,0.0,0.0,0.0,0.0,0.0,0.0,0.0,0.0,0.0,0.0,0.0,0.0,0.0,0.0,0.0,0.0,0.0,0.0,0.0,0.0,0.0,0.0,0.0,0.0,0.0,0.0,0.0,0.0,0.0,0.0,0.0,0.0,0.0,0.0,0.0,0.0,0.0,0.0,0.0,0.0,0.0,0.0,0.0,0.0,0.0,0.0,0.0,0.0,0.0,0.0,0.0,0.0,0.0,0.0,0.0,0.0,0.0,0.0,0.0,0.0,0.0,0.0,0.0,0.0,0.0,0.0,0.0,0.0,0.0,0.0,0.0,0.0,0.0,0.0,0.0,0.0,0.0,-7.3656,-7.5538,-7.6688,-7.8231,-7.9172,-7.9172,-7.8126,-7.6976,-7.58,-7.5011,0.0,0.0,0.0,0.0,0.0,0.0,0.0,0.0,0.0,0.0,0.0,0.0,0.0,0.0,0.0,0.0,0.0,0.0,0.0,0.0,0.0,0.0,0.0,0.0,0.0,0.0,0.0,0.0,0.0,0.0,0.0,0.0,0.0,0.0,0.0,0.0,0.0,0.0,0.0,0.0,0.0,0.0,0.0,0.0,0.0,0.0,0.0,0.0,0.0,0.0,0.0,0.0,0.0,0.0,0.0,0.0,0.0,0.0,0.0,0.0,0.0,0.0,0.0,0.0,0.0,0.0,0.0,0.0,0.0,0.0,0.0,0.0,0.0,0.0,0.0,0.0,0.0,0.0,0.0,0.0,0.0,0.0,0.0,0.0,0.0,0.0,0.0,0.0,0.0,0.0,0.0,0.0,0.0,0.0,0.0,0.0,0.0,0.0,0.0,0.0,0.0,0.0,-7.4232,-7.6113,-7.729,-7.8466,-7.9172,-7.9172,-7.8126,-7.6976,-7.58,-7.465,0.0,0.0,0.0,0.0,0.0,0.0,0.0,0.0,0.0,0.0,0.0,0.0,0.0,0.0,0.0,0.0,0.0,0.0,0.0,0.0,0.0,0.0,0.0,0.0,0.0,0.0,0.0,0.0,0.0,0.0,0.0,0.0,0.0,0.0,0.0,0.0,0.0,0.0,0.0,0.0,0.0,0.0,0.0,0.0,0.0,0.0,0.0,0.0,0.0,0.0,0.0,0.0,0.0,0.0,0.0,0.0,0.0,0.0,0.0,0.0,0.0,0.0,0.0,0.0,0.0,0.0,0.0,0.0,0.0,0.0,0.0,0.0,0.0,0.0,0.0,0.0,0.0,0.0,0.0,0.0,0.0,0.0,0.0,0.0,0.0,0.0,0.0,0.0,0.0,0.0,0.0,0.0,0.0,0.0,0.0,0.0,0.0,0.0,0.0,0.0,0.0,0.0,-7.2619,-7.4353,-7.5832,-7.7884,-7.9172,-7.9172,-7.8126,-7.6976,-7.58,0.0,0.0,0.0,0.0,0.0,0.0,0.0,0.0,0.0,0.0,0.0,0.0,0.0,0.0,0.0,0.0,0.0,0.0,0.0,0.0,0.0,0.0,0.0,0.0,0.0,0.0,0.0,0.0,0.0,0.0,0.0,0.0,0.0,0.0,0.0,0.0,0.0,0.0,0.0,0.0,0.0,0.0,0.0,0.0,0.0,0.0,0.0,0.0,0.0,0.0,0.0,0.0,0.0,0.0,0.0,0.0,0.0,0.0,0.0,0.0,0.0,0.0,0.0,0.0,0.0,0.0,0.0,0.0,0.0,0.0,0.0,0.0,0.0,0.0,0.0,0.0,0.0,0.0,0.0,0.0,0.0,0.0,0.0,0.0,0.0,0.0,0.0,0.0,0.0,0.0,0.0,0.0,0.0,0.0,0.0,0.0,0.0,0.0,0.0,0.0,0.0,0.0,-7.0047,-7.1125,-7.2336,-7.4169,-7.6708,-7.8156,-7.8156,-7.7721,-7.6976,-7.58,0.0,0.0,0.0,0.0,0.0,0.0,0.0,0.0,0.0,0.0,0.0,0.0,0.0,0.0,0.0,0.0,0.0,0.0,0.0,0.0,0.0,0.0,0.0,0.0,0.0,0.0,0.0,0.0,0.0,0.0,0.0,0.0,0.0,0.0,0.0,0.0,0.0,0.0,0.0,0.0,0.0,0.0,0.0,0.0,0.0,0.0,0.0,0.0,0.0,0.0,0.0,0.0,0.0,0.0,0.0,0.0,0.0,0.0,0.0,0.0,0.0,0.0,0.0,0.0,0.0,0.0,0.0,0.0,0.0,0.0,0.0,0.0,0.0,0.0,0.0,0.0,0.0,0.0,0.0,0.0,0.0,0.0,0.0,0.0,0.0,0.0,0.0,0.0,0.0,0.0,0.0,0.0,0.0,0.0,0.0,0.0,0.0,0.0,0.0,0.0,0.0,0.0,-7.0573,-7.0025,-7.032,-7.2436,-7.4514,-7.5929,-7.5929,-7.6906,-7.6976,0.0,0.0,0.0,0.0,0.0,0.0,0.0,0.0,0.0,0.0,0.0,0.0,0.0,0.0,0.0,0.0,0.0,0.0,0.0,0.0,0.0,0.0,0.0,0.0,0.0,0.0,0.0,0.0,0.0,0.0,0.0,0.0,0.0,0.0,0.0,0.0,0.0,0.0,0.0,0.0,0.0,0.0,0.0,0.0,0.0,0.0,0.0,0.0,0.0,0.0,0.0,0.0,0.0,0.0,0.0,0.0,0.0,0.0,0.0,0.0,0.0,0.0,0.0,0.0,0.0,0.0,0.0,0.0,0.0,0.0,0.0,0.0,0.0,0.0,0.0,0.0,0.0,0.0,0.0,0.0,0.0,0.0,0.0,0.0,0.0,0.0,0.0,0.0,0.0,0.0,0.0,0.0,0.0,0.0,0.0,0.0,0.0,0.0,0.0,0.0,0.0,0.0,0.0,-6.6957,-6.7148,-6.8163,-7.0237,-7.227,-7.3687,-7.3687,-7.4509,-7.4585,-7.3443,0.0,0.0,0.0,0.0,0.0,0.0,0.0,0.0,0.0,0.0,0.0,0.0,0.0,0.0,0.0,0.0,0.0,0.0,0.0,0.0,0.0,0.0,0.0,0.0,0.0,0.0,0.0,0.0,0.0,0.0,0.0,0.0,0.0,0.0,0.0,0.0,0.0,0.0,0.0,0.0,0.0,0.0,0.0,0.0,0.0,0.0,0.0,0.0,0.0,0.0,0.0,0.0,0.0,0.0,0.0,0.0,0.0,0.0,0.0,0.0,0.0,0.0,0.0,0.0,0.0,0.0,0.0,0.0,0.0,0.0,0.0,0.0,0.0,0.0,0.0,0.0,0.0,0.0,0.0,0.0,0.0,0.0,0.0,0.0,0.0,0.0,0.0,0.0,0.0,0.0,0.0,0.0,0.0,0.0,0.0,0.0,0.0,0.0,0.0,0.0,0.0,0.0,-6.5483,-6.5329,-6.5988,-6.8017,-7.0033,-7.1382,-7.1169,-7.2193,-7.2419,-7.1309,0.0,0.0,0.0,0.0,0.0,0.0,0.0,0.0,0.0,0.0,0.0,0.0,0.0,0.0,0.0,0.0,0.0,0.0,0.0,0.0,0.0,0.0,0.0,0.0,0.0,0.0,0.0,0.0,0.0,0.0,0.0,0.0,0.0,0.0,0.0,0.0,0.0,0.0,0.0,0.0,0.0,0.0,0.0,0.0,0.0,0.0,0.0,0.0,0.0,0.0,0.0,0.0,0.0,0.0,0.0,0.0,0.0,0.0,0.0,0.0,0.0,0.0,0.0,0.0,0.0,0.0,0.0,0.0,0.0,0.0,0.0,0.0,0.0,0.0,0.0,0.0,0.0,0.0,0.0,0.0,0.0,0.0,0.0,0.0,0.0,0.0,0.0,0.0,0.0,0.0,0.0,0.0,0.0,0.0,0.0,0.0,0.0,0.0,0.0,0.0,0.0,0.0,-6.496,-6.4191,-6.4023,-6.5967,-6.8009,-6.8832,-6.8582,-6.9843,-7.0261,-6.9257,0.0,0.0,0.0,0.0,0.0,0.0,0.0,0.0,0.0,0.0,0.0,0.0,0.0,0.0,0.0,0.0,0.0,0.0,0.0,0.0,0.0,0.0,0.0,0.0,0.0,0.0,0.0,0.0,0.0,0.0,0.0,0.0,0.0,0.0,0.0,0.0,0.0,0.0,0.0,0.0,0.0,0.0,0.0,0.0,0.0,0.0,0.0,0.0,0.0,0.0,0.0,0.0,0.0,0.0,0.0,0.0,0.0,0.0,0.0,0.0,-4.1804,-4.2548,0.0,0.0,0.0,0.0,0.0,0.0,0.0,0.0,0.0,0.0,0.0,0.0,0.0,0.0,0.0,0.0,0.0,0.0,0.0,0.0,0.0,0.0,0.0,0.0,0.0,0.0,0.0,0.0,0.0,0.0,0.0,0.0,0.0,0.0,0.0,0.0,0.0,0.0,0.0,0.0,-6.3676,-6.3419,-6.4023,-6.5967,-6.6591,-6.6738,-6.665,-6.7827,-6.8226,-6.7647,-6.8656,0.0,0.0,0.0,0.0,0.0,0.0,0.0,0.0,0.0,0.0,0.0,0.0,0.0,0.0,0.0,0.0,0.0,0.0,0.0,0.0,0.0,0.0,0.0,0.0,0.0,0.0,0.0,0.0,0.0,0.0,0.0,0.0,0.0,0.0,0.0,0.0,0.0,0.0,0.0,0.0,0.0,0.0,0.0,0.0,0.0,0.0,0.0,0.0,0.0,0.0,0.0,0.0,0.0,0.0,0.0,0.0,0.0,0.0,0.0,-4.2022,-4.2255,0.0,0.0,0.0,0.0,0.0,0.0,0.0,0.0,0.0,0.0,0.0,0.0,0.0,0.0,0.0,0.0,0.0,0.0,0.0,0.0,0.0,0.0,0.0,0.0,0.0,0.0,0.0,0.0,0.0,0.0,0.0,0.0,0.0,0.0,0.0,0.0,0.0,0.0,0.0,0.0,-6.2814,-6.3076,-6.3816,-6.509,-6.6167,-6.6426,-6.5757,-6.6508,-6.6723,-6.6006,-6.7192,0.0,0.0,0.0,0.0,0.0,0.0,0.0,0.0,0.0,0.0,0.0,0.0,0.0,0.0,0.0,0.0,0.0,0.0,0.0,0.0,0.0,0.0,0.0,0.0,0.0,0.0,0.0,0.0,0.0,0.0,0.0,0.0,0.0,0.0,0.0,0.0,0.0,0.0,0.0,0.0,0.0,0.0,0.0,0.0,0.0,0.0,0.0,0.0,0.0,0.0,0.0,0.0,0.0,-4.2758,-4.3001,-4.3505,-4.3791,-4.3923,-4.373,-4.2957,-4.2775,-4.285,-4.3869,0.0,0.0,0.0,0.0,0.0,0.0,0.0,0.0,0.0,0.0,0.0,0.0,0.0,0.0,0.0,0.0,0.0,0.0,0.0,0.0,0.0,0.0,0.0,0.0,-6.0,-5.9879,-6.0226,0.0,0.0,0.0,0.0,0.0,0.0,0.0,0.0,0.0,0.0,0.0,-6.2017,-6.2816,-6.3595,-6.4357,-6.5844,-6.643,-6.5369,-6.5909,-6.571,-6.4839,-6.6051,-6.7107,0.0,0.0,0.0,0.0,0.0,0.0,0.0,0.0,0.0,0.0,0.0,0.0,0.0,0.0,0.0,0.0,0.0,0.0,0.0,0.0,0.0,0.0,0.0,0.0,0.0,0.0,0.0,0.0,0.0,0.0,0.0,0.0,-4.0339,-3.9739,0.0,0.0,0.0,0.0,0.0,0.0,0.0,0.0,0.0,0.0,0.0,0.0,0.0,-4.2959,-4.4084,-4.3206,-4.3054,-4.4028,-4.3591,-4.3847,-4.4778,-4.4826,-4.5024,-4.5663,-4.512,0.0,-4.3388,-4.3703,0.0,0.0,0.0,0.0,0.0,0.0,0.0,0.0,0.0,0.0,0.0,0.0,0.0,0.0,0.0,0.0,0.0,0.0,0.0,0.0,0.0,0.0,-5.9948,-6.0011,-6.0613,-6.0878,-6.0696,-6.0506,-6.0357,-6.0697,-6.0102,-5.9727,0.0,0.0,0.0,0.0,0.0,0.0,-6.1648,-6.2545,-6.3633,-6.4888,-6.5661,-6.5939,-6.5853,-6.5928,-6.591,-6.5154,-6.5137,-6.5772,-6.7189,-6.7916,0.0,0.0,0.0,0.0,0.0,0.0,0.0,0.0,0.0,0.0,0.0,0.0,0.0,0.0,0.0,0.0,0.0,0.0,0.0,0.0,0.0,0.0,0.0,0.0,0.0,0.0,0.0,0.0,0.0,-3.9468,-3.9495,-3.8683,-3.9063,-3.9501,0.0,0.0,0.0,0.0,0.0,0.0,0.0,0.0,0.0,-4.3976,-4.3219,-4.324,-4.4335,-4.3931,-4.4043,-4.4688,-4.4832,-4.5329,-4.6171,-4.6346,-4.6838,-4.7505,-4.7553,-4.694,-4.5914,-4.5333,-4.513,-4.5013,0.0,0.0,0.0,0.0,-4.6743,-4.757,-4.8306,-4.8666,-4.9038,-5.0661,0.0,0.0,0.0,0.0,0.0,0.0,0.0,0.0,0.0,0.0,-5.8879,-6.046,-6.1437,-6.2038,-6.1851,-6.1553,-6.1055,-6.0147,-5.9803,-5.9444,-5.9791,-5.9991,0.0,0.0,0.0,-6.1029,-6.181,-6.2804,-6.3759,-6.4518,-6.5487,-6.6006,-6.5783,-6.6037,-6.6052,-6.5302,-6.4832,-6.5013,-6.6481,-6.8033,-6.9472,0.0,0.0,0.0,0.0,0.0,0.0,0.0,0.0,0.0,0.0,0.0,0.0,0.0,0.0,0.0,0.0,0.0,0.0,0.0,0.0,0.0,0.0,0.0,0.0,0.0,0.0,0.0,0.0,-3.864,-3.9037,-3.8163,-3.8989,-3.9387,0.0,0.0,0.0,0.0,0.0,0.0,-4.2062,-4.2026,-4.2905,-4.4908,-4.4024,-4.4026,-4.5011,-4.5281,-4.5631,-4.6044,-4.6743,-4.741,-4.8046,-4.8363,-4.884,-4.9333,-4.9603,-4.9333,-4.8618,-4.7252,-4.6445,-4.5987,-4.6306,-4.6453,-4.6754,-4.7223,-4.7725,-4.8328,-4.7979,-4.7836,-4.8178,-4.9055,-4.9554,-5.0232,-5.1064,0.0,0.0,0.0,0.0,-5.3345,-5.5727,-5.7129,-5.8546,-6.112,-6.2452,-6.299,-6.2866,-6.2493,-6.1624,-6.0094,-5.9737,-5.9628,-5.957,-5.9794,0.0,-6.0175,-6.062,-6.1219,-6.1954,-6.3201,-6.3867,-6.4311,-6.5342,-6.6065,-6.5573,-6.5897,-6.5964,-6.5137,-6.474,-6.4724,-6.5426,-6.7394,-6.8961,-7.0519,0.0,0.0,0.0,0.0,0.0,0.0,0.0,0.0,0.0,0.0,0.0,0.0,0.0,0.0,0.0,0.0,0.0,0.0,0.0,0.0,0.0,0.0,0.0,0.0,0.0,0.0,0.0,0.0,0.0,-3.9196,-4.007,0.0,0.0,0.0,0.0,-4.0658,-4.1309,-4.1992,-4.2707,-4.3073,-4.3613,-4.4407,-4.5027,-4.5726,-4.6441,-4.7458,-4.8268,-4.8935,-4.9682,-5.0206,-5.0572,-5.089,-5.108,-5.1128,-5.1128,-5.0937,-5.0477,-4.8665,-4.7521,-4.7131,-4.7099,-4.7099,-4.7195,-4.7898,-4.8169,-4.8217,-4.8014,-4.8459,-4.9239,-4.9255,-4.9902,-5.0596,-4.9351,-5.0431,0.0,0.0,-5.3256,-5.4617,-5.7484,-5.8926,-6.0039,-6.2595,-6.3632,-6.388,-6.3425,-6.299,-6.2369,-6.1396,-6.0506,-5.999,-6.0131,0.0,-5.9061,-5.9963,-6.0488,-6.1076,-6.1831,-6.3135,-6.4149,-6.4667,-6.5122,-6.5391,-6.537,-6.5635,-6.542,-6.498,-6.4494,-6.4183,-6.3728,-6.4926,-6.6868,-6.9287,-7.0075,0.0,0.0,0.0,0.0,0.0,0.0,0.0,0.0,0.0,0.0,0.0,0.0,0.0,0.0,0.0,0.0,0.0,0.0,0.0,0.0,0.0,0.0,0.0,0.0,0.0,0.0,0.0,0.0,-4.0276,-4.1563,0.0,-4.1992,-4.1961,-4.2103,-4.2453,-4.3136,-4.3947,-4.4868,-4.4085,-4.4902,-4.7458,-4.6757,-4.6476,-4.6949,-4.8779,-4.917,-4.8185,-5.0139,-5.1064,-5.1414,-5.1557,-5.1732,-5.1922,-5.1922,-5.1875,-5.1684,-5.0842,-4.965,-4.8363,-4.7903,-4.7728,-4.7807,-4.83,-4.8618,-4.884,-4.9333,-4.9634,-4.9777,-4.9301,-4.9078,-4.8959,-4.8455,-4.8997,-4.9734,-5.0102,-5.0387,-5.1137,-5.4053,-5.5429,-5.6872,-6.0815,-6.2224,-6.3023,-6.3947,-6.4108,-6.3735,-6.2804,-6.1686,-6.0816,-6.0862,-6.0551,-6.0551,-6.1174,-6.1652,-6.2337,-6.3197,-6.4004,-6.4667,-6.5101,-6.5308,-6.5288,-6.4977,-6.5038,-6.4643,-6.3895,-6.345,-6.2991,-6.2503,-6.4141,-6.575,-6.7821,-6.9508,-7.1457,0.0,0.0,0.0,0.0,0.0,0.0,0.0,0.0,0.0,0.0,0.0,0.0,0.0,0.0,0.0,0.0,0.0,0.0,0.0,0.0,0.0,0.0,0.0,0.0,0.0,-4.0594,-4.1849,-4.1849,-4.3406,-4.4344,-4.3978,-4.4153,-4.4221,-4.3893,-4.4355,-4.4902,-4.5098,-4.4136,-4.4783,-4.7269,-4.6355,-4.5903,-4.6107,-4.8057,-4.8298,-4.7016,-4.8613,-4.9936,-5.0918,-5.1043,-5.1424,-5.232,-5.2447,-5.2447,-5.2304,-5.2049,-5.1287,-5.0175,-4.9603,-4.9285,-4.9237,-4.973,-4.9952,-5.0143,-5.0715,-5.0763,-5.0492,-4.9873,-4.9237,-4.8618,-4.8379,-4.83,-4.8379,-4.8745,-4.9015,-4.9735,-5.2658,-5.3923,-5.5304,-5.9334,-6.1346,-6.252,-6.3684,-6.45,-6.4977,-6.4232,-6.2969,-6.1976,-6.1831,-6.1665,-6.1727,-6.2183,-6.2617,-6.3197,-6.3942,-6.4604,-6.5101,-6.537,-6.5288,-6.5039,-6.4729,-6.4418,-6.3859,-6.299,-6.2493,-6.1976,-6.1375,-6.3075,-6.5121,-6.7343,-7.0381,-7.2559,-7.3774,0.0,0.0,0.0,0.0,0.0,0.0,0.0,0.0,0.0,0.0,0.0,0.0,0.0,0.0,0.0,0.0,0.0,0.0,0.0,0.0,0.0,0.0,0.0,-4.0324,-4.1833,-4.3216,-4.3947,-4.5583,-4.652,-4.6171,-4.6743,-4.6571,-4.4786,-4.5174,-4.487,-4.3746,-4.3539,-4.3442,-4.3998,-4.4305,-4.4472,-4.443,-4.5272,-4.5594,-4.5321,-4.586,-4.7072,-4.9196,-4.9539,-5.0535,-5.2335,-5.2701,-5.2621,-5.232,-5.232,-5.232,-5.2272,-5.1922,-5.1605,-5.1382,-5.2049,-5.2097,-5.1827,-5.2177,-5.1875,-5.1207,-5.089,-5.0302,-4.9603,-4.892,-4.8745,-4.8792,-4.9158,-4.973,-5.0826,-5.3789,-5.467,-5.5666,-5.8079,-6.074,-6.2555,-6.2127,-6.4178,-6.5971,-6.5495,-6.4356,-6.33,-6.2804,-6.2369,-6.2245,-6.2679,-6.3114,0.0,-6.4066,-6.4874,-6.5412,-6.5412,-6.5039,-6.4729,-6.4729,-6.3859,-6.299,-6.21,-6.1562,-6.092,-6.005,-6.1776,-6.4406,-6.7825,-7.2639,-7.4868,-7.4382,0.0,0.0,0.0,0.0,0.0,0.0,0.0,0.0,0.0,0.0,0.0,0.0,0.0,0.0,0.0,0.0,0.0,0.0,0.0,0.0,0.0,-4.1055,-4.1627,-4.1103,-4.2977,-4.4836,-4.6076,-4.7331,-4.8252,-4.8665,-4.884,-4.8775,-4.8372,-4.7542,-4.6946,-4.7074,-4.4513,-4.3721,-4.5585,-4.4373,-4.3532,-4.3306,-4.5008,-4.5118,-4.3532,-4.5201,-4.6402,-4.7139,-4.8844,-4.989,-5.0306,-5.2019,-5.2621,-5.232,-5.232,-5.232,-5.2304,-5.2224,-5.2097,-5.2049,-5.2224,-5.2272,-5.2177,-5.2272,-5.2002,-5.1605,-5.1509,-5.1207,-5.081,-5.0588,-5.054,-5.062,-5.0985,-5.1207,-5.1666,-5.2539,-5.2922,-5.3681,-5.5884,-5.8476,-6.0743,-6.193,-6.4178,-6.5971,-6.5495,-6.5101,-6.4604,-6.3818,-6.3569,-6.3549,-6.3673,-6.4046,-6.4542,-6.4977,-6.5246,-6.5412,-6.5412,-6.5288,-6.4977,-6.4315,-6.3694,-6.299,-6.21,-6.0982,-6.0402,-6.0485,-6.0448,-6.2514,-6.7297,-7.2078,-7.4622,0.0,0.0,0.0,0.0,0.0,0.0,0.0,0.0,0.0,0.0,0.0,0.0,0.0,0.0,0.0,0.0,0.0,0.0,0.0,0.0,0.0,0.0,-4.2866,-4.4153,-4.4169,-4.5281,-4.6584,-4.7998,-4.8356,-4.8648,-4.9051,-4.8453,-4.7835,-4.6784,-4.6213,-4.5678,-4.4967,-4.3043,-4.2477,-4.3823,-4.263,-4.2018,-4.174,-4.3043,-4.3043,-4.174,-4.3043,-4.401,-4.5343,-4.6672,-4.8216,0.0,-5.0979,-5.1862,-5.232,-5.232,-5.232,0.0,0.0,0.0,0.0,0.0,-5.232,-5.232,-5.232,-5.2097,-5.1779,-5.1779,-5.1557,-5.1255,-5.1255,-5.1255,-5.1334,-5.17,-5.1779,-5.1875,-5.2224,-5.232,-5.2512,-5.4016,-5.6073,-5.8231,-5.9053,-6.1911,-6.429,-6.3846,-6.4705,0.0,-6.4729,-6.4625,-6.4563,-6.4377,-6.4729,-6.5039,-6.5101,-6.5288,-6.5412,-6.5412,-6.5225,-6.4853,-6.4128,-6.3632,0.0,0.0,0.0,-6.0907,-6.1599,-6.2447,0.0,0.0,0.0,-7.5137,-7.5465,-7.5853,0.0,0.0,-7.5001,-7.5626,0.0,0.0,0.0,0.0,0.0,0.0,0.0,0.0,0.0,0.0,0.0,0.0,0.0,0.0,0.0,0.0,-4.4459,-4.6788,-4.7889,-4.7858,-4.7918,-4.9352,-4.8514,-4.7819,-4.7878,-4.7101,-4.5253,-4.315,-4.3317,-4.2745,-4.0418,0.0,0.0,0.0,0.0,-4.045,-4.0184,-4.016,-4.016,-4.0124,-4.0124,-4.1311,-4.3182,-4.3695,-4.5664,-4.9382,-4.9644,-5.0795,-5.232,-5.232,-5.232,-5.232,-5.232,-5.232,-5.232,-5.232,-5.232,-5.232,-5.232,0.0,0.0,-5.1779,-5.1605,-5.1382,-5.1334,-5.1334,-5.143,-5.1748,-5.1827,-5.1922,-5.2224,-5.232,-5.232,-5.232,-5.3999,-5.5601,-5.5241,-5.8702,-6.1894,-6.1699,-6.3535,-6.5016,-6.5412,-6.5412,-6.5288,-6.4915,-6.5163,-6.5288,-6.4915,-6.5184,-6.5412,-6.5412,0.0,0.0,-6.4108,-6.3569,-6.2617,-6.0941,-6.1148,-6.1768,-6.2708,-6.6146,-6.8886,-7.074,-7.4194,-7.5929,-7.5879,-7.5929,-7.5929,-7.5854,-7.5971,-7.6203,0.0,0.0,0.0,0.0,0.0,0.0,0.0,0.0,0.0,0.0,0.0,0.0,0.0,0.0,0.0,-4.3291,-4.4985,-4.6524,-4.8293,-4.7382,-4.7159,-4.8929,-4.7562,-4.6579,-4.7074,-4.677,-4.6559,-4.5889,-4.4475,-4.3542,-4.3388,-4.1596,-4.0836,-4.0776,-4.0836,-4.0739,-4.0474,-4.045,-4.0353,-4.0124,0.0,0.0,-4.0736,-4.2592,-4.4675,-4.6989,-4.8873,-5.0795,-5.232,-5.232,-5.232,-5.232,-5.232,-5.232,-5.232,-5.232,-5.232,-5.232,-5.232,-5.2272,-5.2177,-5.1875,-5.1922,-5.2049,-5.1779,-5.1875,0.0,-5.2177,-5.2224,-5.2224,-5.2304,-5.232,-5.232,-5.232,-5.3999,-5.5601,-5.5241,-5.727,-5.9729,-6.1232,-6.2381,-6.3472,-6.5016,-6.5412,-6.5536,-6.5805,-6.5598,-6.5536,-6.5805,-6.5598,-6.5412,-6.5412,-6.4977,-6.4542,-6.4108,-6.33,-6.2493,-6.181,-6.1499,-6.1319,-6.118,-6.5527,-6.8074,-6.8481,-7.3008,-7.5176,-7.4724,-7.5176,-7.5176,-7.4749,-7.5623,-7.6172,0.0,0.0,0.0,0.0,0.0,0.0,0.0,0.0,0.0,0.0,0.0,-4.117,-4.1155,0.0,-4.4171,-4.4741,-4.564,-4.6527,-4.765,-4.6238,-4.5705,-4.7359,-4.6002,-4.4944,-4.536,-4.4549,-4.4073,-4.3786,-4.2934,-4.249,-4.2352,-4.1519,-4.1065,-4.0933,-4.1065,-4.1005,-4.0739,-4.0739,-4.0679,-4.051,-4.0389,-4.0486,-4.0715,-4.1522,-4.3001,-4.513,-4.7074,-4.8958,-5.0746,-5.1806,-5.232,-5.232,-5.232,-5.232,-5.232,-5.232,-5.232,-5.232,-5.232,-5.2177,-5.2049,-5.2049,-5.2049,-5.2049,-5.2049,-5.2177,-5.232,-5.232,-5.232,-5.232,-5.232,-5.232,-5.232,-5.232,-5.2873,-5.3405,-5.3256,-5.4694,-5.6866,-5.9259,-6.0841,-6.2867,-6.5283,-6.5557,-6.5598,-6.6053,-6.5909,-6.5846,-6.6095,-6.5909,-6.566,-6.5432,-6.5225,-6.4915,-6.4418,-6.3549,-6.3052,-6.3052,-6.239,-6.2017,-6.2017,-6.6364,-6.8514,-6.8261,-7.2834,-7.4975,-7.4423,-7.4699,-7.4699,-7.4423,-7.4975,-7.5226,0.0,0.0,0.0,0.0,0.0,0.0,0.0,-3.9657,-4.0594,-4.2135,-4.2571,-4.3253,-4.4185,-4.4375,-4.4346,-4.5133,-4.5614,-4.6026,-4.6701,-4.4893,-4.4177,-4.5293,-4.4292,-4.3398,-4.3296,-4.2278,-4.1234,-4.0812,-4.1126,-4.1138,-4.0703,-4.1102,-4.1234,-4.1029,-4.1222,-4.1234,-4.1005,-4.1005,-4.1005,-4.0933,-4.0703,-4.0812,-4.1162,-4.0679,-4.1535,-4.3643,-4.5989,-4.8086,-4.9957,-5.1534,-5.232,-5.232,-5.232,-5.232,-5.232,-5.232,-5.232,-5.232,-5.232,-5.2129,-5.1922,-5.2049,-5.2002,-5.1922,-5.2049,-5.2224,-5.232,-5.232,-5.232,-5.232,-5.232,-5.232,-5.232,-5.232,-5.1779,-5.1255,-5.1334,-5.2514,-5.418,-5.683,-5.9048,-6.1581,-6.4978,-6.5196,-6.5304,-6.6198,-6.6095,-6.5991,-6.6095,-6.6033,-6.5846,-6.5474,-6.5246,-6.4977,-6.448,-6.3859,-6.3632,-6.3921,-6.3238,-6.2928,-6.3238,-6.7208,-6.8996,-6.8491,-7.2809,-7.4749,-7.4096,-7.4197,-7.4197,-7.4096,-7.4197,-7.4322,-3.8672,-3.802,-3.7814,-3.7702,-3.8131,-3.8926,0.0,-4.1103,-4.2183,-4.4201,-4.3615,-4.2864,-4.2498,-4.3088,-4.383,-4.3447,-4.3757,-4.4252,-4.5105,-4.3294,-4.2155,-4.2081,-4.1934,-4.1742,-4.2192,-4.179,-4.1657,-4.1584,-4.1427,-4.1295,-4.1234,-4.1295,-4.1331,-4.1295,-4.1331,-4.1331,-4.1295,-4.1295,-4.1162,-4.0933,-4.0908,-4.08,-4.0607,-4.0317,-4.1237,-4.3596,-4.7273,-5.0002,-5.2031,-5.2288,-5.232,-5.232,-5.232,-5.232,-5.232,-5.232,-5.232,-5.232,-5.232,-5.2272,-5.2145,-5.1557,-5.1779,-5.2129,-5.1557,-5.1827,-5.232,-5.232,-5.232,-5.232,-5.232,-5.232,-5.232,-5.232,-5.1779,-5.1334,-5.1652,-5.141,-5.1971,-5.495,-5.6016,-5.7878,-6.2395,-6.305,-6.3975,-6.6249,-6.6033,-6.566,-6.6053,-6.5743,-6.5474,-6.5412,-6.4687,-6.4004,-6.3569,-6.3818,-6.3818,-6.3487,-6.3362,-6.3135,-6.2741,-6.6486,-6.8468,-6.7735,-7.2248,-7.3996,-7.2916,-7.3443,-7.3418,-7.2941,-7.3443,-7.3946,-3.9164,-3.8402,-3.8179,-3.8989,-3.9561,-4.0388,-4.2199,-4.3327,-4.4518,-4.6425,-4.6024,-4.5453,-4.6005,-4.4688,-4.3665,-4.3538,-4.3036,-4.2766,-4.3265,-4.2375,-4.1717,-4.1717,-4.1488,-4.1427,-4.1645,-4.156,-4.1488,-4.1488,-4.1391,-4.1259,-4.1102,-4.1102,-4.1102,-4.1102,-4.1102,-4.1162,-4.1331,-4.1331,-4.1259,-4.1162,-4.0836,-4.0739,-4.0776,-4.0317,-4.198,-4.5139,-4.6664,-4.9181,-5.232,-5.232,-5.232,-5.232,-5.232,-5.232,-5.232,-5.232,-5.232,-5.232,-5.232,-5.232,-5.2272,-5.1954,-5.2081,-5.2272,-5.1954,-5.2097,-5.232,-5.232,-5.232,-5.232,-5.232,-5.232,-5.232,-5.232,-5.1922,-5.1605,-5.1748,-5.1239,-5.1556,-5.4594,-5.5104,-5.6211,-5.9645,-6.1334,-6.2736,-6.3971,-6.5088,-6.5909,-6.6095,-6.5929,-6.5598,-6.5101,-6.4915,-6.4667,-6.419,-6.4356,-6.4356,-6.417,-6.3673,-6.3176,-6.2679,-6.642,-6.8238,-6.7209,-7.1688,-7.3544,-7.274,-7.2966,-7.2966,-7.274,-7.2991,-7.3217,-3.9005,-3.8783,-3.9037,-4.0149,-4.1118,-4.231,-4.4233,-4.5551,-4.6886,-4.8745,-4.7694,-4.6987,-4.8245,-4.5383,-4.2807,-4.315,-4.2452,-4.1717,-4.1971,-4.1717,-4.1452,-4.1295,-4.0969,-4.0715,-4.0583,-4.1029,-4.1331,-4.1331,-4.1259,-4.1102,-4.0836,-4.0908,-4.0933,-4.0933,-4.1005,-4.1126,-4.1331,-4.1331,-4.1295,-4.1222,-4.0908,-4.0776,-4.0812,-4.0353,-4.2464,-4.6322,-4.6126,-4.8388,-5.232,-5.232,-5.232,-5.232,-5.232,-5.232,-5.232,-5.232,-5.232,-5.232,-5.232,-5.232,-5.2304,-5.2177,-5.2224,-5.2304,-5.2177,-5.2224,-5.232,-5.232,-5.232,-5.232,-5.232,-5.232,-5.232,-5.232,-5.2049,-5.1827,-5.1922,-5.1462,-5.1629,-5.3937,-5.4003,-5.479,-5.7241,-5.9775,-6.1611,-6.2441,-6.4492,-6.6116,-6.6116,-6.5991,-6.5598,-6.4791,-6.5163,-6.5163,-6.4604,-6.4667,-6.4604,-6.4356,-6.3735,-6.3114,-6.2534,-6.6199,-6.8008,-6.7113,-7.12,-7.3142,-7.274,-7.274,-7.274,-7.274,-7.274,-7.274,-3.7734,-3.8942,-4.0324,-4.0674,-4.258,-4.4741,-4.6171,-4.7553,-4.9142,-5.1239,-4.8342,-4.5874,-4.7134,-4.3646,-4.0715,-4.1234,-4.1331,-4.1427,-4.1681,-4.1295,-4.0776,-4.022,-3.9701,-3.9182,-3.8675,-4.0257,-4.1331,-4.1331,-4.1102,-4.0836,-4.0583,-4.08,-4.0933,-4.0933,-4.1198,-4.1331,-4.1331,-4.1331,-4.1198,-4.0933,-4.1198,-4.1029,-4.0546,-4.0257,-4.2361,-4.6028,-4.6028,-4.8388,-5.232,-5.232,-5.232,-5.232,-5.232,-5.232,-5.232,-5.232,-5.232,-5.232,-5.232,-5.232,-5.2272,-5.1922,-5.2049,-5.2272,-5.1906,-5.2049,-5.232,-5.232,-5.232,-5.232,-5.232,-5.232,-5.232,-5.232,-5.2049,-5.1875,-5.2224,-5.2002,-5.1875,-5.2208,-5.2512,-5.3262,-5.6,-5.8149,-6.0465,-6.2473,-6.4714,-6.6116,-6.6116,-6.5722,-6.5246,-6.4791,-6.5163,-6.5039,-6.417,-6.448,-6.4356,-6.3487,-6.3383,-6.299,-6.21,-6.569,-6.7415,-6.709,-7.081,-7.274,-7.274,-7.274,-7.274,-7.274,-7.274,-7.274,-3.8989,-4.034,-4.2103,-4.3835,-4.5233,-4.6711,-4.857,-4.9905,-5.0485,-5.0105,-4.8822,-4.6657,-4.4279,-4.2415,-4.0895,-4.0223,-4.0293,-4.0739,-4.1355,-4.1005,-4.0353,-3.9436,-3.9339,-3.8989,-3.812,-3.9086,-3.9894,-4.0257,-4.0353,-4.0353,-4.0281,-4.0353,-4.0389,-4.0389,-4.0486,-4.0607,-4.0812,-4.0812,-4.0776,-4.0679,-4.0583,-4.0353,-3.9991,-3.9894,-4.2195,-4.6028,-4.6028,-4.8388,-5.232,-5.232,-5.232,-5.232,-5.232,-5.232,-5.232,-5.232,-5.232,-5.232,-5.232,-5.232,-5.2304,-5.2177,-5.2224,-5.2272,-5.2177,-5.2224,-5.232,-5.232,-5.232,-5.232,-5.232,-5.232,-5.232,-5.232,-5.2224,-5.2177,-5.2272,-5.2049,-5.1875,-5.2224,-5.2129,-5.2225,-5.3208,-5.5324,-5.8357,-6.262,-6.4654,-6.566,-6.566,-6.5536,-6.5225,-6.4791,-6.4853,-6.4729,-6.4128,-6.3921,-6.3549,-6.2928,-6.2659,-6.2079,-6.1168,-6.5026,-6.7113,-6.6608,-7.0639,-7.274,-7.274,-7.274,-7.274,-7.274,-7.3117,-7.3092,-3.937,-4.1454,-4.4105,-4.5805,-4.7235,-4.857,-5.0079,-5.1112,-5.1303,-4.9321,-4.7745,-4.5655,-4.2058,-4.0335,-3.9226,-3.8655,-3.8796,-3.9375,-4.045,-4.0088,-3.9448,-3.876,-3.8663,-3.8301,-3.7408,-3.7987,-3.8699,-3.9412,-3.9701,-3.9834,-3.9834,-4.0027,-4.0124,-4.0124,-4.022,-4.0353,-4.0546,-4.0546,-4.0546,-4.0546,-4.016,-3.9955,-3.987,-3.9762,-4.1575,-4.4966,-4.5752,-4.7868,-5.1261,-5.2047,-5.232,-5.232,-5.232,-5.232,-5.232,-5.232,-5.232,-5.232,-5.232,-5.232,-5.232,-5.232,-5.232,-5.232,-5.232,-5.232,-5.232,-5.232,-5.232,-5.232,-5.232,-5.232,-5.232,-5.232,-5.232,-5.232,-5.232,-5.2129,-5.2049,-5.2272,-5.2129,-5.1954,-5.1954,-5.484,-5.8428,-6.2794,-6.4896,-6.5909,-6.5909,-6.5619,-6.5288,-6.4977,-6.4853,-6.4542,-6.4108,-6.3632,-6.3176,-6.27,-6.2431,-6.1872,-6.0961,-6.4937,-6.7044,-6.6378,-7.0542,-7.274,-7.274,-7.2941,-7.3042,-7.3042,-7.3619,-7.3694,-3.8731,-4.2265,-4.625,-4.6711,-4.8538,-5.0349,-5.0699,-5.1287,-5.113,-4.8611,-4.5729,-4.2732,-4.0154,-3.7116,-3.5545,-3.6659,-3.6949,-3.7589,-3.9146,-3.8736,-3.8217,-3.818,-3.7758,-3.7239,-3.6684,-3.7106,-3.7818,-3.8856,0.0,-3.9315,-3.9375,-3.9834,-4.0088,-4.0088,-4.0353,-4.051,-4.051,-4.051,-4.051,-4.051,-3.9991,-3.9858,-4.0088,-3.9834,-4.0791,-4.2899,-4.498,-4.7072,-4.941,-5.123,-5.2288,-5.2272,-5.2272,-5.2272,-5.2272,-5.2304,-5.232,-5.232,-5.232,-5.232,-5.232,-5.232,-5.232,-5.232,-5.232,-5.232,-5.232,-5.232,-5.232,-5.232,-5.232,-5.232,-5.232,-5.232,-5.232,-5.232,-5.232,-5.232,-5.232,-5.232,-5.232,-5.232,-5.232,-5.6495,-6.0407,-6.2871,-6.538,-6.6799,-6.6737,-6.5991,-6.5432,-6.5412,-6.4977,-6.4542,-6.4108,-6.3632,-6.3135,-6.2679,-6.2617,-6.2245,-6.1375,-6.5424,-6.7389,-6.6401,-7.0566,-7.2765,-7.274,-7.3318,-7.3594,-7.3619,-7.4197,-7.4423,-4.1919,-4.4933,-4.8252,-4.9412,-5.0349,-5.1033,-5.1112,-5.1255,-5.0156,-4.5059,-4.3797,-4.1503,-3.5151,-3.5042,-3.5661,-3.5253,-3.6684,-3.8277,-3.9472,-3.9641,-3.9315,-3.8543,-3.8506,-3.8277,-3.7529,-3.7758,-3.8144,-3.8603,-3.8699,-3.8989,-3.9605,-3.9762,-3.9834,-3.9834,-3.9894,-3.9931,-3.9931,-3.9931,-3.9931,-3.9931,-3.9798,-3.9762,-3.9834,-3.9762,-4.0791,-4.2886,-4.3414,-4.5641,-4.8792,-4.9321,-5.0461,-5.1557,-5.1827,-5.1922,-5.1954,-5.2224,-5.232,-5.232,-5.232,-5.232,-5.232,-5.232,-5.232,-5.232,-5.232,-5.232,-5.232,-5.232,-5.232,-5.232,-5.232,-5.232,-5.232,-5.232,-5.232,-5.232,-5.232,-5.232,-5.232,-5.232,-5.232,-5.232,-5.232,-5.6685,-6.0324,-6.1043,-6.4374,-6.6674,-6.6343,-6.6095,-6.5805,-6.5474,-6.4687,-6.419,-6.4066,-6.3321,-6.2679,-6.2224,-6.2203,-6.1934,-6.1375,-6.5424,-6.7549,-6.6906,-7.1151,-7.3167,-7.274,-7.3318,-7.3594,-7.3619,-7.4573,-7.4598,-4.3425,-4.5963,-4.8508,-5.0277,-5.014,-4.9547,-4.9049,-4.8769,-4.6933,-4.1546,-4.0443,-3.854,-3.2658,-3.2571,-3.35,-3.371,-3.5416,-3.7335,-3.8989,-3.9255,-3.9158,-3.8929,-3.8929,-3.8796,-3.8337,-3.853,-3.8796,-3.9062,-3.8856,-3.8953,-3.9544,-3.9665,-3.9738,-3.9738,-3.9738,-3.9738,-3.9738,-3.9738,-3.9738,-3.9738,-3.9738,-3.9738,-3.9738,-3.9738,-4.0271,-4.1575,0.0,-4.4418,-4.7359,-4.8011,-4.9706,-5.1525,-5.17,-5.1875,-5.2049,-5.2224,-5.232,-5.232,-5.232,-5.232,-5.232,-5.232,-5.232,-5.232,-5.232,-5.232,-5.232,-5.232,-5.232,-5.232,-5.232,-5.232,-5.232,-5.232,-5.232,-5.232,-5.232,-5.232,-5.232,-5.232,-5.232,-5.232,-5.232,-5.5799,-5.9003,-5.9995,-6.3287,-6.5934,-6.6256,-6.6053,-6.5722,-6.5432,-6.4791,-6.4294,-6.4066,-6.3569,-6.299,-6.2348,-6.2493,-6.2327,-6.1686,-6.5965,-6.7848,-6.7113,-7.1346,-7.3418,-7.3117,-7.3669,-7.4071,-7.4322,-7.5201,-7.5251,-4.3928,-4.5985,-4.7835,-4.9655,-4.8811,-4.7252,-4.6073,-4.4756,-4.2724,-3.7971,-3.635,-3.4682,-3.1348,-3.0144,-3.0274,-3.2217,-3.3919,-3.5839,-3.8217,-3.847,-3.8663,-3.9315,-3.9243,-3.9182,-3.9182,-3.9375,-3.9605,-3.9834,-3.9375,-3.9182,-3.9375,-3.9641,-3.9762,-3.9738,-3.9738,-3.9738,-3.9738,-3.9738,-3.9738,-3.9738,-3.9701,-3.9701,-3.9738,-3.9665,-3.9641,-3.9677,-4.1247,0.0,-4.5154,-4.6937,-4.903,-5.132,-5.1668,-5.1906,-5.2177,-5.2272,-5.232,-5.232,-5.232,-5.2272,-5.2272,-5.2304,-5.232,-5.232,-5.232,-5.232,-5.232,-5.232,-5.232,-5.232,-5.232,-5.232,-5.232,-5.232,-5.232,-5.232,-5.232,-5.232,-5.232,-5.232,-5.232,-5.232,-5.232,-5.4534,-5.7274,-5.9729,-6.2417,-6.479,-6.6689,-6.6095,-6.5536,-6.5412,-6.4977,-6.4542,-6.419,-6.4046,-6.3632,-6.2928,-6.3114,-6.3189,-6.2658,-6.6497,-6.8284,-6.7723,-7.1761,-7.377,-7.3694,-7.4247,-7.4774,-7.5251,-7.5804,-7.603,-4.2827,-4.4196,-4.597,-4.6743,-4.5972,-4.5154,-4.4772,-4.2582,-3.9628,-3.606,-3.3491,-3.0993,-2.8037,-2.8241,-2.9586,-3.1891,-3.3992,-3.6068,-3.8253,-3.9255,-3.9762,-3.9665,-4.0027,-4.0281,-4.0281,-4.0317,-4.0353,-4.0414,-4.0088,-3.9834,-3.9665,-3.9931,-3.9967,-3.9738,-3.9738,-3.9738,-3.9738,-3.9738,-3.9738,-3.9738,-3.9508,-3.9532,-3.9738,-3.9279,-3.9206,-3.9412,-3.9385,0.0,-4.2509,-4.4499,-4.6369,-4.8302,-5.0626,-5.1382,-5.1525,-5.2097,-5.232,-5.232,-5.232,-5.2129,-5.1922,-5.2224,-5.232,-5.232,-5.232,-5.232,-5.232,-5.232,-5.232,-5.232,-5.232,-5.232,-5.232,-5.232,-5.232,-5.232,-5.232,-5.232,-5.232,-5.232,-5.232,-5.232,-5.232,-5.4534,-5.7274,-5.9729,-6.217,-6.4473,-6.6627,-6.6674,-6.6281,-6.5495,-6.4977,-6.4667,-6.4604,-6.3921,-6.3569,-6.3818,-6.3176,-6.3762,-6.5866,-6.8009,-6.9822,-7.1041,-7.3503,-7.4724,-7.4272,-7.4824,-7.5151,-7.5251,-7.5804,-7.5804,-4.4959,-4.5132,-4.4921,-4.5794,-4.4086,-4.2052,-4.0526,-3.7962,-3.5075,-3.2069,-3.0568,-2.9351,-2.7776,-2.7989,-2.9188,-3.089,-3.2724,-3.4837,-3.7372,-3.818,-3.8856,-3.9834,-4.016,-4.0389,-4.0546,-4.0679,-4.0703,-4.0546,-4.0546,-4.0377,-3.9967,-3.9931,-3.9858,-3.9738,-3.9738,-3.9738,-3.9738,-3.9738,-3.9738,-3.9738,-3.9605,-3.9544,-3.9532,-3.9412,-3.9279,-3.9146,-3.9013,0.0,-4.1852,-4.3715,-4.5663,-4.7757,-5.0078,-5.1207,-5.1557,-5.1922,-5.2145,-5.232,-5.232,-5.2177,-5.2097,-5.2272,-5.2177,-5.2081,-5.2272,-5.232,-5.232,-5.232,-5.232,-5.232,-5.232,-5.232,-5.232,-5.232,-5.232,-5.232,-5.232,-5.232,-5.232,-5.232,-5.232,-5.232,-5.232,-5.3294,-5.5546,-5.9482,-6.1043,-6.2987,-6.6702,-6.7171,-6.6737,-6.5536,-6.5225,-6.4977,-6.4729,-6.4542,-6.4315,-6.4066,-6.3859,-6.4696,-6.6559,-6.8649,-7.047,-7.1955,-7.3997,-7.5101,-7.4849,-7.5101,-7.5377,-7.5678,-7.5929,-7.6055,-4.5432,-4.5111,-4.3322,-4.4191,-4.1991,-3.8786,-3.6302,-3.3641,-3.1048,-2.8704,-2.8315,-2.8243,-2.7912,-2.8124,-2.8681,-2.9924,-3.1324,-3.3243,-3.6128,-3.6853,-3.7794,-3.9738,-4.016,-4.0414,-4.0679,-4.0908,-4.0933,-4.0739,-4.08,-4.0643,-4.016,-3.987,-3.9738,-3.9738,-3.9738,-3.9738,-3.9738,-3.9738,-3.9701,-3.9641,-3.9605,-3.9472,-3.9279,-3.9351,-3.9219,-3.8856,-3.8796,-3.9675,0.0,-4.2764,-4.4852,-4.7094,-4.9281,-5.0674,-5.17,-5.1827,-5.2081,-5.232,-5.232,-5.2272,-5.2224,-5.2272,-5.2129,-5.1954,-5.2224,-5.232,-5.232,-5.232,-5.232,-5.232,-5.232,-5.232,-5.232,-5.232,-5.232,-5.232,-5.232,-5.232,-5.232,-5.232,-5.232,-5.232,-5.232,-5.232,-5.4042,-5.8737,-5.9748,-6.1796,-6.6083,-6.7246,-6.7047,-6.5846,-6.5619,-6.537,-6.4915,-6.5101,-6.4977,-6.4253,-6.4356,-6.5382,-6.7422,-6.8996,-7.0864,-7.2751,-7.459,-7.5402,-7.5402,-7.5402,-7.5628,-7.6055,-7.618,-7.6456,-4.0533,-4.0467,-4.0563,-3.9794,-3.8314,-3.6535,-3.4875,-3.2043,-2.943,-2.8613,-2.7285,-2.6503,-2.6734,-2.6918,-2.7763,-2.955,-3.0576,-3.2085,-3.4764,-3.6394,-3.7854,-3.9243,-4.0281,-4.0969,-4.1234,-4.1259,-4.1295,-4.1259,-4.0836,-4.045,-4.016,-3.987,-3.9738,-3.9738,-3.9738,-3.9738,-3.9738,-3.9738,-3.9605,-3.9375,-3.9146,-3.9013,-3.8989,-3.8506,-3.841,-3.8567,-3.8313,-3.8449,0.0,-4.0683,-4.271,-4.4795,-4.7375,-4.9698,-5.1382,-5.2049,-5.2272,-5.232,-5.232,-5.2097,-5.1875,-5.2224,-5.2272,-5.2272,-5.2304,-5.232,-5.232,-5.232,-5.232,-5.232,-5.232,-5.232,-5.232,-5.232,-5.232,-5.232,-5.232,-5.232,-5.232,-5.232,-5.232,-5.232,-5.232,-5.232,-5.3311,-5.6269,-5.8754,-6.108,-6.3613,-6.6022,-6.7295,-6.6737,-6.6302,-6.5867,-6.5412,-6.4977,-6.4729,-6.4667,-6.3921,-6.5384,-6.951,-6.9498,-7.15,-7.5559,-7.5979,-7.5979,-7.5979,-7.5979,-7.6004,-7.6055,-7.6557,-7.6833,-4.0539,-4.0878,-4.0317,-3.9412,-3.7372,-3.5241,-3.3358,-3.0656,-2.8205,-2.7231,-2.6704,-2.6508,-2.6616,-2.6858,-2.7329,-2.8222,-2.8632,-2.9719,-3.2229,-3.34,-3.503,-3.7818,-3.8953,-3.9907,-4.1005,-4.1234,-4.1198,-4.0872,-4.0353,-3.9991,-3.9894,-3.9798,-3.9738,-3.9738,-3.9738,-3.9665,-3.9508,-3.9665,-3.9532,-3.911,-3.9146,-3.9025,-3.8699,-3.8663,-3.8506,-3.8313,-3.8374,-3.8277,0.0,-4.0429,-4.1791,-4.2981,-4.65,-4.8641,-4.9798,-5.1366,-5.2129,-5.232,-5.232,-5.2224,-5.2129,-5.2272,-5.232,-5.232,-5.232,-5.232,-5.232,-5.232,-5.232,-5.232,-5.232,-5.232,-5.232,-5.232,-5.232,-5.232,-5.232,-5.232,-5.232,-5.232,-5.232,-5.232,-5.232,-5.232,-5.3294,-5.5782,-5.8505,-6.1173,-6.3481,-6.6148,-6.773,-6.7254,-6.655,-6.6033,-6.5846,-6.5412,-6.5163,-6.5163,-6.4791,-6.628,-7.0201,-7.0185,-7.2091,-7.6055,-7.6055,-7.6055,-7.6055,-7.6055,-7.6055,-7.608,-7.6632,-7.6883,-3.9465,-4.0295,-4.016,-3.9122,-3.6841,-3.4342,-3.2398,-2.9803,-2.7534,-2.6544,-2.6556,-2.6749,-2.6749,-2.6906,-2.7087,-2.728,-2.7437,-2.8318,-3.0564,-3.1336,-3.2881,-3.6165,-3.7179,-3.8241,-3.9834,-4.0679,-4.0933,-4.0583,-4.0124,-3.9834,-3.9738,-3.9738,-3.9738,-3.9738,-3.9738,-3.9641,-3.9472,-3.9569,-3.9412,-3.8953,-3.905,-3.8856,-3.8446,-3.8627,-3.8506,-3.8156,-3.8349,-3.8313,0.0,-3.9652,-4.0786,-4.176,-4.4952,-4.658,-4.7785,-5.0283,-5.1074,-5.1518,-5.2063,-5.232,-5.232,-5.232,-5.232,-5.232,-5.232,-5.232,-5.232,-5.232,-5.232,-5.232,-5.232,-5.232,-5.232,-5.232,-5.232,-5.232,-5.232,-5.232,-5.232,-5.232,-5.232,-5.232,-5.232,-5.232,-5.2816,-5.4804,-5.8024,-6.0964,-6.27,-6.593,-6.8061,-6.773,-6.6985,-6.6488,-6.6302,-6.5867,-6.5557,-6.5412,-6.5288,-6.6835,-7.0498,-7.0688,-7.2588,-7.6306,-7.6306,-7.623,-7.6055,-7.6055,-7.6055,-7.608,-7.6632,-7.7731,-3.5971,-3.812,-3.9738,-3.818,-3.6165,-3.4016,-3.1879,-2.9538,-2.7582,-2.6798,-2.6846,-2.7027,-2.7027,-2.7027,-2.7027,-2.7039,-2.7473,-2.8463,-3.0346,-3.1059,-3.2193,-3.4342,-3.509,-3.6032,-3.7625,-3.9472,-4.0546,-4.0546,-4.0281,0.0,-3.9738,-3.9738,-3.9738,-3.9738,-3.9738,-3.9738,-3.9738,-3.9472,-3.9219,-3.8953,-3.8663,-3.841,-3.8156,-3.8156,-3.8156,-3.8156,-3.8156,-3.8156,0.0,-3.8156,-3.9435,-4.1256,-4.1804,-4.3318,-4.5445,-4.8152,-4.9181,-4.944,-5.1534,-5.232,-5.232,-5.232,-5.232,-5.232,-5.232,-5.232,-5.232,-5.232,-5.232,-5.232,-5.232,-5.232,-5.232,-5.232,-5.232,-5.232,-5.232,-5.232,-5.232,-5.232,-5.232,-5.232,-5.232,-5.232,-5.232,-5.232,-5.6772,-6.0243,-6.0243,-6.4925,-6.8186,-6.8186,-6.7751,-6.7295,-6.6861,-6.6364,-6.5909,-6.5432,-6.4977,-6.6472,-7.0711,-7.0901,-7.2777,-7.6883,-7.6858,-7.6607,-7.6055,-7.6055,-7.6055,-7.608,-7.6632,-7.9266,-3.3147,-3.4607,-3.5585,-3.4704,-3.3171,-3.159,-3.0539,-2.8874,-2.7425,-2.6991,-2.6966,-2.7027,-2.7027,-2.7027,-2.7208,-2.7739,-2.7968,-2.8415,-2.9381,-3.0914,-3.2592,-3.4378,-3.7299,-3.9448,-4.0124,-4.0414,-4.0546,-4.0546,-4.0124,-3.9834,-3.9738,-3.9738,-3.9738,-3.9738,-3.9738,-3.9569,-3.9206,-3.9303,-3.9025,-3.841,-3.8506,-3.841,-3.8156,-3.8156,-3.8156,-3.8156,-3.8156,-3.8156,0.0,-3.8156,-3.8766,-3.9722,-4.1379,-4.2675,-4.3667,-4.6134,-4.7868,-4.9181,-4.9957,-5.1019,-5.232,-5.232,-5.232,-5.232,-5.232,-5.232,-5.232,-5.232,-5.232,-5.232,-5.232,-5.232,-5.232,-5.232,-5.232,-5.232,-5.232,-5.232,-5.232,-5.232,-5.232,-5.232,-5.232,-5.232,-5.232,-5.232,-5.6772,-6.0224,-6.0224,-6.4925,-6.8186,-6.8186,-6.8061,-6.7792,-6.7295,-6.6861,-6.6364,-6.5929,-6.5743,-6.7305,-7.1261,-7.143,-7.3321,-7.7436,-7.7436,-7.736,-7.7185,-7.7185,-7.7185,-7.7159,-7.6582,-7.8867,-3.0877,-3.2362,-3.3364,-3.2821,-3.1566,-3.0322,-2.9767,-2.8415,-2.7232,-2.7063,-2.7027,-2.7027,-2.7027,-2.7027,-2.7184,-2.7679,-2.7763,-2.8089,-2.9031,-3.0564,-3.241,-3.4607,-3.7661,-3.9774,-4.022,-4.0257,-4.0281,-4.0377,-3.9991,-3.9738,-3.9738,-3.9738,-3.9738,-3.9738,-3.9738,-3.9569,-3.9243,-3.9219,-3.8953,-3.8446,-3.841,-3.8253,-3.8023,-3.812,-3.8084,-3.8023,-3.812,-3.8156,0.0,-3.8156,-3.8253,-3.868,-4.0218,-4.1027,-4.1306,-4.3923,-4.6191,-4.8113,-4.8907,-5.0488,-5.232,-5.232,-5.232,-5.232,-5.232,-5.232,-5.232,-5.232,-5.232,-5.232,-5.232,-5.232,-5.232,-5.232,-5.232,-5.232,-5.232,-5.232,-5.232,-5.232,-5.232,-5.232,-5.232,-5.232,-5.232,-5.232,-5.6772,-6.0224,-6.0224,-6.4925,-6.8186,-6.8186,-6.8186,-6.8061,-6.7792,-6.7316,-6.6923,-6.6674,-6.6302,-6.7839,-7.2039,-7.2049,-7.3841,-7.8013,-7.8013,-7.7913,-7.7712,-7.7486,-7.7285,-7.7059,-7.6582,-7.8789,0.0,-3.1046,-3.2459,-3.1964,-3.0902,-2.9864,-2.9357,-2.8089,0.0,-2.7027,-2.7027,-2.7027,-2.7027,-2.7027,-2.7051,-2.7099,-2.7111,-2.7642,-2.9163,-3.025,-3.2073,-3.5259,-3.678,-3.7854,-3.8567,-3.9315,-3.9858,-4.0088,-3.9894,-3.9738,-3.9738,-3.9738,-3.9738,-3.9738,-3.9701,-3.9701,-3.9665,-3.9182,-3.8917,-3.8893,-3.8374,-3.8023,-3.7794,-3.8023,-3.7987,0.0,-3.8023,0.0,0.0,-3.812,-3.812,-3.818,-3.8446,-3.8699,-3.9239,-4.1332,-4.3688,-4.6028,-4.8128,-5.023,-5.2063,-5.2304,-5.232,-5.232,-5.232,-5.232,-5.232,-5.232,-5.232,-5.232,-5.232,-5.232,-5.232,-5.232,-5.232,-5.232,-5.232,-5.232,-5.232,-5.232,-5.232,-5.232,-5.232,-5.232,-5.232,-5.232,-5.652,-5.9977,-6.0224,-6.4684,-6.7927,-6.8165,-6.8186,-6.8186,-6.8186,-6.7792,-6.7544,-6.7482,-6.6674,-6.8344,-7.2909,-7.2646,-7.4314,-7.8386,-7.8591,-7.834,-7.7812,-7.726,-7.6733,-7.623,-7.6707,-7.9204,-2.7268,0.0,-2.8644,-2.8318,-2.8005,-2.7751,0.0,-2.7304,-2.7027,-2.7027,-2.7027,-2.7027,-2.7027,-2.7027,-2.722,-2.7824,-2.792,-2.8198,-2.8994,-3.1722,-3.4764,-3.7758,-3.9122,-3.9701,-3.9472,-3.9798,-4.0063,-4.0124,-3.9894,-3.9738,-3.9738,-3.9738,-3.9738,-3.9738,-3.9544,-3.9339,-3.9146,-3.8796,-3.8543,-3.8337,-3.8023,-3.7927,-3.8048,-3.7927,-3.7927,-3.8048,-3.7927,0.0,-3.8144,-3.7927,-3.7951,-3.818,-3.8446,-3.8699,-3.8989,-3.9769,-4.1586,-4.3928,-4.6028,-4.8128,-5.0215,-5.1791,-5.232,-5.232,-5.232,-5.232,-5.232,-5.232,-5.232,-5.232,-5.232,-5.232,-5.232,-5.232,-5.232,-5.232,-5.232,-5.232,-5.232,-5.232,-5.232,-5.232,-5.232,-5.232,-5.232,-5.232,-5.5041,-5.8006,-5.9977,-6.2963,-6.595,-6.7927,-6.8186,-6.8186,-6.8186,-6.8061,-6.7875,-6.7502,-6.6944,-6.8479,-7.2955,-7.2646,-7.4503,-7.9168,-7.9193,-7.9118,-7.8992,-7.8415,-7.8063,-7.7938,-7.7637,-7.9602,-2.6822,-2.7027,-2.7208,-2.7063,-2.7027,-2.7027,-2.7027,-2.7027,-2.7027,-2.7027,-2.7027,-2.7027,-2.7027,-2.7123,-2.7353,-2.7775,-2.8149,-2.9006,-3.0769,-3.328,-3.5935,-3.8627,-3.9472,-3.9834,0.0,-3.9931,-3.9931,-3.9931,-3.9798,-3.9738,-3.9738,-3.9738,-3.9665,-3.9569,-3.9315,-3.9146,-3.9146,-3.8736,-3.847,-3.8313,-3.7951,-3.783,-3.7951,-3.7698,-3.7722,-3.7951,-3.783,0.0,-3.7951,-3.783,-3.7854,-3.7987,-3.812,-3.841,-3.8796,-3.905,-4.062,-4.2954,-4.4151,-4.6551,-4.9425,-5.0488,-5.1518,-5.232,-5.232,-5.232,-5.232,-5.232,-5.232,-5.232,-5.232,-5.232,-5.232,-5.232,-5.232,-5.232,-5.232,-5.232,-5.232,-5.232,-5.232,-5.232,-5.232,-5.232,-5.232,-5.232,-5.455,-5.7274,-5.9748,-6.2474,-6.5207,-6.7947,-6.8186,-6.8186,-6.8186,-6.8186,-6.8061,-6.7813,-6.7358,-6.9013,-7.3618,-7.3358,-7.5283,-8.0122,-7.9896,-7.9645,-7.9394,-7.8817,-7.839,-7.8139,-7.8088,-8.017,-2.7123,-2.7148,-2.7135,-2.7051,-2.7063,-2.7075,-2.7039,-2.7063,-2.7075,-2.7039,-2.7027,-2.7027,-2.7027,-2.7304,-2.7558,-2.7594,-2.8451,-3.0177,-3.3243,-3.4801,-3.6454,-3.8687,-3.905,0.0,-3.9894,-3.9834,-3.9738,-3.9738,-3.9738,-3.9701,-3.9665,-3.9665,-3.9544,-3.9279,-3.9025,-3.8739,-3.8955,-3.8687,-3.8434,-3.8212,-3.7636,-3.7179,-3.7251,-3.6929,-3.6929,-3.7191,0.0,0.0,-3.7191,-3.7155,-3.7191,-3.7251,-3.7251,-3.7572,-3.812,-3.8334,-3.9897,-4.176,-4.2531,-4.5752,-4.9166,-4.9166,-5.0504,-5.232,-5.232,-5.232,-5.232,-5.232,-5.232,-5.232,-5.232,-5.232,-5.232,-5.232,-5.232,-5.232,-5.232,-5.232,-5.232,-5.232,-5.232,-5.232,-5.232,-5.232,-5.232,-5.232,-5.4313,-5.6772,-5.9729,-6.223,-6.4703,-6.7947,-6.8186,-6.8186,-6.8186,-6.8186,-6.8186,-6.8186,-6.7751,-6.9714,-7.4328,-7.4782,-7.6788,-8.0815,-8.0499,-7.9972,-7.952,-7.8942,-7.8415,-7.7963,-7.844,-8.0764,-2.757,-2.7691,-2.7582,-2.7135,-2.7196,-2.7304,-2.7087,-2.7208,-2.7292,-2.7075,-2.7027,-2.7027,-2.7027,-2.7606,-2.8162,-2.8403,-3.0057,-3.2193,-3.474,-3.6032,-3.7299,-3.8784,0.0,-3.9738,-3.9182,-3.9508,-3.9738,-3.9738,-3.9738,-3.9641,-3.9412,-3.9412,-3.9279,-3.9013,-3.8736,-3.8096,-3.683,-3.7608,-3.7477,-3.6393,-3.5657,-3.5038,-3.4425,-3.3963,-3.3897,-3.4106,0.0,-3.393,-3.4106,-3.3908,-3.4051,-3.4425,-3.4425,-3.4844,-3.5461,-3.6832,-3.767,-3.8853,-4.1802,-4.5752,-4.9166,-4.9166,-5.0504,-5.232,-5.232,-5.232,-5.232,-5.232,-5.232,-5.232,-5.232,-5.232,-5.232,-5.232,-5.232,-5.232,-5.232,-5.232,-5.232,-5.232,-5.232,-5.232,-5.232,-5.232,-5.232,-5.232,-5.2544,-5.4787,-5.9482,-6.0471,-6.2719,-6.7688,-6.8186,-6.8186,-6.8186,-6.8186,-6.8186,-6.8186,-6.7751,-6.9354,-7.3779,-7.7727,-8.0156,-8.1026,-8.0499,-8.0173,-8.0072,-7.952,-7.9218,-7.9143,-7.9218,-8.1585,-2.7329,-2.7389,-2.7181,-2.6523,-2.6688,-2.6596,-2.564,-2.5468,-2.5513,-2.54,-2.6028,-2.6398,-2.5933,-2.778,-2.9803,-3.1372,-3.2821,-3.4318,-3.6008,-3.678,-3.7686,-3.9013,0.0,-3.9508,-3.9569,-3.9665,-3.9738,-3.9738,-3.9605,-3.9472,-3.9339,-3.9206,-3.9013,-3.8736,-3.7694,-3.6978,-3.6055,-3.5553,-3.5045,-3.5036,-3.4448,-3.4073,-3.3636,-3.3033,-3.2947,-3.3303,0.0,-3.3012,-3.3098,-3.3012,-3.3152,-3.3464,-3.3464,-3.3895,-3.4551,-3.5604,-3.619,-3.678,-3.918,-4.2054,-4.4939,-4.6812,-4.8907,-5.0746,-5.2031,-5.232,-5.232,-5.232,-5.232,-5.232,-5.232,-5.232,-5.232,-5.232,-5.232,-5.232,-5.232,-5.232,-5.232,-5.232,-5.232,-5.232,-5.232,-5.232,-5.232,-5.232,-5.232,-5.4296,-5.95,-6.0224,-6.2211,-6.7688,-6.8186,-6.8186,-6.8186,-6.8186,-6.8186,-6.8186,-7.0484,-7.2741,-7.4713,-7.9442,-8.193,-8.193,-8.1353,-8.0926,-8.065,-8.0097,-7.967,-7.9394,-7.9394,-8.1714,-2.683,-2.689,-2.6617,-2.5679,-2.578,-2.6001,-2.479,-2.4592,-2.4635,-2.4797,-2.5549,-2.595,-2.5453,-2.8221,-3.1201,-3.3511,-3.4821,-3.566,-3.639,-3.7044,-3.787,-3.8894,-3.9087,-3.9436,-3.9991,-3.9858,-3.9738,-3.9738,-3.9508,-3.9063,-3.8739,-3.8477,-3.8179,-3.7576,-3.6347,-3.5394,-3.4692,-3.3238,-3.2806,-3.3315,-3.2859,-3.2764,-3.2455,-3.187,-3.1787,-3.2373,-3.2184,-3.187,-3.187,-3.187,-3.2006,-3.2204,-3.2256,-3.3005,-3.3983,-3.4439,-3.5004,-3.5693,-3.678,-3.8343,-4.0692,-4.4414,-4.7058,-4.9166,-5.1534,-5.232,-5.232,-5.232,-5.232,-5.232,-5.232,-5.232,-5.232,-5.232,-5.232,-5.232,-5.232,-5.2351,-5.2447,-5.2447,-5.2494,-5.2542,-5.2447,-5.2447,-5.2399,-5.232,-5.232,-5.4296,-5.95,-6.0224,-6.2211,-6.7688,-6.8186,-6.8186,-6.8186,-6.8186,-6.8186,-6.8186,-7.2726,-7.5402,-7.5402,-8.0173,-8.2683,-8.2683,-8.2106,-8.1604,-8.1227,-8.0549,-7.9997,-7.957,-7.9444,-8.1714,-2.6561,-2.6616,-2.623,-2.4323,-2.4963,-2.6069,-2.5819,-2.5869,-2.605,-2.6497,-2.6841,-2.6745,-2.6349,-2.9046,-3.1666,-3.2555,-3.4628,-3.5664,-3.5096,0.0,-3.7803,-3.7894,-3.9232,-3.9967,-3.9774,-3.9738,-3.9738,-3.9738,-3.9508,-3.8691,-3.7164,-3.6876,-3.5991,-3.4235,-3.3968,-3.3177,-3.1872,-3.1617,-3.1535,-3.1566,-3.1107,-3.0274,-2.9237,-2.8989,-2.8894,-2.8913,-2.8894,-2.8894,-2.8894,-2.8894,-2.9018,-2.9237,-2.9418,-3.0779,-3.2911,-3.3349,-3.4355,-3.5445,-3.5445,-3.7015,-3.9375,-4.2795,-4.5435,-4.7781,-5.1261,-5.232,-5.232,-5.232,-5.232,-5.232,-5.232,-5.232,-5.232,-5.232,-5.232,-5.232,-5.232,-5.2574,-5.2796,-5.2796,-5.3066,-5.3162,-5.2844,-5.2796,-5.2701,-5.2351,-5.232,-5.4296,-5.95,-6.0224,-6.2211,-6.7688,-6.8186,-6.8186,-6.8186,-6.8186,-6.8186,-6.8186,-7.2726,-7.5402,-7.5402,-8.0173,-8.2683,-8.2683,-8.2106,-8.1779,-8.1754,-8.0725,-8.0198,-8.0147,-7.962,-8.1714,-2.5073,-2.5197,-2.5083,-2.3621,-2.3862,-2.4396,-2.4408,-2.4322,-2.4569,-2.5081,-2.6488,-2.7715,-2.8353,-2.9747,-3.1062,-3.2825,-3.4635,-3.5678,-3.5865,-3.6268,-3.687,-3.7024,-3.7317,-3.7375,-3.7285,-3.7139,-3.7049,-3.7049,-3.6689,-3.6132,-3.5527,-3.4998,-3.4366,-3.3669,-3.2615,-3.1708,-3.119,-3.021,-2.9598,-2.9598,-2.9579,-2.9356,-2.8946,-2.8719,-2.8624,-2.8624,-2.8624,-2.8624,-2.8624,-2.8624,-2.8747,-2.8993,-2.9446,-3.0247,-3.1315,-3.1606,-3.207,-3.273,-3.3834,-3.4625,-3.593,-3.9351,-4.1726,-4.3848,-4.781,-4.9653,-5.0731,-5.2031,-5.232,-5.232,-5.232,-5.232,-5.232,-5.232,-5.2494,-5.2621,-5.2621,-5.2892,-5.3162,-5.3162,-5.3257,-5.3305,-5.3162,-5.3162,-5.3035,-5.2701,-5.2621,-5.4544,-5.9518,-6.0224,-6.2211,-6.7688,-6.8186,-6.8186,-6.8186,-6.8434,-6.8475,-6.8186,-7.2726,-7.5402,-7.5402,-8.0173,-8.2683,-8.2683,-8.2457,-8.2156,-8.1805,-8.1403,-8.085,-8.0198,-7.9997,-8.1848,-2.3836,-2.3935,-2.3989,-2.2823,-2.2833,-2.3365,-2.3879,-2.4079,-2.4457,-2.5279,-2.6601,-2.7787,-2.948,-3.0045,-3.0701,-3.23,-3.3794,-3.5004,-3.4923,-3.52,-3.5414,-3.5701,-3.5688,-3.5757,-3.5671,-3.5531,-3.5413,-3.5327,-3.495,-3.4385,-3.3972,-3.3442,-3.2826,-3.2179,-3.1099,-3.0453,-3.0453,-2.9231,-2.8643,-2.8719,-2.8794,-2.8842,-2.8842,-2.87,-2.8624,-2.8624,-2.8624,-2.8624,-2.8624,-2.8624,-2.8747,-2.8993,-2.9569,-2.9994,-3.0344,-3.0665,-3.0892,-3.1025,-3.2099,-3.2419,-3.3252,-3.6613,-3.8504,-4.0173,-4.5173,-4.755,-4.8877,-5.1277,-5.2063,-5.232,-5.232,-5.232,-5.2351,-5.2447,-5.2669,-5.2876,-5.2971,-5.3257,-5.3527,-5.3527,-5.3606,-5.3606,-5.34,-5.3352,-5.3209,-5.2892,-5.2844,-5.4759,-5.9717,-6.0444,-6.2362,-6.7688,-6.8186,-6.8248,-6.8372,-6.8662,-6.8786,-6.862,-7.2991,-7.5562,-7.5425,-8.0173,-8.2683,-8.2683,-8.2683,-8.2483,-8.2081,-8.1905,-8.1428,-8.07,-8.0373,-8.2158,-2.3137,-2.3112,-2.2854,-2.1716,-2.2104,-2.3162,-2.4835,-2.5383,-2.5978,-2.7679,-2.7348,-2.7375,-2.8732,-2.9663,-3.0179,-3.0605,-3.239,-3.3387,-3.2001,-3.3287,-3.4111,-3.3657,-3.4951,-3.5693,-3.5467,-3.5434,-3.5327,-3.5101,-3.4842,-3.3972,-3.1978,-3.1725,-3.0644,-2.8946,-2.8946,-2.8946,-2.8946,-2.8719,-2.8719,-2.8946,-2.8719,-2.8624,-2.8624,-2.8624,-2.8624,-2.8624,-2.8624,-2.8624,-2.8624,-2.8624,-2.8747,-2.8993,-2.9399,-2.9692,-2.9947,-3.0571,-3.0788,-3.0788,-3.0788,-3.0939,-3.1596,-3.509,-3.6223,-3.7494,-4.3875,-4.6494,-4.7521,-5.0473,-5.1791,-5.2304,-5.232,-5.232,-5.2399,-5.2749,-5.2844,-5.2939,-5.3257,-5.3622,-5.3877,-5.3877,-5.4178,-5.4178,-5.3479,-5.3352,-5.3257,-5.2892,-5.2844,-5.4858,-6.0097,-6.0866,-6.2703,-6.7729,-6.8186,-6.8372,-6.8786,-6.8848,-6.9034,-6.949,-7.3677,-7.5953,-7.5471,-8.0173,-8.2683,-8.2683,-8.2683,-8.2683,-8.2683,-8.2106,-8.1805,-8.1779,-8.0725,-8.2365,-2.1811,-2.2,-2.2365,-2.1924,-2.286,-2.4164,-2.5534,-2.5903,-2.6574,-2.8851,-2.8653,-2.8208,-2.9096,-2.9413,-2.9976,-3.0048,-3.1086,-3.1942,-3.1695,-3.1935,-3.2106,-3.1981,-3.2373,-3.2538,-3.2479,-3.2331,-3.2143,-3.1936,-3.1571,-3.0984,-3.0442,-2.9827,-2.9323,-2.8946,-2.8671,-2.8501,-2.8501,-2.8293,-2.8227,-2.8275,-2.8227,-2.835,-2.8624,-2.8624,-2.8624,-2.8624,-2.8624,-2.8624,-2.8624,-2.8624,-2.8823,-2.9172,-2.9295,-2.9739,-3.0316,-3.0344,-3.0543,-3.0769,-3.0647,-3.0713,-3.1143,-3.2143,-3.3339,-3.5133,-4.0679,-4.3072,-4.5187,-4.9957,-5.1518,-5.1775,-5.2288,-5.232,-5.2351,-5.2447,-5.2844,-5.3209,-5.3336,-5.3829,-5.4226,-5.4226,-5.4321,-5.4321,-5.4147,-5.4099,-5.3972,-5.3606,-5.4867,-5.7804,-6.2495,-6.49,-6.6713,-6.836,-6.8662,-6.8848,-6.9241,-6.9614,-6.9676,-6.949,-7.4009,-7.6664,-7.6481,-8.0563,-8.2859,-8.3236,-8.2859,-8.2683,-8.2683,-8.2508,-8.2206,-8.1805,-8.1478,-8.3294,-2.1414,-2.1801,-2.2255,-2.2416,-2.3493,-2.492,-2.6507,-2.733,-2.8227,-2.9994,-2.9645,-2.9125,-2.9541,-2.9598,-2.9673,-2.9947,-3.0694,-3.1289,-3.1459,-3.144,-3.1393,-3.1317,-3.1119,-3.0968,-3.0864,-3.0665,-3.042,-3.0146,-2.99,-2.9626,-2.9342,-2.9068,-2.887,-2.87,-2.8445,-2.8275,-2.8199,-2.8076,-2.8001,-2.8001,-2.8001,-2.8123,-2.8369,-2.8473,-2.8501,-2.8501,-2.8426,-2.8473,-2.8624,-2.8549,-2.8747,-2.9144,-2.922,-2.9598,-3.0117,-3.0174,-3.0316,-3.0524,-3.042,-3.0495,-3.0665,-3.0571,-3.1269,-3.3141,-3.7113,-3.9279,-4.1499,-4.7044,-4.9136,-4.9911,-5.1518,-5.2063,-5.2399,-5.2669,-5.3035,-5.3432,-5.3702,-5.4099,-5.4401,-5.4401,-5.4401,-5.4369,-5.4226,-5.4194,-5.4131,-5.3924,-5.7016,-6.046,-6.4508,-6.7056,-6.8807,-6.9096,-6.9096,-6.9283,-6.9738,-7.0007,-7.0131,-7.0049,-7.454,-7.733,-7.7514,-8.0951,-8.306,-8.316,-8.306,-8.2884,-8.2683,-8.2683,-8.2483,-8.2131,-8.2728,-8.4843,-2.1792,-2.2113,-2.2567,-2.3039,-2.4211,-2.578,-2.7774,-2.9276,-3.0391,-3.0921,-3.0316,-2.9824,-3.0193,-2.9966,-2.9843,-2.9938,-3.0631,-3.1043,-3.0583,-3.0704,-3.0732,-3.0556,-3.0342,-3.0147,-2.9952,-2.9729,-2.9441,-2.9042,-2.8996,-2.8801,-2.8402,-2.8364,-2.8449,-2.8055,-2.8265,-2.8171,-2.7972,-2.7953,-2.7953,-2.7953,-2.7953,-2.7953,-2.7972,-2.8199,-2.8293,-2.8275,-2.8076,-2.8227,-2.8549,-2.8397,-2.8549,-2.8946,-2.9172,-2.9399,-2.9645,-3.0023,-3.0146,-3.0174,-3.0146,-3.0297,-3.0439,-3.0269,-3.0467,-3.1336,-3.4288,-3.5733,-3.7483,-4.3335,-4.571,-4.755,-5.0473,-5.1775,-5.2478,-5.3146,-5.3289,-5.3479,-5.4178,-5.4321,-5.4369,-5.4401,-5.4401,-5.4321,-5.3972,-5.3924,-5.4172,-5.4667,-5.8741,-6.3037,-6.6035,-6.8251,-6.9531,-6.9552,-6.9552,-6.9738,-7.0193,-7.0235,-7.0421,-7.0856,-7.5159,-7.7858,-7.8318,-8.1608,-8.3386,-8.2985,-8.3311,-8.3261,-8.2834,-8.2734,-8.2683,-8.2658,-8.4353,-8.6308,-2.1792,-2.2321,-2.3096,-2.4022,-2.6177,-2.8397,-2.9673,-3.0439,-3.0817,-3.0448,-3.059,-3.0817,-3.0892,-3.0845,-3.0268,-2.869,-2.8584,-2.785,-2.6163,-2.5802,-2.5723,-2.5676,-2.5511,-2.5622,-2.5455,-2.5272,-2.5018,-2.4668,-2.4517,-2.4286,-2.3936,-2.519,-2.6077,-2.5851,-2.7173,-2.7802,-2.7774,-2.7604,-2.75,0.0,-2.75,-2.7604,-2.7774,-2.7972,-2.8076,-2.8076,-2.8029,-2.8048,-2.8152,-2.8275,-2.8473,-2.8719,-2.9097,-2.9465,-2.9824,-2.99,-3.0042,-3.0146,-2.9994,-3.007,-3.0269,-3.0391,-3.059,-3.1365,-3.4457,-3.5337,-3.6981,-4.3085,-4.5187,-4.6233,-4.944,-5.1035,-5.1659,-5.205,-5.2436,-5.3066,-5.3479,-5.3797,-5.4051,-5.4353,-5.4401,-5.4369,-5.4321,-5.4274,-5.5767,-5.955,-6.1275,-6.3682,-6.815,-6.9288,-6.9614,-6.9986,-7.0049,-7.0235,-7.069,-7.0732,-7.0752,-7.0877,-7.5159,-7.7767,-7.7835,-8.1753,-8.4491,-8.527,-8.4089,-8.3638,-8.3964,-8.3085,-8.2683,-8.2658,-8.4766,-8.6918,-2.1849,-2.2614,-2.3861,-2.5506,-2.7452,-2.9191,-3.0117,-2.9768,-2.9133,-2.9017,-3.0062,-3.1119,-3.1119,-3.0292,-2.9192,-2.8081,-2.6978,-2.5881,-2.479,-2.4358,-2.4224,-2.4142,-2.3933,-2.3945,-2.3712,-2.3538,-2.3297,-2.2966,-2.2614,-2.2435,-2.243,-2.3176,-2.3841,-2.3672,-2.457,-2.5433,-2.6089,-2.5973,-2.6408,-2.7377,-2.7377,-2.7424,-2.7547,-2.7755,-2.7897,-2.8001,-2.7802,-2.7821,-2.8001,-2.8019,-2.8322,-2.8794,-2.9021,-2.9342,-2.972,-2.972,-2.972,-2.972,-2.972,-2.9796,-2.9919,-3.0117,-3.0316,-3.08,-3.261,-3.2989,-3.4435,-4.0655,-4.2557,-4.3861,-4.8403,-5.0261,-5.0808,-5.151,-5.2184,-5.2971,-5.3479,-5.3749,-5.3972,-5.4321,-5.4401,-5.4401,-5.4401,-5.4401,-5.6162,-6.1583,-6.2315,-6.4275,-6.9416,-7.0173,-7.0235,-7.0483,-7.0504,-7.0607,-7.0856,-7.0877,-7.0877,-7.0877,-7.5336,-7.8157,-7.8386,-8.305,-8.542,-8.5169,-8.4592,-8.4165,-8.3914,-8.3336,-8.2934,-8.2873,-8.6177,-8.8395,-2.1896,-2.2964,-2.4693,-2.6857,-2.7933,-2.868,-2.946,-2.8189,-2.6796,-2.7094,-2.8549,-2.9956,-3.001,-2.8354,-2.7243,-2.6695,-2.5026,-2.3638,-2.337,-2.3207,-2.3036,-2.2872,-2.2594,-2.2302,-2.1982,-2.1818,-2.1612,-2.1313,-2.1277,-2.1185,-2.1021,-2.1509,-2.1436,-2.1283,-2.1764,-2.2419,-2.3945,-2.4185,-2.5129,-2.6795,-2.7081,-2.7348,-2.7377,-2.7556,-2.7726,-2.7878,-2.7528,-2.7575,-2.7878,-2.7755,-2.8123,-2.8794,-2.887,-2.9125,-2.9475,-2.9494,-2.9399,-2.9267,-2.9494,-2.9569,-2.9598,-2.9796,-2.9994,-3.0221,-3.042,-3.0647,-3.1894,-3.7971,-4.0148,-4.1739,-4.7622,-4.9485,-5.0245,-5.0746,-5.1815,-5.2743,-5.3638,-5.3829,-5.3972,-5.4321,-5.4401,-5.4401,-5.4401,-5.4401,-5.6211,-6.1836,-6.2627,-6.4673,-7.0112,-7.0877,-7.0877,-7.0877,-7.0877,-7.0877,-7.0877,-7.0877,-7.1124,-7.1617,-7.5908,-7.8967,-7.9855,-8.4475,-8.6274,-8.4918,-8.5244,-8.4993,-8.4064,-8.3864,-8.3537,-8.3326,-8.7979,-8.9925,-2.1858,-2.3379,-2.5411,-2.698,-2.7054,-2.6527,-2.7372,-2.603,-2.4562,-2.4607,-2.5,-2.5154,-2.5309,-2.5064,-2.4232,-2.231,-2.1638,-2.0737,-1.8834,-1.836,-1.8167,-1.8053,-1.7905,-1.7711,-1.7461,-1.733,-1.7199,-1.7051,-1.6932,-1.683,-1.6699,-1.8416,-1.933,-1.9177,-2.0872,-2.1767,-2.1841,-2.3499,-2.4384,-2.4484,-2.6317,-2.7207,-2.7377,-2.7405,-2.7424,-2.7452,-2.7405,-2.7405,-2.7481,-2.7623,-2.7878,-2.8171,-2.852,-2.8823,-2.904,-2.922,-2.9267,-2.9267,-2.9494,-2.9569,-2.9598,-2.9796,-2.9994,-3.0221,-3.042,-3.0647,-3.1894,-3.7971,-3.9641,-4.0957,-4.6812,-4.8936,-4.9455,-4.947,-5.0245,-5.1394,-5.3075,-5.3654,-5.3972,-5.4321,-5.4401,-5.4401,-5.4401,-5.4401,-5.6211,-6.1836,-6.2627,-6.4673,-7.0112,-7.0877,-7.0877,-7.0877,-7.0877,-7.0877,-7.0877,-7.0877,-7.1801,-7.3978,-7.7418,-8.0304,-8.2482,-8.581,-8.7379,-8.7178,-8.6776,-8.65,-8.6349,-8.5395,-8.4893,-8.4793,-8.8933,-9.074,-2.2812,-2.3106,-2.3408,-2.5236,-2.4671,-2.4039,-2.4771,-2.3419,-2.193,-2.2097,-2.1069,-2.1116,-2.3782,-2.3372,-2.2025,-2.1128,-1.9768,-1.8684,-1.7799,-1.7369,-1.719,-1.7005,-1.682,-1.6641,-1.6456,-1.6331,-1.6217,-1.6108,-1.6037,-1.5951,-1.5842,-1.6562,-1.6988,-1.6854,-1.781,-1.8705,-1.9761,-2.0469,-2.1911,-2.4079,-2.4999,-2.6117,-2.7377,-2.7254,-2.7273,-2.7377,-2.7377,-2.7452,-2.7575,-2.7651,-2.7953,-2.8369,-2.8549,-2.8747,-2.8946,-2.904,-2.8993,-2.8946,-2.9267,-2.9399,-2.9446,-2.9768,-2.9919,-3.0042,-3.025,-3.0467,-3.1985,-3.7763,-3.9544,-4.0982,-4.6826,-4.8417,-4.8692,-4.9196,-4.971,-5.0579,-5.1933,-5.2833,-5.3474,-5.4337,-5.4401,-5.4401,-5.4401,-5.4401,-5.6211,-6.1836,-6.2627,-6.4673,-7.0112,-7.0877,-7.0877,-7.0877,-7.0877,-7.0877,-7.0877,-7.0877,-7.2173,-7.5098,-7.7644,-8.0631,-8.3884,-8.6527,-8.8107,-8.8107,-8.7529,-8.7103,-8.6776,-8.6274,-8.5747,-8.5144,-8.9782,-9.1526,-2.3153,-2.2347,-2.1635,-2.3453,-2.252,-2.1297,-2.2157,-2.0546,-1.9086,0.0,-1.8043,-1.8008,-2.1374,-2.0795,-1.9836,-1.9743,-1.8441,-1.7369,-1.7288,-1.7174,-1.7005,-1.6766,-1.6587,-1.6418,-1.626,-1.6135,-1.6021,-1.5934,-1.5896,-1.5842,-1.5755,-1.5755,-1.57,-1.557,-1.557,-1.6226,-1.7476,-1.7912,-2.0096,-2.4062,-2.3927,-2.5227,-2.7301,-2.715,-2.715,-2.7301,-2.7348,-2.7481,-2.7623,-2.7679,-2.8001,-2.8473,-2.852,-2.8671,-2.887,-2.887,-2.8766,-2.8671,-2.904,-2.9191,-2.9295,-2.9616,-2.9796,-2.99,-3.0042,-3.0269,-3.1581,-3.6818,-3.8918,-4.0692,-4.5766,-4.7637,-4.8403,-4.8936,-4.9189,-4.9823,-5.102,-5.218,-5.3021,-5.3836,-5.3883,-5.4134,-5.4134,-5.4385,-5.6211,-6.1836,-6.2627,-6.4673,-7.0112,-7.0877,-7.0877,-7.0877,-7.0877,-7.0877,-7.0877,-7.1001,-7.263,-7.631,-7.8463,-8.1572,-8.5498,-8.7634,-8.8684,-8.8684,-8.8107,-8.7605,-8.7203,-8.7052,-8.6676,-8.5998,-9.0763,-9.2449,-2.2009,-2.1416,-2.09,-2.1858,-2.0311,-1.8536,-1.9385,0.0,-1.6673,-1.7032,-1.6739,-1.6657,-1.6932,-1.723,-1.7473,-1.7457,-1.7103,-1.7032,-1.7021,-1.6918,-1.675,-1.6516,-1.6483,-1.6375,-1.6135,-1.6005,-1.5934,-1.5923,-1.5825,-1.5755,-1.5755,-1.5755,-1.57,-1.557,-1.557,-1.5461,-1.5475,-1.6963,-1.9761,-2.3656,-2.3656,-2.4797,-2.7103,-2.7074,-2.7074,-2.7103,-2.7301,-2.7377,-2.7405,-2.7623,-2.7821,-2.8048,-2.8246,-2.8473,-2.8643,-2.8643,-2.8624,-2.8643,-2.887,-2.9097,-2.9248,-2.9267,-2.9541,-2.9872,-2.9872,-3.0174,-3.1067,-3.446,-3.7334,-4.0173,-4.3361,-4.6042,-4.8172,-4.8172,-4.8421,-4.9328,-5.1308,-5.2001,-5.223,-5.2513,-5.3049,-5.3317,-5.3317,-5.3867,-5.6211,-6.1836,-6.2627,-6.4673,-7.0112,-7.0877,-7.0877,-7.0877,-7.0877,-7.0877,-7.0877,-7.1249,-7.3688,-7.8714,-8.0086,-8.3062,-8.7973,-8.8986,-8.9212,-8.9212,-8.871,-8.8383,-8.8383,-8.7856,-8.778,-8.8512,-9.193,-9.3507,-1.9011,-1.812,-1.7271,-1.8128,-1.6821,-1.577,-1.6303,-1.5964,-1.5798,-1.6081,-1.6163,-1.6206,-1.6288,-1.6652,-1.6924,-1.6853,-1.6793,-1.675,-1.6668,-1.6554,-1.6413,-1.626,-1.6163,-1.6092,-1.6005,-1.588,-1.5809,-1.5809,-1.5782,-1.5755,-1.5755,-1.5684,-1.5586,-1.5461,-1.5391,-1.526,-1.5108,-1.5749,-1.7424,-2.0131,-2.1186,-2.2965,-2.52,-2.6248,-2.6753,-2.6876,-2.6952,-2.7056,-2.7207,-2.7405,-2.7623,-2.7849,-2.8199,-2.8369,-2.8445,-2.8568,-2.8624,-2.8643,-2.887,-2.8993,-2.9097,-2.9371,-2.955,-2.9702,-2.9824,-3.0165,-3.1038,-3.3983,-3.7209,-4.0173,-4.3085,-4.6028,-4.8172,-4.8172,-4.8567,-4.9035,-5.0037,-5.1148,-5.2001,-5.2214,-5.2529,-5.2781,-5.2781,-5.4353,-5.697,-6.0838,-6.2902,-6.5492,-6.9096,-6.9635,-6.9635,-6.9635,-6.9635,-6.9757,-7.0001,-7.0706,-7.347,-7.9075,-8.0257,-8.3275,-8.8754,-8.9187,-8.9287,-8.9287,-8.8383,-8.8283,-8.8961,-8.8032,-8.7705,-8.8109,-9.185,-9.3399,-1.7252,-1.6036,-1.5106,-1.5918,-1.4957,-1.3944,-1.4586,-1.4858,-1.5081,-1.5488,-1.5668,-1.5809,-1.6005,-1.6342,-1.6554,-1.6472,-1.6456,-1.6429,-1.6358,-1.6277,-1.6179,-1.6065,-1.5978,-1.5907,-1.588,-1.5798,-1.5755,-1.5755,-1.5755,0.0,-1.57,-1.5613,-1.5499,-1.5331,-1.5222,-1.5124,-1.5037,-1.5037,-1.6005,-1.7955,-1.9704,-2.165,-2.4051,-2.5642,-2.663,-2.6753,-2.6829,-2.6952,-2.7103,-2.7301,-2.75,-2.7745,-2.8152,-2.8322,-2.835,-2.8549,-2.8624,-2.8643,-2.8794,-2.8917,-2.9097,-2.9371,-2.955,-2.9702,-2.9824,-3.0165,-3.1029,-3.284,-3.6344,-3.9919,-4.2016,-4.5214,-4.8172,-4.8172,-4.8494,-4.8845,-4.8933,-5.0185,-5.1198,-5.1408,-5.1707,-5.2007,-5.2007,-5.4369,-5.7234,-6.006,-6.2939,-6.5804,-6.8616,-6.8866,-6.8866,-6.8866,-6.8866,-6.9047,-6.947,-7.0176,-7.2997,-7.9353,-8.0334,-8.3272,-8.8797,-8.9055,-8.9055,-8.9055,-8.7978,-8.7828,-8.9036,-8.8032,-8.768,-8.8084,-9.1659,-9.3866,0.0,0.0,0.0,-1.5415,-1.4335,-1.3363,-1.4532,0.0,-1.432,-1.5037,-1.5293,-1.5488,-1.5853,-1.6005,-1.6092,-1.6092,-1.6092,-1.6108,-1.6108,-1.6092,-1.6048,-1.5951,-1.5923,-1.5869,-1.5771,-1.5755,-1.5744,-1.5755,-1.5755,-1.57,-1.557,-1.557,-1.5461,-1.5222,-1.5092,-1.5037,-1.5037,-1.5037,-1.5959,-1.7801,-1.9661,-2.1611,-2.3639,-2.5715,-2.6753,-2.6753,-2.698,-2.7056,-2.7074,-2.7282,-2.7481,-2.7726,-2.8152,-2.8293,-2.835,-2.8549,-2.8624,-2.8624,-2.8624,-2.8898,-2.922,-2.9248,-2.9522,-2.9843,-2.9872,-3.0165,-3.0495,-3.0495,-3.5004,-3.9641,-3.9895,-4.3915,-4.8172,-4.8172,-4.8172,-4.8245,-4.8567,-4.9416,-5.006,-5.0104,-5.0644,-5.1199,-5.1199,-5.4087,-5.7497,-6.006,-6.2939,-6.5804,-6.8596,-6.8846,-6.8846,-6.8846,-6.8906,-6.9087,-6.949,-6.9952,-7.3061,-7.9399,-8.0119,-8.2877,-8.8096,-8.833,-8.833,-8.833,-8.7262,-8.7218,-8.8433,-8.7856,-8.7856,-8.8613,-9.1461,-9.5058,-1.3511,0.0,0.0,0.0,0.0,0.0,-1.3205,0.0,-1.3776,-1.432,-1.4673,-1.501,-1.5461,-1.5641,-1.5755,-1.5842,-1.5923,-1.5978,-1.5978,-1.5907,-1.5842,-1.5809,-1.5728,-1.57,-1.5755,-1.5603,-1.5559,0.0,-1.5673,-1.5613,-1.557,-1.5418,-1.5249,-1.5092,-1.5053,-1.5037,-1.5037,-1.5037,-1.526,-1.5726,-1.931,-2.1028,-2.1767,-2.5239,-2.6677,-2.6526,-2.6602,-2.663,-2.6649,-2.6999,-2.7103,-2.7074,-2.7651,-2.7953,-2.8123,-2.8322,-2.8501,-2.8624,-2.8624,-2.87,-2.8842,-2.9144,-2.9324,-2.9465,-2.9768,-3.0042,-3.0297,-3.0448,-3.4885,-4.0481,-4.4649,-4.7101,-4.8172,-4.8172,-4.8333,-4.8538,-4.8655,-4.905,-4.9445,-4.9694,-5.0021,-5.0094,-5.033,-5.4588,-5.8233,-5.9018,-6.3195,-6.6583,-6.736,-6.738,-6.738,-6.738,-6.7616,-6.8009,-6.8482,-7.114,-7.453,-7.8416,-8.1127,-8.4178,-8.7627,-8.7627,-8.7454,-8.706,-8.6345,-8.6609,-8.7498,-8.6726,-8.6726,-8.753,-9.1025,-9.5118,-1.2188,-1.2172,-1.2221,-1.2422,0.0,0.0,-1.2786,-1.2955,-1.3189,0.0,-1.4053,-1.4434,-1.4869,-1.5124,-1.532,-1.5434,-1.5559,-1.5684,-1.5836,-1.5755,-1.5684,-1.5684,-1.557,-1.5532,-1.5603,-1.5472,-1.5445,-1.5586,-1.5532,-1.5472,-1.5434,-1.5249,-1.5108,-1.5037,-1.4983,-1.4983,-1.5037,-1.4983,-1.4983,-1.5037,-1.9125,-2.084,-2.1081,-2.5014,-2.6677,-2.6574,-2.6574,-2.6574,-2.6602,-2.6933,-2.7008,-2.6952,-2.7575,-2.7897,-2.8029,-2.835,-2.852,-2.8624,-2.8624,-2.8671,-2.8823,-2.9144,-2.9295,-2.9446,-2.9768,-3.0023,-3.0476,-3.2004,-3.6486,-4.2363,-4.7058,-4.8172,-4.8172,-4.8172,-4.8318,-4.845,-4.845,-4.8611,-4.8889,-4.9489,-4.9606,-4.9738,-5.006,-5.4805,-5.8478,-5.8478,-6.3214,-6.6875,-6.6875,-6.6875,-6.6875,-6.6875,-6.7265,-6.7676,-6.8144,-7.1323,-7.4973,-7.8141,-8.1624,-8.4439,-8.692,-8.714,-8.6896,-8.6162,-8.593,-8.5951,-8.6496,-8.6149,-8.6671,-8.7968,-8.9331,-9.3249,-1.2178,-1.2183,-1.2292,-1.2721,-1.2526,0.0,-1.2873,-1.2765,-1.2672,0.0,-1.3461,-1.3814,-1.4178,-1.4521,-1.4771,-1.4896,-1.5037,-1.526,-1.5657,-1.5613,-1.5559,-1.5559,-1.5445,-1.5374,-1.5391,-1.5363,-1.5363,-1.5374,-1.5363,-1.5304,-1.5189,-1.5092,-1.5037,-1.5021,-1.4912,-1.4912,-1.501,-1.4912,-1.4912,-1.5026,-1.9138,-2.0862,-2.1096,-2.504,-2.6781,-2.6781,-2.6753,-2.6753,-2.6781,-2.698,-2.7074,-2.7131,-2.7698,-2.7953,-2.8019,-2.8397,-2.8568,-2.8596,-2.8643,-2.8766,-2.8946,-2.9191,-2.9399,-2.9569,-2.9796,-2.9994,-3.0956,-3.4353,-3.9433,-4.436,-4.7347,-4.8128,-4.8128,-4.8157,-4.8172,-4.8172,-4.8172,-4.8172,-4.845,-4.9372,-4.9562,-4.9665,-5.0511,-5.507,-5.8722,-5.9,-6.347,-6.6875,-6.6875,-6.6875,-6.6875,-6.6933,-6.7324,-6.7773,-6.8242,-7.1404,-7.4848,-7.8229,-8.1699,-8.4505,-8.6355,-8.6694,-8.6452,-8.5693,-8.5464,-8.5425,-8.5549,-8.5898,-8.6838,-8.8829,-8.788,-9.1748,-1.2227,-1.2243,-1.2341,-1.2433,-1.2531,0.0,-1.2509,-1.2585,-1.27,0.0,-1.302,-1.3319,-1.3678,-1.3879,-1.4031,-1.4151,-1.4347,-1.4727,-1.5374,-1.5445,-1.5434,-1.5434,-1.532,-1.5293,-1.5374,-1.5222,-1.5151,-1.5249,-1.5162,-1.5053,-1.4939,-1.4994,-1.4994,-1.4896,-1.4869,-1.4869,-1.4896,-1.4869,-1.4869,-1.4901,-1.9193,-2.1034,-2.1277,-2.5253,-2.7008,-2.7008,-2.6829,-2.6753,-2.6781,-2.698,-2.7074,-2.7103,-2.7377,-2.7604,-2.7802,-2.8029,-2.8227,-2.8426,-2.8766,-2.8794,-2.8775,-2.9324,-2.9418,-2.9371,-2.9749,-2.99,-3.1043,-3.6626,-4.0469,-4.3832,-4.7232,-4.7996,-4.7879,-4.8128,-4.8172,-4.8172,-4.8172,-4.8172,-4.8362,-4.9079,-4.9211,-5.0081,-5.2538,-5.6211,-5.9261,-6.1651,-6.4786,-6.6875,-6.6875,-6.6875,-6.6992,-6.7324,-6.7773,-6.8242,-6.8652,-7.3935,-7.7476,-7.8321,-8.2937,-8.5782,-8.6433,-8.6119,-8.5565,-8.4653,-8.3684,-8.2949,-8.2977,-8.4974,-8.6179,-8.6909,-9.3602,-9.7807,-1.2401,-1.2352,-1.2384,-1.2498,-1.2574,0.0,0.0,-1.2487,-1.2531,-1.2531,-1.2678,-1.2873,-1.3113,-1.3308,-1.3466,-1.358,-1.3754,-1.4021,-1.4434,-1.4754,-1.4923,-1.4869,-1.4852,-1.4852,-1.4852,-1.4852,-1.4885,-1.4939,-1.4896,-1.4825,-1.4771,-1.4825,-1.4825,-1.4771,-1.4716,-1.47,-1.476,-1.4716,-1.4716,-1.4771,-1.9015,-2.1119,-2.1202,-2.5156,-2.698,-2.7074,-2.6857,-2.681,-2.6933,-2.7027,-2.7131,-2.7254,-2.7452,-2.7604,-2.7745,-2.8048,-2.8227,-2.8369,-2.8671,-2.8719,-2.87,-2.9248,-2.9342,-2.9324,-2.9749,-3.1988,-3.4954,-3.7789,-4.1843,-4.5445,-4.7359,-4.7718,-4.7748,-4.7923,-4.804,-4.8172,-4.8172,-4.8172,-4.8245,-4.8567,-4.8918,-5.0067,-5.3427,-5.6557,-5.9522,-6.2167,-6.5041,-6.6875,-6.6875,-6.6875,-6.7031,-6.7441,-6.791,-6.8836,-7.054,-7.5166,-7.8353,-7.9875,-8.3893,-8.6216,-8.5928,-8.5952,-8.5758,-8.5053,-8.3162,-8.2357,-8.2232,-8.4776,-8.5899,-8.6333,-9.5211,-9.9418,-1.2656,-1.258,-1.2591,-1.271,-1.2759,-1.2748,0.0,0.0,0.0,-1.2406,-1.2449,-1.2531,-1.2618,0.0,0.0,-1.308,0.0,0.0,0.0,-1.3885,0.0,-1.4178,-1.4265,-1.4309,-1.4222,-1.439,-1.4504,-1.4504,-1.4504,-1.4504,-1.4504,-1.4575,-1.4602,-1.4602,-1.4548,-1.4548,-1.4646,-1.4548,-1.4548,-1.4646,-1.8802,-2.0878,-2.1021,-2.4952,-2.6829,-2.7074,-2.6857,-2.6904,-2.7131,-2.7131,-2.7226,-2.7405,-2.7575,-2.7679,-2.7745,-2.8123,-2.8293,-2.8369,-2.8643,-2.87,-2.87,-2.9191,-2.9371,-2.9418,-2.9768,-3.358,-3.7858,-3.8434,-4.2187,-4.6282,-4.6951,-4.7382,-4.7557,-4.7674,-4.7923,-4.8084,-4.8157,-4.8172,-4.8172,-4.8245,-4.8728,-5.0332,-5.4268,-5.6803,-5.9557,-6.2939,-6.555,-6.6875,-6.6875,-6.6875,-6.7051,-6.7558,-6.7949,-6.937,-7.263,-7.5926,-7.8744,-8.1333,-8.4646,-8.6289,-8.576,-8.6264,-8.602,-8.4997,-8.3274,-8.2357,-8.2184,-8.3858,-8.4819,-8.5575,-9.4437,-9.8704,-1.2966,-1.3069,-1.3232,-1.2939,-1.3259,-1.3504,-1.2971,0.0,-1.2901,-1.258,0.0,-1.2379,-1.239,0.0,0.0,-1.258,-1.2629,-1.2716,-1.2939,-1.3026,-1.3221,-1.3635,-1.37,-1.3743,-1.3841,-1.3874,-1.389,-1.389,-1.389,-1.389,-1.389,-1.4195,-1.4363,-1.4363,-1.445,-1.4504,-1.4515,-1.4504,-1.4504,-1.4532,-1.8768,-2.0817,-2.0848,-2.4757,-2.6706,-2.7074,-2.6857,-2.698,-2.7348,-2.7348,-2.7348,-2.7377,-2.7405,-2.7528,-2.7726,-2.7953,-2.8152,-2.8397,-2.8974,-2.8917,-2.8747,-2.9541,-2.9796,-2.9824,-2.9843,-3.1948,-3.5102,-3.7858,-4.0634,-4.3406,-4.6537,-4.7031,-4.6987,-4.7587,-4.7748,-4.7835,-4.8128,-4.8172,-4.8245,-4.8538,-4.8889,-5.068,-5.6162,-5.779,-6.0302,-6.555,-6.6603,-6.6875,-6.6875,-6.6875,-6.7207,-6.8008,-6.8144,-6.9489,-7.3084,-7.6739,-7.9496,-8.1114,-8.5167,-8.7229,-8.6987,-8.6141,-8.4605,-8.275,-8.2321,-8.232,-8.2184,-8.0783,-8.0965,-8.3216,-9.1939,-9.5995,-1.3292,-1.3412,-1.3564,-1.327,-1.3493,-1.3667,-1.32,-1.308,-1.3009,-1.2786,0.0,0.0,0.0,0.0,0.0,0.0,-1.2477,-1.2466,0.0,0.0,-1.2623,-1.3031,-1.3211,0.0,-1.3558,-1.364,-1.3684,-1.3684,-1.3684,-1.3684,-1.3684,-1.3825,-1.3939,-1.401,-1.4053,-1.4124,-1.4184,-1.4249,-1.4292,-1.4292,-1.85,-2.0355,-2.0689,-2.4668,-2.6677,-2.7074,-2.698,-2.7103,-2.7377,-2.7377,-2.7377,-2.7377,-2.7377,-2.7424,-2.7547,-2.7878,-2.8048,-2.8199,-2.8719,-2.8842,-2.8898,-2.9494,-2.9768,-2.9872,-2.9872,-3.2945,-3.6558,-3.7924,-4.1335,-4.5007,-4.6369,-4.6826,-4.7031,-4.7148,-4.7426,-4.7748,-4.7879,-4.804,-4.8245,-4.8567,-4.8889,-5.0913,-5.6577,-5.7998,-6.0231,-6.5729,-6.6699,-6.6875,-6.6875,-6.6875,-6.7207,-6.8086,-6.8183,-6.9883,-7.3983,-7.5651,-7.8971,-8.4262,-8.5712,-8.6359,-8.6165,-8.5839,-8.4448,-8.2321,-8.2267,-8.2405,-8.2313,-8.0173,-8.3007,-9.0167,-9.3837,-9.5542,-1.376,-1.3868,-1.3988,-1.3613,-1.3727,-1.3819,-1.339,-1.3276,-1.3221,-1.3064,-1.2966,0.0,0.0,0.0,-1.2607,-1.2672,0.0,-1.2379,-1.2439,-1.2292,-1.227,-1.2526,-1.2776,0.0,0.0,-1.3265,-1.3346,-1.3314,-1.3341,-1.3385,-1.3455,-1.352,-1.3624,-1.3781,-1.3819,-1.3874,-1.3955,-1.408,-1.414,-1.414,-1.7636,-1.9709,-2.0508,-2.4084,-2.6136,-2.698,-2.698,-2.7103,-2.7301,-2.7301,-2.7301,-2.7301,-2.7301,-2.733,-2.7424,-2.7849,-2.8048,-2.8152,-2.8624,-2.8974,-2.9248,-2.9494,-2.9702,-2.9872,-2.9872,-3.3194,-3.7024,-3.7804,-4.1777,-4.5512,-4.6063,-4.6621,-4.6943,-4.6782,-4.7177,-4.7587,-4.7704,-4.7952,-4.8245,-4.8567,-4.9431,-5.1702,-5.6594,-5.7998,-6.0178,-6.5478,-6.6582,-6.6875,-6.6875,-6.6875,-6.7207,-6.8086,-6.7988,-6.9799,-7.436,-7.5176,-7.9068,-8.6937,-8.6185,-8.5319,-8.4769,-8.4682,-8.3892,-8.2362,-8.2186,-8.2393,-8.2264,-8.0242,-8.4843,-9.5657,-9.5545,-9.5576,-1.4445,-1.4548,-1.4657,-1.395,-1.4042,-1.4151,-1.3553,-1.3597,-1.3694,-1.3455,-1.3401,-1.3363,-1.3243,-1.2933,-1.2776,-1.3015,-1.2661,0.0,0.0,-1.239,-1.2178,-1.2188,-1.2406,-1.2509,0.0,-1.2596,-1.2689,-1.258,-1.2672,-1.2835,-1.3075,-1.3303,-1.3537,-1.3781,-1.3896,-1.395,-1.3955,-1.408,-1.414,-1.414,-1.6509,-1.852,-2.035,-2.2514,-2.4739,-2.6753,-2.6753,-2.6876,-2.7074,-2.7074,-2.7074,-2.7074,-2.7074,-2.7207,-2.7424,-2.7849,-2.8123,-2.8397,-2.9021,-2.9494,-2.9824,-2.9626,-2.9702,-2.9872,-2.9872,-3.1938,-3.4756,-3.7304,-4.0124,-4.2935,-4.549,-4.627,-4.6387,-4.6665,-4.6987,-4.7338,-4.7631,-4.7952,-4.8245,-4.8567,-5.1225,-5.4023,-5.6834,-5.7998,-6.0178,-6.5478,-6.6582,-6.6875,-6.6875,-6.6875,-6.7207,-6.8086,-6.7931,-6.9621,-7.4297,-7.6444,-8.0722,-8.8094,-8.6593,-8.4509,-8.2492,-8.2345,-8.2386,-8.2362,-8.2405,-8.2378,-8.2264,-8.0166,-8.4948,-9.5657,-9.5545,-9.5654,0.0,0.0,-1.5374,-1.4575,-1.4586,-1.4613,-1.3928,-1.3901,-1.395,-1.3711,-1.3722,-1.3716,-1.3515,-1.3189,-1.2971,-1.3058,-1.2797,-1.2591,0.0,-1.2422,-1.2292,-1.2292,-1.2439,-1.2547,-1.2585,-1.2732,-1.2808,-1.277,-1.2803,-1.2895,-1.3064,-1.3145,-1.3298,-1.3537,-1.358,-1.364,-1.3722,-1.3847,-1.3944,-1.4021,-1.6286,-1.8321,-2.0328,-2.2383,-2.4544,-2.6555,-2.6706,-2.68,-2.6876,-2.715,-2.7207,-2.7103,-2.7226,-2.7405,-2.7623,-2.7897,-2.8048,-2.8227,-2.8974,-2.9418,-2.9673,-2.9749,-2.9824,-2.9872,-2.9872,-3.3215,-3.7036,-3.7804,-4.151,-4.5231,-4.6063,-4.6592,-4.687,-4.6782,-4.7148,-4.7587,-4.7674,-4.7952,-4.8245,-4.8567,-5.124,-5.4299,-5.6834,-5.9532,-6.2278,-6.5768,-6.6582,-6.6875,-6.6875,-6.6875,-6.7109,-6.7695,-6.7849,-6.8995,-7.0959,-7.8365,-8.3966,-8.644,-8.469,-8.317,-8.2273,-8.2219,-8.2369,-8.2405,-8.2393,-8.1561,-8.0252,-7.9452,-8.4951,-9.5553,-9.5704,-9.5592,-1.5162,-1.5684,0.0,-1.5249,-1.5206,-1.4895,-1.422,-1.3964,-1.4007,-1.3958,-1.4135,-1.4124,-1.3808,-1.3143,-1.28,-1.3059,-1.215,-1.1466,0.0,-1.1594,-1.1729,-1.1387,-1.2073,-1.2564,-1.264,-1.2678,-1.2716,-1.2759,-1.2765,-1.2835,-1.2999,-1.3086,-1.3221,-1.3417,-1.3466,-1.3526,-1.3602,-1.3727,-1.3841,-1.3961,-1.5515,-1.7563,-2.0328,-2.1629,-2.3734,-2.6451,-2.6583,-2.6677,-2.6781,-2.7056,-2.7131,-2.7103,-2.7301,-2.75,-2.7726,-2.7925,-2.8199,-2.852,-2.9144,-2.9494,-2.9702,-2.9824,-2.9872,-2.9872,-2.9872,-3.3701,-3.812,-3.8777,-4.2605,-4.6665,-4.7031,-4.7074,-4.7031,-4.6943,-4.7309,-4.7718,-4.7718,-4.7952,-4.8245,-4.8567,-5.2009,-5.5353,-5.7279,-6.1182,-6.4635,-6.5999,-6.6582,-6.6875,-6.6875,-6.6875,-6.7031,-6.7422,-6.7625,-6.9416,-7.352,-8.0417,-8.4262,-8.44,-8.2978,-8.2314,-8.2219,-8.232,-8.2186,-8.2368,-8.1539,-8.0425,-7.9185,-7.9304,-8.3989,-9.3447,-9.3962,-9.4275]},{"header":{"parameterUnit":"m.s-1","parameterCategory":1,"la1":30.6,"la2":29.2853,"lo1":-89.7004,"lo2":-87.6739,"dx":0.0162,"dy":0.0183,"nx":112,"ny":82,"refTime":"2023-01-23T06:00:00:Z","depth":0,"parameterNumber":3,"parameterNumberName":"V-component_of_WINDS"},"data":[0.0,0.0,0.0,0.0,0.0,0.0,0.0,0.0,0.0,0.0,0.0,0.0,0.0,0.0,0.0,0.0,0.0,0.0,0.0,0.0,0.0,0.0,0.0,0.0,0.0,0.0,0.0,0.0,0.0,0.0,0.0,0.0,0.0,0.0,0.0,0.0,0.0,0.0,0.0,0.0,0.0,0.0,0.0,0.0,0.0,0.0,0.0,0.0,0.0,0.0,0.0,0.0,0.0,0.0,0.0,0.0,0.0,0.0,0.0,0.0,0.0,0.0,0.0,0.0,0.0,0.0,0.0,0.0,0.0,0.0,0.0,0.0,0.0,0.0,0.0,0.0,0.0,0.0,0.0,0.0,0.0,0.0,0.0,0.0,0.0,0.0,0.0,0.0,0.0,0.0,-7.8278,-8.0195,-8.3874,-8.6187,-8.6187,-8.6477,-8.5293,-8.1878,0.0,0.0,0.0,0.0,0.0,0.0,0.0,0.0,0.0,0.0,0.0,0.0,0.0,0.0,0.0,0.0,0.0,0.0,0.0,0.0,0.0,0.0,0.0,0.0,0.0,0.0,0.0,0.0,0.0,0.0,0.0,0.0,0.0,0.0,0.0,0.0,0.0,0.0,0.0,0.0,0.0,0.0,0.0,0.0,0.0,0.0,0.0,0.0,0.0,0.0,0.0,0.0,0.0,0.0,0.0,0.0,0.0,0.0,0.0,0.0,0.0,0.0,0.0,0.0,0.0,0.0,0.0,0.0,0.0,0.0,0.0,0.0,0.0,0.0,0.0,0.0,0.0,0.0,0.0,0.0,0.0,0.0,0.0,0.0,0.0,0.0,0.0,0.0,0.0,0.0,0.0,0.0,0.0,0.0,0.0,0.0,0.0,0.0,0.0,0.0,0.0,0.0,0.0,0.0,-7.8607,-8.2918,-8.552,-8.6826,-8.6826,-8.5926,-8.454,-8.2454,0.0,0.0,0.0,0.0,0.0,0.0,0.0,0.0,0.0,0.0,0.0,0.0,0.0,0.0,0.0,0.0,0.0,0.0,0.0,0.0,0.0,0.0,0.0,0.0,0.0,0.0,0.0,0.0,0.0,0.0,0.0,0.0,0.0,0.0,0.0,0.0,0.0,0.0,0.0,0.0,0.0,0.0,0.0,0.0,0.0,0.0,0.0,0.0,0.0,0.0,0.0,0.0,0.0,0.0,0.0,0.0,0.0,0.0,0.0,0.0,0.0,0.0,0.0,0.0,0.0,0.0,0.0,0.0,0.0,0.0,0.0,0.0,0.0,0.0,0.0,0.0,0.0,0.0,0.0,0.0,0.0,0.0,0.0,0.0,0.0,0.0,0.0,0.0,0.0,0.0,0.0,0.0,0.0,0.0,0.0,0.0,0.0,0.0,0.0,0.0,0.0,0.0,0.0,-7.8619,-8.1411,-8.4329,-8.6361,-8.7493,-8.7493,-8.6332,-8.4888,-8.3419,-8.1363,0.0,0.0,0.0,0.0,0.0,0.0,0.0,0.0,0.0,0.0,0.0,0.0,0.0,0.0,0.0,0.0,0.0,0.0,0.0,0.0,0.0,0.0,0.0,0.0,0.0,0.0,0.0,0.0,0.0,0.0,0.0,0.0,0.0,0.0,0.0,0.0,0.0,0.0,0.0,0.0,0.0,0.0,0.0,0.0,0.0,0.0,0.0,0.0,0.0,0.0,0.0,0.0,0.0,0.0,0.0,0.0,0.0,0.0,0.0,0.0,0.0,0.0,0.0,0.0,0.0,0.0,0.0,0.0,0.0,0.0,0.0,0.0,0.0,0.0,0.0,0.0,0.0,0.0,0.0,0.0,0.0,0.0,0.0,0.0,0.0,0.0,0.0,0.0,0.0,0.0,0.0,0.0,0.0,0.0,0.0,0.0,0.0,0.0,0.0,0.0,0.0,0.0,-8.1804,-8.3894,-8.5171,-8.6884,-8.7929,-8.7929,-8.6768,-8.549,-8.4184,-8.258,0.0,0.0,0.0,0.0,0.0,0.0,0.0,0.0,0.0,0.0,0.0,0.0,0.0,0.0,0.0,0.0,0.0,0.0,0.0,0.0,0.0,0.0,0.0,0.0,0.0,0.0,0.0,0.0,0.0,0.0,0.0,0.0,0.0,0.0,0.0,0.0,0.0,0.0,0.0,0.0,0.0,0.0,0.0,0.0,0.0,0.0,0.0,0.0,0.0,0.0,0.0,0.0,0.0,0.0,0.0,0.0,0.0,0.0,0.0,0.0,0.0,0.0,0.0,0.0,0.0,0.0,0.0,0.0,0.0,0.0,0.0,0.0,0.0,0.0,0.0,0.0,0.0,0.0,0.0,0.0,0.0,0.0,0.0,0.0,0.0,0.0,0.0,0.0,0.0,0.0,0.0,0.0,0.0,0.0,0.0,0.0,0.0,0.0,0.0,0.0,0.0,0.0,-8.2442,-8.4533,-8.5839,-8.7145,-8.7929,-8.7929,-8.6768,-8.549,-8.4184,-8.2907,0.0,0.0,0.0,0.0,0.0,0.0,0.0,0.0,0.0,0.0,0.0,0.0,0.0,0.0,0.0,0.0,0.0,0.0,0.0,0.0,0.0,0.0,0.0,0.0,0.0,0.0,0.0,0.0,0.0,0.0,0.0,0.0,0.0,0.0,0.0,0.0,0.0,0.0,0.0,0.0,0.0,0.0,0.0,0.0,0.0,0.0,0.0,0.0,0.0,0.0,0.0,0.0,0.0,0.0,0.0,0.0,0.0,0.0,0.0,0.0,0.0,0.0,0.0,0.0,0.0,0.0,0.0,0.0,0.0,0.0,0.0,0.0,0.0,0.0,0.0,0.0,0.0,0.0,0.0,0.0,0.0,0.0,0.0,0.0,0.0,0.0,0.0,0.0,0.0,0.0,0.0,0.0,0.0,0.0,0.0,0.0,0.0,0.0,0.0,0.0,0.0,0.0,-8.4279,-8.6291,-8.8008,-8.8031,-8.7929,-8.7929,-8.6768,-8.549,-8.4184,0.0,0.0,0.0,0.0,0.0,0.0,0.0,0.0,0.0,0.0,0.0,0.0,0.0,0.0,0.0,0.0,0.0,0.0,0.0,0.0,0.0,0.0,0.0,0.0,0.0,0.0,0.0,0.0,0.0,0.0,0.0,0.0,0.0,0.0,0.0,0.0,0.0,0.0,0.0,0.0,0.0,0.0,0.0,0.0,0.0,0.0,0.0,0.0,0.0,0.0,0.0,0.0,0.0,0.0,0.0,0.0,0.0,0.0,0.0,0.0,0.0,0.0,0.0,0.0,0.0,0.0,0.0,0.0,0.0,0.0,0.0,0.0,0.0,0.0,0.0,0.0,0.0,0.0,0.0,0.0,0.0,0.0,0.0,0.0,0.0,0.0,0.0,0.0,0.0,0.0,0.0,0.0,0.0,0.0,0.0,0.0,0.0,0.0,0.0,0.0,0.0,0.0,-8.3849,-8.5899,-8.8141,-9.0376,-8.9418,-8.8729,-8.8729,-8.7079,-8.549,-8.4184,0.0,0.0,0.0,0.0,0.0,0.0,0.0,0.0,0.0,0.0,0.0,0.0,0.0,0.0,0.0,0.0,0.0,0.0,0.0,0.0,0.0,0.0,0.0,0.0,0.0,0.0,0.0,0.0,0.0,0.0,0.0,0.0,0.0,0.0,0.0,0.0,0.0,0.0,0.0,0.0,0.0,0.0,0.0,0.0,0.0,0.0,0.0,0.0,0.0,0.0,0.0,0.0,0.0,0.0,0.0,0.0,0.0,0.0,0.0,0.0,0.0,0.0,0.0,0.0,0.0,0.0,0.0,0.0,0.0,0.0,0.0,0.0,0.0,0.0,0.0,0.0,0.0,0.0,0.0,0.0,0.0,0.0,0.0,0.0,0.0,0.0,0.0,0.0,0.0,0.0,0.0,0.0,0.0,0.0,0.0,0.0,0.0,0.0,0.0,0.0,0.0,0.0,-8.4479,-8.7249,-9.0005,-9.2714,-9.1607,-9.0489,-9.0489,-8.7695,-8.549,0.0,0.0,0.0,0.0,0.0,0.0,0.0,0.0,0.0,0.0,0.0,0.0,0.0,0.0,0.0,0.0,0.0,0.0,0.0,0.0,0.0,0.0,0.0,0.0,0.0,0.0,0.0,0.0,0.0,0.0,0.0,0.0,0.0,0.0,0.0,0.0,0.0,0.0,0.0,0.0,0.0,0.0,0.0,0.0,0.0,0.0,0.0,0.0,0.0,0.0,0.0,0.0,0.0,0.0,0.0,0.0,0.0,0.0,0.0,0.0,0.0,0.0,0.0,0.0,0.0,0.0,0.0,0.0,0.0,0.0,0.0,0.0,0.0,0.0,0.0,0.0,0.0,0.0,0.0,0.0,0.0,0.0,0.0,0.0,0.0,0.0,0.0,0.0,0.0,0.0,0.0,0.0,0.0,0.0,0.0,0.0,0.0,0.0,0.0,0.0,0.0,0.0,0.0,-8.8453,-8.9922,-9.1698,-9.4488,-9.3338,-9.2224,-9.2224,-8.9588,-8.7328,-8.5991,0.0,0.0,0.0,0.0,0.0,0.0,0.0,0.0,0.0,0.0,0.0,0.0,0.0,0.0,0.0,0.0,0.0,0.0,0.0,0.0,0.0,0.0,0.0,0.0,0.0,0.0,0.0,0.0,0.0,0.0,0.0,0.0,0.0,0.0,0.0,0.0,0.0,0.0,0.0,0.0,0.0,0.0,0.0,0.0,0.0,0.0,0.0,0.0,0.0,0.0,0.0,0.0,0.0,0.0,0.0,0.0,0.0,0.0,0.0,0.0,0.0,0.0,0.0,0.0,0.0,0.0,0.0,0.0,0.0,0.0,0.0,0.0,0.0,0.0,0.0,0.0,0.0,0.0,0.0,0.0,0.0,0.0,0.0,0.0,0.0,0.0,0.0,0.0,0.0,0.0,0.0,0.0,0.0,0.0,0.0,0.0,0.0,0.0,0.0,0.0,0.0,0.0,-9.0129,-9.1588,-9.3371,-9.6242,-9.5077,-9.3872,-9.3592,-9.1166,-8.9032,-8.7668,0.0,0.0,0.0,0.0,0.0,0.0,0.0,0.0,0.0,0.0,0.0,0.0,0.0,0.0,0.0,0.0,0.0,0.0,0.0,0.0,0.0,0.0,0.0,0.0,0.0,0.0,0.0,0.0,0.0,0.0,0.0,0.0,0.0,0.0,0.0,0.0,0.0,0.0,0.0,0.0,0.0,0.0,0.0,0.0,0.0,0.0,0.0,0.0,0.0,0.0,0.0,0.0,0.0,0.0,0.0,0.0,0.0,0.0,0.0,0.0,0.0,0.0,0.0,0.0,0.0,0.0,0.0,0.0,0.0,0.0,0.0,0.0,0.0,0.0,0.0,0.0,0.0,0.0,0.0,0.0,0.0,0.0,0.0,0.0,0.0,0.0,0.0,0.0,0.0,0.0,0.0,0.0,0.0,0.0,0.0,0.0,0.0,0.0,0.0,0.0,0.0,0.0,-9.0651,-9.2531,-9.4918,-9.78,-9.6678,-9.5613,-9.483,-9.2685,-9.0744,-8.9447,0.0,0.0,0.0,0.0,0.0,0.0,0.0,0.0,0.0,0.0,0.0,0.0,0.0,0.0,0.0,0.0,0.0,0.0,0.0,0.0,0.0,0.0,0.0,0.0,0.0,0.0,0.0,0.0,0.0,0.0,0.0,0.0,0.0,0.0,0.0,0.0,0.0,0.0,0.0,0.0,0.0,0.0,0.0,0.0,0.0,0.0,0.0,0.0,0.0,0.0,0.0,0.0,0.0,0.0,0.0,0.0,0.0,0.0,0.0,0.0,-8.3389,-8.3056,0.0,0.0,0.0,0.0,0.0,0.0,0.0,0.0,0.0,0.0,0.0,0.0,0.0,0.0,0.0,0.0,0.0,0.0,0.0,0.0,0.0,0.0,0.0,0.0,0.0,0.0,0.0,0.0,0.0,0.0,0.0,0.0,0.0,0.0,0.0,0.0,0.0,0.0,0.0,0.0,-9.265,-9.3582,-9.4918,-9.78,-9.7802,-9.756,-9.7431,-9.4652,-9.2624,-9.1838,-8.9071,0.0,0.0,0.0,0.0,0.0,0.0,0.0,0.0,0.0,0.0,0.0,0.0,0.0,0.0,0.0,0.0,0.0,0.0,0.0,0.0,0.0,0.0,0.0,0.0,0.0,0.0,0.0,0.0,0.0,0.0,0.0,0.0,0.0,0.0,0.0,0.0,0.0,0.0,0.0,0.0,0.0,0.0,0.0,0.0,0.0,0.0,0.0,0.0,0.0,0.0,0.0,0.0,0.0,0.0,0.0,0.0,0.0,0.0,0.0,-8.6158,-8.5216,0.0,0.0,0.0,0.0,0.0,0.0,0.0,0.0,0.0,0.0,0.0,0.0,0.0,0.0,0.0,0.0,0.0,0.0,0.0,0.0,0.0,0.0,0.0,0.0,0.0,0.0,0.0,0.0,0.0,0.0,0.0,0.0,0.0,0.0,0.0,0.0,0.0,0.0,0.0,0.0,-9.3566,-9.3955,-9.5058,-9.834,-9.856,-9.848,-9.8412,-9.677,-9.529,-9.4266,-9.1638,0.0,0.0,0.0,0.0,0.0,0.0,0.0,0.0,0.0,0.0,0.0,0.0,0.0,0.0,0.0,0.0,0.0,0.0,0.0,0.0,0.0,0.0,0.0,0.0,0.0,0.0,0.0,0.0,0.0,0.0,0.0,0.0,0.0,0.0,0.0,0.0,0.0,0.0,0.0,0.0,0.0,0.0,0.0,0.0,0.0,0.0,0.0,0.0,0.0,0.0,0.0,0.0,0.0,-8.9143,-9.0153,-9.121,-9.181,-9.313,-9.4858,-9.1081,-8.9178,-8.8838,-8.847,0.0,0.0,0.0,0.0,0.0,0.0,0.0,0.0,0.0,0.0,0.0,0.0,0.0,0.0,0.0,0.0,0.0,0.0,0.0,0.0,0.0,0.0,0.0,0.0,-9.3729,-9.3992,-9.3631,0.0,0.0,0.0,0.0,0.0,0.0,0.0,0.0,0.0,0.0,0.0,-9.4143,-9.4457,-9.5628,-9.91,-9.948,-9.9419,-9.9232,-9.8639,-9.7879,-9.6582,-9.433,-9.1942,0.0,0.0,0.0,0.0,0.0,0.0,0.0,0.0,0.0,0.0,0.0,0.0,0.0,0.0,0.0,0.0,0.0,0.0,0.0,0.0,0.0,0.0,0.0,0.0,0.0,0.0,0.0,0.0,0.0,0.0,0.0,0.0,-8.3631,-8.4738,0.0,0.0,0.0,0.0,0.0,0.0,0.0,0.0,0.0,0.0,0.0,0.0,0.0,-8.8569,-9.0888,-9.1093,-9.233,-9.4419,-9.5652,-9.7338,-9.9403,-9.951,-10.0535,-10.1961,-10.0748,0.0,-9.2519,-9.3191,0.0,0.0,0.0,0.0,0.0,0.0,0.0,0.0,0.0,0.0,0.0,0.0,0.0,0.0,0.0,0.0,0.0,0.0,0.0,0.0,0.0,0.0,-9.5473,-9.5573,-9.6532,-9.7426,-9.6664,-9.4519,-9.2942,-9.3466,-9.2548,-9.1534,0.0,0.0,0.0,0.0,0.0,0.0,-9.4478,-9.5852,-9.752,-9.992,-10.0628,-10.1054,-10.0923,-10.008,-9.9108,-9.8437,-9.657,-9.481,-9.3331,-9.0127,0.0,0.0,0.0,0.0,0.0,0.0,0.0,0.0,0.0,0.0,0.0,0.0,0.0,0.0,0.0,0.0,0.0,0.0,0.0,0.0,0.0,0.0,0.0,0.0,0.0,0.0,0.0,0.0,0.0,-8.5123,-8.567,-8.4882,-8.5224,-8.5194,0.0,0.0,0.0,0.0,0.0,0.0,0.0,0.0,0.0,-9.2717,-9.2684,-9.3794,-9.6171,-9.6399,-9.7206,-9.8629,-10.0107,-10.181,-10.3701,-10.4094,-10.52,-10.6699,-10.6806,-10.4813,-10.1333,-9.8335,-9.6232,-9.4905,0.0,0.0,0.0,0.0,-9.6371,-9.7533,-9.9043,-9.978,-9.9989,-9.9966,0.0,0.0,0.0,0.0,0.0,0.0,0.0,0.0,0.0,0.0,-9.7508,-9.7227,-9.832,-9.9281,-9.8983,-9.7556,-9.5837,-9.396,-9.2974,-9.2416,-9.1632,-9.1501,0.0,0.0,0.0,-9.3529,-9.6095,-9.7174,-9.865,-10.1273,-10.1811,-10.2128,-10.2271,-10.1689,-10.0746,-9.9603,-9.8416,-9.6841,-9.4505,-9.1941,-8.9725,0.0,0.0,0.0,0.0,0.0,0.0,0.0,0.0,0.0,0.0,0.0,0.0,0.0,0.0,0.0,0.0,0.0,0.0,0.0,0.0,0.0,0.0,0.0,0.0,0.0,0.0,0.0,0.0,-8.6787,-8.7679,-8.5716,-8.7572,-8.8464,0.0,0.0,0.0,0.0,0.0,0.0,-9.124,-9.1686,-9.3604,-9.7412,-9.7729,-9.8884,-10.1096,-10.1703,-10.2488,-10.3416,-10.4986,-10.6485,-10.7912,-10.8626,-10.9697,-11.0803,-11.1409,-11.0803,-10.9197,-10.3686,-10.0747,-9.9754,-9.8183,-9.794,-9.8575,-9.9564,-10.0623,-10.1893,-10.348,-10.4363,-10.4507,-10.4012,-10.2736,-10.075,-9.8618,0.0,0.0,0.0,0.0,-9.8249,-9.7997,-9.895,-9.9888,-9.9253,-9.9944,-10.0805,-10.0606,-10.001,-9.8618,-9.5243,-9.4221,-9.3596,-9.2613,-9.2515,0.0,-9.3106,-9.3795,-9.5175,-9.7718,-9.873,-10.0251,-10.2421,-10.3063,-10.3204,-10.3426,-10.2941,-10.2062,-10.0783,-9.969,-9.8253,-9.6091,-9.4049,-9.1931,-8.9452,0.0,0.0,0.0,0.0,0.0,0.0,0.0,0.0,0.0,0.0,0.0,0.0,0.0,0.0,0.0,0.0,0.0,0.0,0.0,0.0,0.0,0.0,0.0,0.0,0.0,0.0,0.0,0.0,0.0,-8.8036,-8.9998,0.0,0.0,0.0,0.0,-9.1319,-9.2782,-9.4316,-9.5922,-9.6743,-9.7956,-9.974,-10.1132,-10.2702,-10.4308,-10.6592,-10.8412,-10.9911,-11.1588,-11.2765,-11.3586,-11.43,-11.4728,-11.4835,-11.4835,-11.4407,-11.3372,-10.9304,-10.6735,-10.524,-10.5169,-10.5169,-10.5383,-10.6952,-10.7558,-10.7665,-10.7841,-10.884,-10.9946,-10.9982,-10.7627,-10.4314,-10.1184,-9.9513,0.0,0.0,-10.0689,-10.1646,-10.1087,-10.2062,-10.2951,-10.1647,-10.1832,-10.2229,-10.1501,-10.0805,-9.9811,-9.8254,-9.683,-9.554,-9.4387,0.0,-9.2707,-9.4124,-9.4947,-9.6333,-9.895,-10.1037,-10.266,-10.3488,-10.4217,-10.4648,-10.4614,-10.3525,-10.2689,-10.1997,-10.0267,-9.9306,-9.9552,-9.6712,-9.4615,-9.3637,-9.0097,0.0,0.0,0.0,0.0,0.0,0.0,0.0,0.0,0.0,0.0,0.0,0.0,0.0,0.0,0.0,0.0,0.0,0.0,0.0,0.0,0.0,0.0,0.0,0.0,0.0,0.0,0.0,0.0,-9.0462,-9.3353,0.0,-9.4316,-9.4245,-9.4566,-9.5351,-9.6886,-9.8706,-10.0775,-10.261,-10.4512,-10.6592,-10.8179,-10.9489,-11.0604,-11.1517,-11.2412,-11.3517,-11.3949,-11.4693,-11.5478,-11.5799,-11.6191,-11.662,-11.662,-11.6512,-11.6084,-11.4193,-11.1517,-10.8626,-10.7591,-10.7199,-10.7377,-10.8483,-10.9197,-10.9697,-11.0803,-11.1481,-11.1802,-11.0731,-10.8948,-10.6814,-10.5713,-10.5075,-10.4858,-10.5634,-10.6234,-10.6612,-10.6085,-10.7047,-10.7526,-10.4805,-10.5111,-10.5408,-10.3337,-10.2594,-10.1997,-10.0507,-9.8718,-9.7327,-9.6929,-9.6433,-9.6433,-9.7425,-9.8186,-9.9278,-10.1136,-10.2428,-10.3488,-10.4184,-10.4515,-10.4482,-10.3985,-10.3578,-10.295,-10.1759,-10.0562,-9.9835,-9.9542,-9.6906,-9.4778,-9.2921,-9.0585,-8.785,0.0,0.0,0.0,0.0,0.0,0.0,0.0,0.0,0.0,0.0,0.0,0.0,0.0,0.0,0.0,0.0,0.0,0.0,0.0,0.0,0.0,0.0,0.0,0.0,0.0,-9.1176,-9.3995,-9.3995,-9.7492,-9.9598,-9.8777,-9.9169,-9.9908,-10.0948,-10.2621,-10.4512,-10.6891,-10.8558,-11.015,-11.2038,-11.3306,-11.4332,-11.484,-11.5308,-11.5885,-11.6369,-11.6642,-11.6932,-11.7104,-11.7391,-11.7565,-11.7512,-11.7797,-11.7797,-11.7476,-11.6905,-11.5192,-11.2694,-11.1409,-11.0696,-11.0589,-11.1695,-11.2195,-11.2623,-11.3907,-11.4014,-11.3408,-11.2016,-11.0589,-10.9197,-10.8662,-10.8483,-10.8662,-10.9482,-11.0089,-11.0408,-10.9782,-11.0558,-11.0923,-10.8152,-10.7879,-10.7745,-10.5467,-10.4741,-10.3985,-10.2792,-10.0772,-9.9182,-9.895,-9.8685,-9.8784,-9.9513,-10.0209,-10.1136,-10.2329,-10.3389,-10.4184,-10.4614,-10.4482,-10.4084,-10.3588,-10.3091,-10.2196,-10.0805,-10.001,-9.9182,-9.8221,-9.6205,-9.4311,-9.2689,-9.0898,-8.8413,-8.5243,0.0,0.0,0.0,0.0,0.0,0.0,0.0,0.0,0.0,0.0,0.0,0.0,0.0,0.0,0.0,0.0,0.0,0.0,0.0,0.0,0.0,0.0,0.0,-9.0569,-9.3959,-9.7064,-9.8706,-10.2381,-10.4487,-10.3701,-10.4986,-10.6471,-10.8123,-10.9737,-11.1758,-11.3962,-11.4167,-11.4663,-11.5371,-11.6174,-11.6612,-11.6503,-11.7937,-11.8776,-11.8839,-11.9469,-11.95,-11.8769,-11.9599,-11.9054,-11.7547,-11.8368,-11.819,-11.7512,-11.7512,-11.7512,-11.7405,-11.662,-11.5906,-11.5406,-11.6905,-11.7012,-11.6405,-11.719,-11.6512,-11.5014,-11.43,-11.298,-11.1409,-10.9875,-10.9482,-10.959,-11.041,-11.1695,-11.283,-11.2142,-11.2714,-11.288,-11.1569,-11.0143,-10.8897,-10.8152,-10.6811,-10.5575,-10.4813,-10.2991,-10.1302,-10.0507,-9.9811,-9.9612,-10.0308,-10.1004,0.0,-10.2527,-10.3819,-10.4681,-10.4681,-10.4084,-10.3588,-10.3588,-10.2196,-10.0805,-9.938,-9.8519,-9.7492,-9.6101,-9.4674,-9.3712,-9.3353,-9.0911,-8.8829,-8.709,0.0,0.0,0.0,0.0,0.0,0.0,0.0,0.0,0.0,0.0,0.0,0.0,0.0,0.0,0.0,0.0,0.0,0.0,0.0,0.0,0.0,-9.2211,-9.3495,-9.2318,-9.6529,-10.0704,-10.3487,-10.6306,-10.8376,-10.9304,-10.9697,-11.0196,-11.0586,-11.2686,-11.4752,-11.6513,-11.8268,-11.9312,-11.9532,-12.0279,-12.042,-11.9795,-11.9584,-11.9876,-12.042,-12.0095,-12.0097,-12.0439,-12.0138,-11.9707,-11.9236,-11.8925,-11.819,-11.7512,-11.7512,-11.7512,-11.7476,-11.7298,-11.7012,-11.6905,-11.7298,-11.7405,-11.719,-11.7405,-11.6798,-11.5906,-11.5692,-11.5014,-11.4122,-11.3622,-11.3515,-11.3693,-11.4514,-11.5014,-11.5365,-11.5957,-11.6126,-11.5778,-11.3948,-11.2331,-11.0721,-10.8355,-10.6811,-10.5575,-10.4813,-10.4184,-10.3389,-10.213,-10.1732,-10.1699,-10.1898,-10.2494,-10.3289,-10.3985,-10.4416,-10.4681,-10.4681,-10.4482,-10.3985,-10.2925,-10.1931,-10.0805,-9.938,-9.7592,-9.6664,-9.6797,-9.5343,-9.4002,-9.2626,-8.9408,-8.7758,0.0,0.0,0.0,0.0,0.0,0.0,0.0,0.0,0.0,0.0,0.0,0.0,0.0,0.0,0.0,0.0,0.0,0.0,0.0,0.0,0.0,0.0,-9.6279,-9.9169,-9.9205,-10.1703,-10.4629,-10.7805,-11.0551,-11.2553,-11.3486,-11.4845,-11.5485,-11.5072,-11.732,-11.8995,-11.9474,-12.1549,-12.2492,-12.2058,-12.2935,-12.2898,-12.2085,-12.1549,-12.1549,-12.2085,-12.1549,-12.1742,-12.2086,-12.1584,-12.0854,0.0,-11.9375,-11.8567,-11.7512,-11.7512,-11.7512,0.0,0.0,0.0,0.0,0.0,-11.7512,-11.7512,-11.7512,-11.7012,-11.6298,-11.6298,-11.5799,-11.5121,-11.5121,-11.5121,-11.5299,-11.612,-11.6298,-11.6512,-11.7298,-11.7512,-11.7255,-11.5837,-11.4333,-11.2459,-11.0481,-10.8321,-10.647,-10.5734,-10.5073,0.0,-10.3588,-10.3422,-10.3322,-10.3024,-10.3588,-10.4084,-10.4184,-10.4482,-10.4681,-10.4681,-10.4383,-10.3786,-10.2627,-10.1832,0.0,0.0,0.0,-9.6532,-9.5767,-9.4795,0.0,0.0,0.0,-8.8755,-8.9143,-8.8813,0.0,0.0,-8.666,-8.5856,0.0,0.0,0.0,0.0,0.0,0.0,0.0,0.0,0.0,0.0,0.0,0.0,0.0,0.0,0.0,0.0,-10.1042,-10.6333,-10.8836,-10.8764,-10.9549,-11.2161,-11.4989,-11.6885,-11.703,-11.9573,-12.1035,-12.0183,-12.2322,-12.3267,-12.257,0.0,0.0,0.0,0.0,-12.4492,-12.3674,-12.36,-12.36,-12.3488,-12.3488,-12.3467,-12.3653,-12.339,-12.2133,-11.9959,-11.9851,-11.8944,-11.7512,-11.7512,-11.7512,-11.7512,-11.7512,-11.7512,-11.7512,-11.7512,-11.7512,-11.7512,-11.7512,0.0,0.0,-11.6298,-11.5906,-11.5406,-11.5299,-11.5299,-11.5513,-11.6227,-11.6405,-11.662,-11.7298,-11.7512,-11.7512,-11.7512,-11.5802,-11.3999,-11.3262,-11.0403,-10.7745,-10.6866,-10.5739,-10.5065,-10.4681,-10.4681,-10.4482,-10.3886,-10.4283,-10.4482,-10.3886,-10.4316,-10.4681,-10.4681,0.0,0.0,-10.2594,-10.1732,-10.0209,-9.7525,-9.7857,-9.6957,-9.4294,-9.3595,-9.267,-9.1361,-9.0809,-9.0489,-9.0429,-9.0489,-9.0489,-9.0399,-8.8558,-8.8049,0.0,0.0,0.0,0.0,0.0,0.0,0.0,0.0,0.0,0.0,0.0,0.0,0.0,0.0,0.0,-10.2608,-10.7278,-11.163,-11.5167,-11.7274,-11.8205,-11.7399,-11.8465,-11.9777,-12.1052,-12.1839,-12.2087,-12.1923,-12.3028,-12.3817,-12.4243,-12.5225,-12.568,-12.5495,-12.568,-12.5383,-12.4566,-12.4492,-12.4194,-12.3488,0.0,0.0,-12.3535,-12.2825,-12.1916,-12.0833,-12.021,-11.8944,-11.7512,-11.7512,-11.7512,-11.7512,-11.7512,-11.7512,-11.7512,-11.7512,-11.7512,-11.7512,-11.7512,-11.7405,-11.719,-11.6512,-11.662,-11.6905,-11.6298,-11.6512,0.0,-11.719,-11.7298,-11.7298,-11.7476,-11.7512,-11.7512,-11.7512,-11.5802,-11.3999,-11.3262,-11.1196,-10.8871,-10.7134,-10.6967,-10.6687,-10.5065,-10.4681,-10.4879,-10.531,-10.4979,-10.4879,-10.531,-10.4979,-10.4681,-10.4681,-10.3985,-10.3289,-10.2594,-10.1302,-10.001,-9.8917,-9.842,-9.7657,-9.6498,-9.4457,-9.3268,-9.297,-9.0966,-8.9591,-8.9052,-8.9591,-8.9591,-8.9082,-8.9726,-8.9978,0.0,0.0,0.0,0.0,0.0,0.0,0.0,0.0,0.0,0.0,0.0,-9.3015,-9.5791,0.0,-10.406,-10.8014,-11.2964,-11.7364,-12.0196,-12.2042,-12.2243,-12.0227,-12.1421,-12.2649,-12.2954,-12.4081,-12.4458,-12.3648,-12.469,-12.5172,-12.4765,-12.5909,-12.6386,-12.5978,-12.6386,-12.62,-12.5383,-12.5383,-12.5197,-12.4677,-12.4306,-12.4603,-12.5309,-12.4097,-12.3137,-12.2331,-12.1052,-11.9669,-11.8115,-11.7739,-11.7512,-11.7512,-11.7512,-11.7512,-11.7512,-11.7512,-11.7512,-11.7512,-11.7512,-11.719,-11.6905,-11.6905,-11.6905,-11.6905,-11.6905,-11.719,-11.7512,-11.7512,-11.7512,-11.7512,-11.7512,-11.7512,-11.7512,-11.7512,-11.602,-11.4527,-11.4209,-11.2138,-10.9822,-10.8015,-10.7536,-10.6727,-10.5497,-10.4913,-10.4979,-10.5708,-10.5476,-10.5376,-10.5774,-10.5476,-10.5078,-10.4714,-10.4383,-10.3886,-10.3091,-10.1699,-10.0904,-10.0904,-9.9844,-9.9248,-9.9248,-9.6111,-9.4301,-9.3953,-9.1156,-8.9352,-8.8693,-8.9023,-8.9023,-8.8693,-8.9352,-8.9651,0.0,0.0,0.0,0.0,0.0,0.0,0.0,-8.907,-9.1176,-9.4637,-9.6751,-9.8884,-10.2227,-10.6474,-11.0453,-11.3126,-11.8057,-12.2289,-12.408,-12.5036,-12.4752,-12.2771,-12.4214,-12.515,-12.4854,-12.6356,-12.6906,-12.5606,-12.6572,-12.6609,-12.5272,-12.6498,-12.6906,-12.6275,-12.6869,-12.6906,-12.62,-12.62,-12.62,-12.5978,-12.5272,-12.5606,-12.6683,-12.5197,-12.4134,-12.3243,-12.1385,-11.977,-11.8408,-11.7816,-11.7512,-11.7512,-11.7512,-11.7512,-11.7512,-11.7512,-11.7512,-11.7512,-11.7512,-11.7083,-11.662,-11.6905,-11.6798,-11.662,-11.6905,-11.7298,-11.7512,-11.7512,-11.7512,-11.7512,-11.7512,-11.7512,-11.7512,-11.7512,-11.6298,-11.5121,-11.5299,-11.3261,-11.1085,-10.9753,-10.8753,-10.7745,-10.6555,-10.5872,-10.553,-10.594,-10.5774,-10.5608,-10.5774,-10.5674,-10.5376,-10.478,-10.4416,-10.3985,-10.319,-10.2196,-10.1832,-10.2296,-10.1202,-10.0705,-10.1202,-9.7332,-9.4964,-9.4269,-9.1125,-8.9082,-8.8304,-8.8424,-8.8424,-8.8304,-8.8424,-8.8574,-8.6858,-8.5395,-8.4931,-8.4681,-8.5645,-8.7429,0.0,-9.2318,-9.4744,-9.9276,-10.2131,-10.4774,-10.8581,-11.2248,-11.5686,-11.937,-12.1875,-12.4104,-12.6495,-12.7539,-12.7838,-12.7616,-12.717,-12.7521,-12.8895,-12.8615,-12.8207,-12.7984,-12.7501,-12.7092,-12.6906,-12.7092,-12.7204,-12.7092,-12.7204,-12.7204,-12.7092,-12.7092,-12.6683,-12.5978,-12.5903,-12.5569,-12.4974,-12.4083,-12.3245,-12.2264,-12.0009,-11.8516,-11.7554,-11.744,-11.7512,-11.7512,-11.7512,-11.7512,-11.7512,-11.7512,-11.7512,-11.7512,-11.7512,-11.7405,-11.7119,-11.5799,-11.6298,-11.7083,-11.5799,-11.6405,-11.7512,-11.7512,-11.7512,-11.7512,-11.7512,-11.7512,-11.7512,-11.7512,-11.6298,-11.5299,-11.6013,-11.4795,-11.3383,-11.2665,-11.2968,-11.2377,-10.9169,-10.8657,-10.8069,-10.7058,-10.5674,-10.5078,-10.5708,-10.5211,-10.478,-10.4681,-10.3521,-10.2428,-10.1732,-10.213,-10.213,-10.16,-10.1401,-10.1037,-10.0407,-9.6738,-9.4238,-9.3659,-9.0423,-8.8185,-8.6898,-8.7526,-8.7496,-8.6928,-8.7526,-8.8125,-8.7964,-8.6251,-8.5752,-8.7572,-8.8856,-9.0712,-9.478,-9.7314,-9.999,-10.4272,-10.7771,-11.1101,-11.4586,-11.7951,-12.0787,-12.2948,-12.4985,-12.6893,-12.8374,-12.8506,-12.8392,-12.8392,-12.7686,-12.7501,-12.8169,-12.7909,-12.7686,-12.7686,-12.7389,-12.6981,-12.6498,-12.6498,-12.6498,-12.6498,-12.6498,-12.6683,-12.7204,-12.7204,-12.6981,-12.6683,-12.568,-12.5383,-12.5495,-12.4083,-12.2787,-12.1537,-11.9996,-11.8733,-11.7512,-11.7512,-11.7512,-11.7512,-11.7512,-11.7512,-11.7512,-11.7512,-11.7512,-11.7512,-11.7512,-11.7512,-11.7405,-11.6691,-11.6976,-11.7405,-11.6691,-11.7012,-11.7512,-11.7512,-11.7512,-11.7512,-11.7512,-11.7512,-11.7512,-11.7512,-11.662,-11.5906,-11.6227,-11.5085,-11.3787,-11.3185,-11.2981,-11.2129,-10.9852,-10.8962,-10.8116,-10.7526,-10.6213,-10.5476,-10.5774,-10.5509,-10.4979,-10.4184,-10.3886,-10.3488,-10.2726,-10.2991,-10.2991,-10.2693,-10.1898,-10.1103,-10.0308,-9.6641,-9.3922,-9.2931,-8.9721,-8.7646,-8.6689,-8.6958,-8.6958,-8.6689,-8.6988,-8.7257,-8.7607,-8.7108,-8.7679,-9.0177,-9.2354,-9.503,-9.9348,-10.231,-10.5307,-10.9482,-11.3046,-11.6296,-11.9411,-12.2196,-12.4321,-12.5318,-12.6875,-12.8392,-12.9172,-12.8392,-12.7575,-12.7092,-12.6089,-12.5309,-12.49,-12.6275,-12.7204,-12.7204,-12.6981,-12.6498,-12.568,-12.5903,-12.5978,-12.5978,-12.62,-12.6572,-12.7204,-12.7204,-12.7092,-12.6869,-12.5903,-12.5495,-12.5606,-12.4194,-12.2455,-12.0672,-12.0162,-11.9016,-11.7512,-11.7512,-11.7512,-11.7512,-11.7512,-11.7512,-11.7512,-11.7512,-11.7512,-11.7512,-11.7512,-11.7512,-11.7476,-11.719,-11.7298,-11.7476,-11.719,-11.7298,-11.7512,-11.7512,-11.7512,-11.7512,-11.7512,-11.7512,-11.7512,-11.7512,-11.6905,-11.6405,-11.662,-11.5585,-11.4611,-11.4364,-11.3858,-11.296,-11.1738,-11.0092,-10.8896,-10.8151,-10.6804,-10.5807,-10.5807,-10.5608,-10.4979,-10.3687,-10.4283,-10.4283,-10.3389,-10.3488,-10.3389,-10.2991,-10.1997,-10.1004,-10.0076,-9.632,-9.3606,-9.2373,-8.9111,-8.7167,-8.6689,-8.6689,-8.6689,-8.6689,-8.6689,-8.6689,-8.4753,-8.7465,-9.0569,-9.1354,-9.5637,-10.049,-10.3701,-10.6806,-11.0375,-11.5085,-11.7431,-11.9505,-12.2787,-12.4111,-12.5309,-12.6906,-12.7204,-12.7501,-12.8281,-12.7092,-12.5495,-12.3786,-12.2188,-12.0591,-11.903,-12.3897,-12.7204,-12.7204,-12.6498,-12.568,-12.49,-12.5569,-12.5978,-12.5978,-12.6795,-12.7204,-12.7204,-12.7204,-12.6795,-12.5978,-12.6795,-12.6275,-12.4789,-12.3897,-12.216,-11.9906,-11.9906,-11.9016,-11.7512,-11.7512,-11.7512,-11.7512,-11.7512,-11.7512,-11.7512,-11.7512,-11.7512,-11.7512,-11.7512,-11.7512,-11.7405,-11.662,-11.6905,-11.7405,-11.6584,-11.6905,-11.7512,-11.7512,-11.7512,-11.7512,-11.7512,-11.7512,-11.7512,-11.7512,-11.6905,-11.6512,-11.7298,-11.6798,-11.6512,-11.7262,-11.7255,-11.6873,-11.5456,-11.3511,-11.1362,-10.9305,-10.7172,-10.5807,-10.5807,-10.5178,-10.4416,-10.3687,-10.4283,-10.4084,-10.2693,-10.319,-10.2991,-10.16,-10.1434,-10.0805,-9.938,-9.5579,-9.3216,-9.2341,-8.8623,-8.6689,-8.6689,-8.6689,-8.6689,-8.6689,-8.6689,-8.6689,-8.7572,-9.0605,-9.4566,-9.8456,-10.1596,-10.4915,-10.909,-11.2087,-11.4735,-11.7327,-11.7867,-11.8446,-12.0022,-12.0611,-12.1341,-12.2881,-12.4009,-12.5383,-12.7278,-12.62,-12.4194,-12.1371,-12.1074,-11.9996,-11.7321,-12.0294,-12.2783,-12.3897,-12.4194,-12.4194,-12.3971,-12.4194,-12.4306,-12.4306,-12.4603,-12.4974,-12.5606,-12.5606,-12.5495,-12.5197,-12.49,-12.4194,-12.308,-12.2783,-12.168,-11.9906,-11.9906,-11.9016,-11.7512,-11.7512,-11.7512,-11.7512,-11.7512,-11.7512,-11.7512,-11.7512,-11.7512,-11.7512,-11.7512,-11.7512,-11.7476,-11.719,-11.7298,-11.7405,-11.719,-11.7298,-11.7512,-11.7512,-11.7512,-11.7512,-11.7512,-11.7512,-11.7512,-11.7512,-11.7298,-11.719,-11.7405,-11.6905,-11.6512,-11.7298,-11.7083,-11.6613,-11.6082,-11.4698,-11.2701,-11.012,-10.7072,-10.5078,-10.5078,-10.4879,-10.4383,-10.3687,-10.3786,-10.3588,-10.2627,-10.2296,-10.1699,-10.0705,-10.0275,-9.9347,-9.789,-9.4613,-9.2373,-9.1678,-8.8409,-8.6689,-8.6689,-8.6689,-8.6689,-8.6689,-8.7137,-8.7107,-9.0008,-9.4213,-9.9062,-10.2881,-10.6092,-10.909,-11.248,-11.48,-11.6595,-11.7616,-11.6705,-11.5902,-11.6342,-11.5503,-11.5555,-11.8092,-11.9402,-12.1185,-12.4492,-12.3377,-12.1408,-11.929,-11.8993,-11.7879,-11.513,-11.6913,-11.9105,-12.1297,-12.2188,-12.2597,-12.2597,-12.3191,-12.3488,-12.3488,-12.3786,-12.4194,-12.4789,-12.4789,-12.4789,-12.4789,-12.36,-12.2968,-12.2708,-12.2374,-12.1605,-12.0267,-11.997,-11.9226,-11.7892,-11.759,-11.7512,-11.7512,-11.7512,-11.7512,-11.7512,-11.7512,-11.7512,-11.7512,-11.7512,-11.7512,-11.7512,-11.7512,-11.7512,-11.7512,-11.7512,-11.7512,-11.7512,-11.7512,-11.7512,-11.7512,-11.7512,-11.7512,-11.7512,-11.7512,-11.7512,-11.7512,-11.7512,-11.7083,-11.6905,-11.7405,-11.7083,-11.6691,-11.6691,-11.4974,-11.284,-11.0425,-10.7473,-10.5476,-10.5476,-10.5012,-10.4482,-10.3985,-10.3786,-10.3289,-10.2594,-10.1832,-10.1103,-10.0341,-9.991,-9.9016,-9.7558,-9.4485,-9.2278,-9.1362,-8.8287,-8.6689,-8.6689,-8.6928,-8.7048,-8.7048,-8.7736,-8.7826,-9.2364,-9.8375,-10.388,-10.4915,-10.9019,-11.3087,-11.3872,-11.5192,-11.6201,-11.5923,-11.3897,-11.205,-11.1838,-10.9341,-10.8588,-11.2826,-11.3718,-11.5687,-12.0479,-11.9216,-11.7619,-11.7507,-11.6207,-11.4609,-11.2901,-11.4201,-11.6393,-11.9588,0.0,-12.0999,-12.1185,-12.2597,-12.3377,-12.3377,-12.4194,-12.4677,-12.4677,-12.4677,-12.4677,-12.4677,-12.308,-12.2671,-12.3377,-12.2597,-12.1911,-12.1144,-12.0304,-11.95,-11.8553,-11.782,-11.744,-11.7405,-11.7405,-11.7405,-11.7405,-11.7476,-11.7512,-11.7512,-11.7512,-11.7512,-11.7512,-11.7512,-11.7512,-11.7512,-11.7512,-11.7512,-11.7512,-11.7512,-11.7512,-11.7512,-11.7512,-11.7512,-11.7512,-11.7512,-11.7512,-11.7512,-11.7512,-11.7512,-11.7512,-11.7512,-11.7512,-11.7512,-11.7512,-11.4561,-11.1838,-11.0561,-10.8276,-10.69,-10.6801,-10.5608,-10.4714,-10.4681,-10.3985,-10.3289,-10.2594,-10.1832,-10.1037,-10.0308,-10.0209,-9.9612,-9.8221,-9.5193,-9.2752,-9.1393,-8.8317,-8.6718,-8.6689,-8.7377,-8.7706,-8.7736,-8.8424,-8.8693,-9.9965,-10.4584,-10.8376,-11.0981,-11.3087,-11.4621,-11.48,-11.5121,-11.4666,-11.223,-10.8401,-10.469,-10.2086,-10.2495,-10.4306,-10.7697,-11.2901,-11.7804,-12.1482,-12.2002,-12.0999,-11.8622,-11.851,-11.7804,-11.5501,-11.6207,-11.7396,-11.8807,-11.9105,-11.9996,-12.1891,-12.2374,-12.2597,-12.2597,-12.2783,-12.2894,-12.2894,-12.2894,-12.2894,-12.2894,-12.2485,-12.2374,-12.2597,-12.2374,-12.1911,-12.1107,-12.0919,-11.9678,-11.7794,-11.7616,-11.6749,-11.5799,-11.6405,-11.662,-11.6691,-11.7298,-11.7512,-11.7512,-11.7512,-11.7512,-11.7512,-11.7512,-11.7512,-11.7512,-11.7512,-11.7512,-11.7512,-11.7512,-11.7512,-11.7512,-11.7512,-11.7512,-11.7512,-11.7512,-11.7512,-11.7512,-11.7512,-11.7512,-11.7512,-11.7512,-11.7512,-11.7512,-11.7512,-11.4947,-11.2858,-11.2427,-10.9285,-10.6701,-10.6171,-10.5774,-10.531,-10.478,-10.3521,-10.2726,-10.2527,-10.1335,-10.0308,-9.9579,-9.9546,-9.9115,-9.8221,-9.5193,-9.2974,-9.2089,-8.905,-8.7197,-8.6689,-8.7377,-8.7706,-8.7736,-8.8873,-8.8903,-10.4838,-10.8943,-11.2231,-11.3589,-11.4631,-11.4633,-11.2805,-11.216,-11.0568,-10.5471,-10.1371,-9.7839,-9.4847,-9.595,-9.8688,-10.2982,-10.9,-11.4907,-11.9996,-12.0814,-12.0516,-11.9811,-11.9811,-11.9402,-11.799,-11.8585,-11.9402,-12.0219,-11.9588,-11.9885,-12.1705,-12.2077,-12.23,-12.23,-12.23,-12.23,-12.23,-12.23,-12.23,-12.23,-12.23,-12.23,-12.23,-12.23,-12.2125,-12.1605,0.0,-11.9596,-11.7957,-11.7355,-11.6393,-11.5727,-11.612,-11.6512,-11.6905,-11.7298,-11.7512,-11.7512,-11.7512,-11.7512,-11.7512,-11.7512,-11.7512,-11.7512,-11.7512,-11.7512,-11.7512,-11.7512,-11.7512,-11.7512,-11.7512,-11.7512,-11.7512,-11.7512,-11.7512,-11.7512,-11.7512,-11.7512,-11.7512,-11.7512,-11.7512,-11.7512,-11.7512,-11.5683,-11.395,-11.3431,-11.0729,-10.8123,-10.6548,-10.5708,-10.5178,-10.4714,-10.3687,-10.2892,-10.2527,-10.1732,-10.0805,-9.9778,-10.001,-9.9745,-9.8718,-9.5532,-9.3384,-9.2373,-8.9294,-8.7496,-8.7137,-8.7796,-8.8274,-8.8574,-8.9621,-8.9681,-10.8727,-11.2402,-11.5485,-11.4884,-11.4991,-11.4077,-10.9871,-10.805,-10.5084,-9.7642,-9.4081,-9.1541,-8.9141,-9.0091,-9.3174,-9.9155,-10.4393,-11.03,-11.7619,-11.8399,-11.8993,-12.0999,-12.0776,-12.0591,-12.0591,-12.1185,-12.1891,-12.2597,-12.1185,-12.0591,-12.1185,-12.2002,-12.2374,-12.23,-12.23,-12.23,-12.23,-12.23,-12.23,-12.23,-12.2188,-12.2188,-12.23,-12.2077,-12.2002,-12.2114,-12.0644,0.0,-11.8401,-11.6906,-11.6213,-11.5947,-11.6049,-11.6584,-11.719,-11.7405,-11.7512,-11.7512,-11.7512,-11.7405,-11.7405,-11.7476,-11.7512,-11.7512,-11.7512,-11.7512,-11.7512,-11.7512,-11.7512,-11.7512,-11.7512,-11.7512,-11.7512,-11.7512,-11.7512,-11.7512,-11.7512,-11.7512,-11.7512,-11.7512,-11.7512,-11.7512,-11.7512,-11.6285,-11.4873,-11.3527,-11.2027,-10.9992,-10.7245,-10.5774,-10.4879,-10.4681,-10.3985,-10.3289,-10.2726,-10.2494,-10.1832,-10.0705,-10.1004,-10.0634,-9.9307,-9.6303,-9.3985,-9.2363,-8.9412,-8.7915,-8.7826,-8.8484,-8.9112,-8.9681,-9.0339,-9.0608,-11.5311,-11.7427,-11.8212,-11.8664,-11.7456,-11.463,-10.9438,-10.5394,-10.0601,-9.2727,-8.8984,-8.6323,-8.3793,-8.6276,-9.1056,-9.8152,-10.4616,-11.1006,-11.773,-12.0814,-12.2374,-12.2077,-12.3191,-12.3971,-12.3971,-12.4083,-12.4194,-12.438,-12.3377,-12.2597,-12.2077,-12.2894,-12.3005,-12.23,-12.23,-12.23,-12.23,-12.23,-12.23,-12.23,-12.1594,-12.1668,-12.23,-12.0888,-12.0665,-12.1297,-12.0319,0.0,-11.7591,-11.6685,-11.5492,-11.4485,-11.5057,-11.5406,-11.5727,-11.7012,-11.7512,-11.7512,-11.7512,-11.7083,-11.662,-11.7298,-11.7512,-11.7512,-11.7512,-11.7512,-11.7512,-11.7512,-11.7512,-11.7512,-11.7512,-11.7512,-11.7512,-11.7512,-11.7512,-11.7512,-11.7512,-11.7512,-11.7512,-11.7512,-11.7512,-11.7512,-11.7512,-11.6285,-11.4873,-11.3527,-11.1583,-10.9454,-10.7145,-10.6701,-10.6072,-10.4813,-10.3985,-10.3488,-10.3389,-10.2296,-10.1732,-10.213,-10.1103,-10.0087,-9.9043,-9.6678,-9.4359,-9.2165,-9.0365,-8.9052,-8.8514,-8.9172,-8.9561,-8.9681,-9.0339,-9.0339,-11.789,-11.9913,-12.0951,-12.008,-11.7134,-11.2474,-10.5575,-10.0198,-9.4439,-8.6346,-8.3985,-8.2886,-8.1242,-8.4879,-8.983,-9.5068,-10.0715,-10.7217,-11.5018,-11.7507,-11.9588,-12.2597,-12.36,-12.4306,-12.4789,-12.5197,-12.5272,-12.4789,-12.4789,-12.4269,-12.3005,-12.2894,-12.2671,-12.23,-12.23,-12.23,-12.23,-12.23,-12.23,-12.23,-12.1891,-12.1705,-12.1668,-12.1297,-12.0888,-12.0479,-12.0071,0.0,-11.7371,-11.6147,-11.5185,-11.4587,-11.4487,-11.5014,-11.5799,-11.662,-11.7119,-11.7512,-11.7512,-11.719,-11.7012,-11.7405,-11.719,-11.6976,-11.7405,-11.7512,-11.7512,-11.7512,-11.7512,-11.7512,-11.7512,-11.7512,-11.7512,-11.7512,-11.7512,-11.7512,-11.7512,-11.7512,-11.7512,-11.7512,-11.7512,-11.7512,-11.7512,-11.6944,-11.5805,-11.3657,-11.2427,-11.0765,-10.7789,-10.7496,-10.6801,-10.4879,-10.4383,-10.3985,-10.3588,-10.3289,-10.2925,-10.2527,-10.2196,-10.1066,-9.9144,-9.7135,-9.4802,-9.2099,-9.0567,-8.9501,-8.9202,-8.9501,-8.983,-9.019,-9.0489,-9.0638,-11.9131,-12.1463,-12.319,-12.0595,-11.6158,-11.0293,-10.1807,-9.5663,-8.9535,-8.1623,-8.0518,-8.0874,-8.0493,-8.4052,-8.827,-9.2096,-9.6406,-10.2313,-11.1192,-11.3421,-11.6318,-12.23,-12.36,-12.438,-12.5197,-12.5903,-12.5978,-12.5383,-12.5569,-12.5086,-12.36,-12.2708,-12.23,-12.23,-12.23,-12.23,-12.23,-12.23,-12.2188,-12.2002,-12.1891,-12.1482,-12.0888,-12.1111,-12.0702,-11.9588,-11.9402,-11.8577,0.0,-11.5918,-11.5336,-11.5114,-11.4705,-11.5165,-11.612,-11.6405,-11.6976,-11.7512,-11.7512,-11.7405,-11.7298,-11.7405,-11.7083,-11.6691,-11.7298,-11.7512,-11.7512,-11.7512,-11.7512,-11.7512,-11.7512,-11.7512,-11.7512,-11.7512,-11.7512,-11.7512,-11.7512,-11.7512,-11.7512,-11.7512,-11.7512,-11.7512,-11.7512,-11.7512,-11.6557,-11.4044,-11.3562,-11.2059,-10.8901,-10.814,-10.7298,-10.5376,-10.5012,-10.4614,-10.3886,-10.4184,-10.3985,-10.2826,-10.2991,-10.1647,-9.8559,-9.7177,-9.4898,-9.1871,-9.0485,-8.986,-8.986,-8.986,-9.013,-9.0638,-9.0788,-9.1117,-12.0267,-12.2719,-12.392,-12.0678,-11.6189,-10.9989,-10.057,-9.4397,-8.8599,-8.1365,-8.0378,-8.0968,-8.1673,-8.2846,-8.5446,-9.0945,-9.4102,-9.8746,-10.6994,-11.2009,-11.6504,-12.0776,-12.3971,-12.6089,-12.6906,-12.6981,-12.7092,-12.6981,-12.568,-12.4492,-12.36,-12.2708,-12.23,-12.23,-12.23,-12.23,-12.23,-12.23,-12.1891,-12.1185,-12.0479,-12.0071,-11.9996,-11.851,-11.8213,-11.8696,-11.7916,-11.7461,0.0,-11.6499,-11.5771,-11.519,-11.5801,-11.5674,-11.5406,-11.6905,-11.7405,-11.7512,-11.7512,-11.7012,-11.6512,-11.7298,-11.7405,-11.7405,-11.7476,-11.7512,-11.7512,-11.7512,-11.7512,-11.7512,-11.7512,-11.7512,-11.7512,-11.7512,-11.7512,-11.7512,-11.7512,-11.7512,-11.7512,-11.7512,-11.7512,-11.7512,-11.7512,-11.7512,-11.698,-11.5368,-11.4079,-11.2495,-11.0181,-10.8801,-10.7695,-10.6801,-10.6105,-10.5409,-10.4681,-10.3985,-10.3588,-10.3488,-10.2296,-10.0203,-9.7002,-9.6096,-9.4028,-9.0849,-9.0549,-9.0549,-9.0549,-9.0549,-9.0579,-9.0638,-9.1237,-9.1566,-11.8574,-12.217,-12.4083,-12.1297,-11.5018,-10.766,-10.0425,-9.2966,-8.6165,-8.1385,-8.0984,-8.1583,-8.1917,-8.266,-8.4109,-8.6858,-8.8121,-9.1465,-9.9192,-10.2796,-10.7811,-11.6393,-11.9885,-12.282,-12.62,-12.6906,-12.6795,-12.5792,-12.4194,-12.308,-12.2783,-12.2485,-12.23,-12.23,-12.23,-12.2077,-12.1594,-12.2077,-12.1668,-12.0368,-12.0479,-12.0108,-11.9105,-11.8993,-11.851,-11.7916,-11.8102,-11.7804,0.0,-11.6587,-11.6397,-11.6504,-11.5818,-11.5995,-11.6609,-11.6738,-11.7083,-11.7512,-11.7512,-11.7298,-11.7083,-11.7405,-11.7512,-11.7512,-11.7512,-11.7512,-11.7512,-11.7512,-11.7512,-11.7512,-11.7512,-11.7512,-11.7512,-11.7512,-11.7512,-11.7512,-11.7512,-11.7512,-11.7512,-11.7512,-11.7512,-11.7512,-11.7512,-11.7512,-11.6944,-11.5648,-11.4207,-11.2667,-11.1068,-10.9546,-10.8391,-10.7629,-10.6503,-10.5674,-10.5376,-10.4681,-10.4283,-10.4283,-10.3687,-10.1577,-9.7515,-9.7046,-9.4805,-9.0638,-9.0638,-9.0638,-9.0638,-9.0638,-9.0638,-9.0668,-9.1327,-9.1626,-11.5432,-12.0429,-12.36,-12.0405,-11.3384,-10.5693,-9.9712,-9.1725,-8.474,-8.1694,-8.1731,-8.2326,-8.2326,-8.2809,-8.3366,-8.396,-8.4443,-8.7155,-9.4065,-9.6443,-10.1198,-11.1303,-11.4424,-11.7693,-12.2597,-12.5197,-12.5978,-12.49,-12.3488,-12.2597,-12.23,-12.23,-12.23,-12.23,-12.23,-12.2002,-12.1482,-12.178,-12.1297,-11.9885,-12.0182,-11.9588,-11.8325,-11.8882,-11.851,-11.7433,-11.8027,-11.7916,0.0,-11.6812,-11.6794,-11.7113,-11.6344,-11.6754,-11.7532,-11.7038,-11.7462,-11.778,-11.7626,-11.7512,-11.7512,-11.7512,-11.7512,-11.7512,-11.7512,-11.7512,-11.7512,-11.7512,-11.7512,-11.7512,-11.7512,-11.7512,-11.7512,-11.7512,-11.7512,-11.7512,-11.7512,-11.7512,-11.7512,-11.7512,-11.7512,-11.7512,-11.7512,-11.7512,-11.7247,-11.6201,-11.4496,-11.2869,-11.1959,-11.027,-10.8921,-10.8391,-10.7198,-10.6403,-10.6105,-10.5409,-10.4913,-10.4681,-10.4482,-10.2428,-9.7928,-9.7742,-9.5458,-9.0938,-9.0938,-9.0848,-9.0638,-9.0638,-9.0638,-9.0668,-9.1327,-9.1011,-11.0709,-11.7321,-12.23,-11.7507,-11.1303,-10.469,-9.8115,-9.0907,-8.4889,-8.2474,-8.2623,-8.318,-8.318,-8.318,-8.318,-8.3217,-8.4555,-8.7601,-9.3397,-9.5588,-9.9081,-10.5693,-10.7997,-11.0894,-11.5798,-12.1482,-12.4789,-12.4789,-12.3971,0.0,-12.23,-12.23,-12.23,-12.23,-12.23,-12.23,-12.23,-12.1482,-12.0702,-11.9885,-11.8993,-11.8213,-11.7433,-11.7433,-11.7433,-11.7433,-11.7433,-11.7433,0.0,-11.7433,-11.701,-11.6504,-11.8051,-11.8211,-11.762,-11.8437,-11.8733,-11.8625,-11.7816,-11.7512,-11.7512,-11.7512,-11.7512,-11.7512,-11.7512,-11.7512,-11.7512,-11.7512,-11.7512,-11.7512,-11.7512,-11.7512,-11.7512,-11.7512,-11.7512,-11.7512,-11.7512,-11.7512,-11.7512,-11.7512,-11.7512,-11.7512,-11.7512,-11.7512,-11.7512,-11.7512,-11.5122,-11.33,-11.33,-11.0773,-10.912,-10.912,-10.8424,-10.7695,-10.7,-10.6205,-10.5476,-10.4714,-10.3985,-10.1871,-9.7774,-9.7587,-9.5707,-9.1626,-9.1596,-9.1297,-9.0638,-9.0638,-9.0638,-9.0668,-9.1327,-8.9989,-10.2015,-10.6511,-10.952,-10.6808,-10.209,-9.7223,-9.3991,-8.8864,-8.4406,-8.3069,-8.2994,-8.318,-8.318,-8.318,-8.3737,-8.5372,-8.6078,-8.7452,-9.0424,-9.5143,-10.0307,-10.5805,-11.4795,-12.1408,-12.3488,-12.438,-12.4789,-12.4789,-12.3488,-12.2597,-12.23,-12.23,-12.23,-12.23,-12.23,-12.178,-12.0665,-12.0962,-12.0108,-11.8213,-11.851,-11.8213,-11.7433,-11.7433,-11.7433,-11.7433,-11.7433,-11.7433,0.0,-11.7433,-11.7562,-11.7861,-11.849,-11.886,-11.9165,-11.9405,-11.9226,-11.8733,-11.8408,-11.804,-11.7512,-11.7512,-11.7512,-11.7512,-11.7512,-11.7512,-11.7512,-11.7512,-11.7512,-11.7512,-11.7512,-11.7512,-11.7512,-11.7512,-11.7512,-11.7512,-11.7512,-11.7512,-11.7512,-11.7512,-11.7512,-11.7512,-11.7512,-11.7512,-11.7512,-11.7512,-11.5122,-11.3265,-11.3265,-11.0773,-10.912,-10.912,-10.8921,-10.849,-10.7695,-10.7,-10.6205,-10.5509,-10.5211,-10.3147,-9.8533,-9.8314,-9.6422,-9.2284,-9.2284,-9.2194,-9.1985,-9.1985,-9.1985,-9.1955,-9.1267,-8.9143,-9.5031,-9.9601,-10.2684,-10.1012,-9.7149,-9.3322,-9.1613,-8.7452,-8.3812,-8.3292,-8.318,-8.318,-8.318,-8.318,-8.3663,-8.5186,-8.5446,-8.6449,-8.9347,-9.4065,-9.9749,-10.6511,-11.591,-12.2411,-12.3786,-12.3897,-12.3971,-12.4269,-12.308,-12.23,-12.23,-12.23,-12.23,-12.23,-12.23,-12.178,-12.0776,-12.0702,-11.9885,-11.8325,-11.8213,-11.773,-11.7024,-11.7321,-11.721,-11.7024,-11.7321,-11.7433,0.0,-11.7433,-11.773,-11.8166,-11.8477,-11.915,-11.9962,-11.9862,-11.9551,-11.9085,-11.8804,-11.8225,-11.7512,-11.7512,-11.7512,-11.7512,-11.7512,-11.7512,-11.7512,-11.7512,-11.7512,-11.7512,-11.7512,-11.7512,-11.7512,-11.7512,-11.7512,-11.7512,-11.7512,-11.7512,-11.7512,-11.7512,-11.7512,-11.7512,-11.7512,-11.7512,-11.7512,-11.7512,-11.5122,-11.3265,-11.3265,-11.0773,-10.912,-10.912,-10.912,-10.8921,-10.849,-10.7728,-10.7099,-10.6701,-10.6105,-10.3965,-9.9609,-9.9168,-9.7106,-9.2972,-9.2972,-9.2853,-9.2613,-9.2344,-9.2105,-9.1835,-9.1267,-8.9055,0.0,-9.5551,-9.9898,-9.8375,-9.5105,-9.191,-9.035,-8.6449,0.0,-8.318,-8.318,-8.318,-8.318,-8.318,-8.3254,-8.3403,-8.344,-8.5075,-8.9756,-9.3099,-9.8709,-10.8517,-11.3198,-11.6504,-11.8696,-12.0999,-12.2671,-12.3377,-12.2783,-12.23,-12.23,-12.23,-12.23,-12.23,-12.2188,-12.2188,-12.2077,-12.0591,-11.9773,-11.9699,-11.8102,-11.7024,-11.6318,-11.7024,-11.6913,0.0,-11.7024,0.0,0.0,-11.7321,-11.7321,-11.7507,-11.8325,-11.9105,-11.9874,-12.0036,-12.0031,-11.9906,-11.9121,-11.8335,-11.7626,-11.7476,-11.7512,-11.7512,-11.7512,-11.7512,-11.7512,-11.7512,-11.7512,-11.7512,-11.7512,-11.7512,-11.7512,-11.7512,-11.7512,-11.7512,-11.7512,-11.7512,-11.7512,-11.7512,-11.7512,-11.7512,-11.7512,-11.7512,-11.7512,-11.7512,-11.5245,-11.3396,-11.3265,-11.0915,-10.9235,-10.9087,-10.912,-10.912,-10.912,-10.849,-10.8093,-10.7993,-10.6701,-10.4242,-10.0812,-9.9989,-9.7728,-9.3832,-9.3661,-9.3361,-9.2733,-9.2075,-9.1446,-9.0848,-9.1416,-8.9523,-8.3923,0.0,-8.8158,-8.7155,-8.6189,-8.5409,0.0,-8.4035,-8.318,-8.318,-8.318,-8.318,-8.318,-8.318,-8.3775,-8.5632,-8.5929,-8.6784,-8.9236,-9.7632,-10.6994,-11.6207,-12.0405,-12.2188,-12.1482,-12.2485,-12.3303,-12.3488,-12.2783,-12.23,-12.23,-12.23,-12.23,-12.23,-12.1705,-12.1074,-12.0479,-11.9402,-11.8622,-11.799,-11.7024,-11.6727,-11.7099,-11.6727,-11.6727,-11.7099,-11.6727,0.0,-11.7396,-11.6727,-11.6801,-11.7507,-11.8325,-11.9105,-11.9996,-12.0604,-12.0775,-12.0691,-11.9906,-11.9121,-11.8299,-11.7703,-11.7512,-11.7512,-11.7512,-11.7512,-11.7512,-11.7512,-11.7512,-11.7512,-11.7512,-11.7512,-11.7512,-11.7512,-11.7512,-11.7512,-11.7512,-11.7512,-11.7512,-11.7512,-11.7512,-11.7512,-11.7512,-11.7512,-11.7512,-11.7512,-11.6046,-11.4461,-11.3396,-11.1856,-11.0303,-10.9235,-10.912,-10.912,-10.912,-10.8921,-10.8623,-10.8027,-10.7132,-10.4947,-10.0875,-9.9989,-9.7976,-9.4349,-9.4379,-9.4289,-9.4139,-9.3451,-9.3032,-9.2883,-9.2524,-9.037,-8.2549,-8.318,-8.3737,-8.3292,-8.318,-8.318,-8.318,-8.318,-8.318,-8.318,-8.318,-8.318,-8.318,-8.3477,-8.4183,-8.5483,-8.6635,-8.9273,-9.4697,-10.2424,-11.0597,-11.8882,-12.1482,-12.2597,0.0,-12.2894,-12.2894,-12.2894,-12.2485,-12.23,-12.23,-12.23,-12.2077,-12.178,-12.0999,-12.0479,-12.0479,-11.9216,-11.8399,-11.7916,-11.6801,-11.643,-11.6801,-11.6021,-11.6095,-11.6801,-11.643,0.0,-11.6801,-11.643,-11.6504,-11.6913,-11.7321,-11.8213,-11.9402,-12.0182,-12.0526,-12.0461,-12.0485,-11.9704,-11.8589,-11.8225,-11.778,-11.7512,-11.7512,-11.7512,-11.7512,-11.7512,-11.7512,-11.7512,-11.7512,-11.7512,-11.7512,-11.7512,-11.7512,-11.7512,-11.7512,-11.7512,-11.7512,-11.7512,-11.7512,-11.7512,-11.7512,-11.7512,-11.7512,-11.7512,-11.632,-11.4873,-11.3562,-11.2129,-11.0699,-10.9268,-10.912,-10.912,-10.912,-10.912,-10.8921,-10.8523,-10.7795,-10.5764,-10.1793,-10.0969,-9.9003,-9.5486,-9.5217,-9.4917,-9.4618,-9.393,-9.3421,-9.3122,-9.3062,-9.1015,-8.3477,-8.3552,-8.3514,-8.3254,-8.3292,-8.3329,-8.3217,-8.3292,-8.3329,-8.3217,-8.318,-8.318,-8.318,-8.4035,-8.4815,-8.4926,-8.7564,-9.2876,-10.2313,-10.7105,-11.2195,-11.9068,-12.0182,0.0,-12.2783,-12.2597,-12.23,-12.23,-12.23,-12.2188,-12.2077,-12.2077,-12.1705,-12.0888,-12.0108,-12.0118,-12.0787,-11.9068,-11.8287,-11.8482,-11.6698,-11.6147,-11.6371,-11.5366,-11.5366,-11.6185,0.0,0.0,-11.6185,-11.6073,-11.6185,-11.6371,-11.6371,-11.7375,-11.9086,-11.9756,-12.0109,-12.0426,-12.0942,-11.997,-11.8697,-11.8697,-11.8261,-11.7512,-11.7512,-11.7512,-11.7512,-11.7512,-11.7512,-11.7512,-11.7512,-11.7512,-11.7512,-11.7512,-11.7512,-11.7512,-11.7512,-11.7512,-11.7512,-11.7512,-11.7512,-11.7512,-11.7512,-11.7512,-11.7512,-11.7512,-11.6474,-11.5122,-11.3527,-11.2265,-11.0949,-10.9268,-10.912,-10.912,-10.912,-10.912,-10.912,-10.912,-10.8424,-10.6332,-10.2775,-10.1524,-9.9621,-9.674,-9.5935,-9.5306,-9.4768,-9.408,-9.3451,-9.2913,-9.3481,-9.1689,-8.4852,-8.5223,-8.4889,-8.3514,-8.37,-8.4035,-8.3366,-8.3737,-8.3997,-8.3329,-8.318,-8.318,-8.318,-8.4963,-8.6672,-8.7415,-9.2505,-9.9081,-10.6919,-11.0894,-11.4795,-11.9365,0.0,-12.23,-12.0591,-12.1594,-12.23,-12.23,-12.23,-12.2002,-12.1297,-12.1297,-12.0888,-12.0071,-11.9216,-11.9012,-11.9532,-11.7487,-11.7077,-11.8114,-11.5725,-11.5505,-11.7156,-11.5582,-11.5357,-11.6069,0.0,-11.5469,-11.6069,-11.5395,-11.5882,-11.7156,-11.7156,-11.858,-12.0679,-12.0472,-12.1317,-12.2296,-12.1403,-11.997,-11.8697,-11.8697,-11.8261,-11.7512,-11.7512,-11.7512,-11.7512,-11.7512,-11.7512,-11.7512,-11.7512,-11.7512,-11.7512,-11.7512,-11.7512,-11.7512,-11.7512,-11.7512,-11.7512,-11.7512,-11.7512,-11.7512,-11.7512,-11.7512,-11.7512,-11.7512,-11.7326,-11.6166,-11.3657,-11.3134,-11.1993,-10.9383,-10.912,-10.912,-10.912,-10.912,-10.912,-10.912,-10.8424,-10.6288,-10.2015,-9.904,-9.7237,-9.6563,-9.5935,-9.5546,-9.5426,-9.4768,-9.4409,-9.4319,-9.4409,-9.2215,-8.4109,-8.4295,-8.428,-8.4121,-8.4642,-8.4998,-8.3863,-8.3956,-8.4106,-8.3732,-8.3825,-8.4365,-8.5489,-8.8107,-9.1725,-9.6554,-10.1012,-10.5619,-11.082,-11.3198,-11.5984,-12.0071,0.0,-12.1594,-12.178,-12.2077,-12.23,-12.23,-12.1891,-12.1482,-12.1074,-12.0665,-12.0071,-11.9216,-11.8648,-11.8178,-11.7932,-11.6288,-11.6442,-11.8279,-11.6294,-11.5957,-11.7304,-11.5201,-11.4901,-11.614,0.0,-11.5126,-11.5426,-11.5126,-11.5614,-11.6703,-11.6703,-11.8205,-12.0495,-12.1166,-12.2174,-12.3181,-12.2397,-12.1274,-12.0194,-11.9603,-11.8804,-11.8115,-11.7554,-11.7512,-11.7512,-11.7512,-11.7512,-11.7512,-11.7512,-11.7512,-11.7512,-11.7512,-11.7512,-11.7512,-11.7512,-11.7512,-11.7512,-11.7512,-11.7512,-11.7512,-11.7512,-11.7512,-11.7512,-11.7512,-11.7512,-11.6439,-11.3692,-11.3265,-11.2231,-10.9383,-10.912,-10.912,-10.912,-10.912,-10.912,-10.912,-10.6995,-10.4856,-10.2833,-9.9426,-9.7641,-9.7641,-9.6952,-9.6444,-9.6114,-9.5456,-9.4947,-9.4618,-9.4618,-9.2361,-8.3818,-8.4004,-8.4419,-8.5321,-8.5658,-8.5713,-8.5746,-8.5762,-8.5913,-8.6476,-8.6949,-8.7604,-8.8766,-9.2306,-9.7472,-10.4689,-10.8781,-11.2245,-11.5414,-11.6601,-11.8305,-12.1505,-12.1196,-12.1371,-12.308,-12.2671,-12.23,-12.23,-12.1594,-12.1122,-12.1021,-12.0202,-11.9272,-11.8276,-11.7965,-11.7601,-11.7118,-11.5914,-11.6321,-11.8126,-11.6509,-11.6171,-11.7028,-11.492,-11.4619,-11.5753,-11.5076,-11.492,-11.492,-11.492,-11.541,-11.6125,-11.6313,-11.801,-12.0495,-12.2111,-12.3088,-12.3459,-12.3181,-12.2539,-12.1615,-12.0389,-11.9464,-11.8697,-11.7816,-11.7512,-11.7512,-11.7512,-11.7512,-11.7512,-11.7512,-11.7512,-11.7512,-11.7512,-11.7512,-11.7512,-11.7512,-11.7583,-11.7797,-11.7797,-11.7904,-11.8011,-11.7797,-11.7797,-11.769,-11.7512,-11.7512,-11.6439,-11.3692,-11.3265,-11.2231,-10.9383,-10.912,-10.912,-10.912,-10.912,-10.912,-10.912,-10.5816,-10.3781,-10.3781,-10.0341,-9.8538,-9.8538,-9.785,-9.7252,-9.6803,-9.5995,-9.5336,-9.4828,-9.4678,-9.2361,-8.5541,-8.6383,-8.7154,-8.7705,-8.6346,-8.5938,-9.0043,-9.0963,-9.1602,-9.3952,-9.4382,-9.4044,-9.2654,-9.7279,-10.2771,-10.7319,-11.3262,-11.8499,-12.1395,0.0,-12.3647,-12.3946,-12.3488,-12.3005,-12.2411,-12.23,-12.23,-12.23,-12.1594,-12.0872,-12.0615,-11.9682,-11.8645,-11.7456,-11.7493,-11.7637,-11.7917,-11.6974,-11.6672,-11.6786,-11.5089,-11.4988,-11.6182,-11.5197,-11.4818,-11.4894,-11.4818,-11.4818,-11.4818,-11.4818,-11.5311,-11.6182,-11.6902,-11.9014,-12.1763,-12.3385,-12.3879,-12.3612,-12.3612,-12.2988,-12.2089,-12.0849,-11.9924,-11.9008,-11.7892,-11.7512,-11.7512,-11.7512,-11.7512,-11.7512,-11.7512,-11.7512,-11.7512,-11.7512,-11.7512,-11.7512,-11.7512,-11.8083,-11.8582,-11.8582,-11.9189,-11.9403,-11.8689,-11.8582,-11.8368,-11.7583,-11.7512,-11.6439,-11.3692,-11.3265,-11.2231,-10.9383,-10.912,-10.912,-10.912,-10.912,-10.912,-10.912,-10.5816,-10.3781,-10.3781,-10.0341,-9.8538,-9.8538,-9.785,-9.7461,-9.7431,-9.6204,-9.5576,-9.5516,-9.4888,-9.2361,-8.4646,-8.5749,-8.6759,-8.6642,-8.6779,-8.7969,-9.1892,-9.3207,-9.4152,-9.6117,-9.8856,-10.079,-10.0531,-10.4602,-10.9224,-11.2618,-11.7868,-12.2406,-12.5076,-12.5448,-12.5476,-12.6001,-12.4977,-12.4185,-12.3886,-12.3399,-12.31,-12.31,-12.1903,-12.101,-12.0904,-11.9105,-11.7906,-11.7416,-11.6618,-11.6302,-11.6401,-11.5771,-11.5486,-11.5486,-11.541,-11.5588,-11.6094,-11.5184,-11.4805,-11.4805,-11.4805,-11.4805,-11.4805,-11.4805,-11.5298,-11.6284,-11.8103,-12.0198,-12.2184,-12.3319,-12.4006,-12.4318,-12.4103,-12.3804,-12.3269,-12.2014,-12.1181,-12.0471,-11.9081,-11.8409,-11.8079,-11.7554,-11.7512,-11.7512,-11.7512,-11.7512,-11.7512,-11.7512,-11.7904,-11.819,-11.819,-11.8796,-11.9403,-11.9403,-11.9617,-11.9724,-11.9403,-11.9403,-11.9117,-11.8368,-11.819,-11.697,-11.3726,-11.3265,-11.2231,-10.9383,-10.912,-10.912,-10.912,-10.9517,-10.9583,-10.912,-10.5816,-10.3781,-10.3781,-10.0341,-9.8538,-9.8538,-9.8269,-9.791,-9.7491,-9.7012,-9.6354,-9.5576,-9.5336,-9.292,-8.4515,-8.5583,-8.6501,-8.5927,-8.7499,-9.0348,-9.4893,-9.6575,-9.8091,-10.1388,-10.3794,-10.5544,-10.63,-10.9264,-11.2609,-11.549,-12.0832,-12.5158,-12.7004,-12.6928,-12.6625,-12.6585,-12.5492,-12.4701,-12.44,-12.3912,-12.3499,-12.3199,-12.1885,-12.0909,-12.0457,-11.8577,-11.7371,-11.7023,-11.6062,-11.5667,-11.5667,-11.5096,-11.4881,-11.5184,-11.5488,-11.5677,-11.5677,-11.5109,-11.4805,-11.4805,-11.4805,-11.4805,-11.4805,-11.4805,-11.5298,-11.6284,-11.8596,-12.0301,-12.1704,-12.2992,-12.3902,-12.4433,-12.4119,-12.4238,-12.4099,-12.2619,-12.212,-12.1828,-12.0022,-11.9185,-11.8731,-11.7928,-11.7626,-11.7512,-11.7512,-11.7512,-11.7583,-11.7797,-11.8297,-11.8761,-11.8975,-11.9617,-12.0224,-12.0224,-12.0402,-12.0402,-11.9938,-11.9831,-11.951,-11.8796,-11.8689,-11.743,-11.4107,-11.3679,-11.2505,-10.9383,-10.912,-10.9219,-10.9418,-10.9882,-11.008,-10.9815,-10.6203,-10.4003,-10.3813,-10.0341,-9.8538,-9.8538,-9.8538,-9.8299,-9.782,-9.7611,-9.7042,-9.6174,-9.5785,-9.3272,-8.56,-8.6254,-8.6807,-8.6294,-8.8653,-9.2898,-9.9607,-10.1805,-10.4193,-11.1015,-10.9689,-10.7789,-10.9132,-11.0704,-11.2628,-11.5223,-12.1943,-12.6811,-12.7168,-12.7564,-12.7306,-12.5608,-12.497,-12.4476,-12.3687,-12.3574,-12.3199,-12.241,-12.1509,-12.0457,-11.9344,-11.8401,-11.7435,-11.6094,-11.6094,-11.6094,-11.6094,-11.5184,-11.5184,-11.6094,-11.5184,-11.4805,-11.4805,-11.4805,-11.4805,-11.4805,-11.4805,-11.4805,-11.4805,-11.4805,-11.5298,-11.6284,-11.7913,-11.9088,-12.0112,-12.2613,-12.3485,-12.3485,-12.3485,-12.4091,-12.441,-12.2373,-12.2287,-12.2638,-12.0545,-11.9559,-11.9112,-11.8189,-11.7703,-11.7476,-11.7512,-11.7512,-11.769,-11.8475,-11.8689,-11.8903,-11.9617,-12.0438,-12.1009,-12.1009,-12.1687,-12.1687,-12.0117,-11.9831,-11.9617,-11.8796,-11.8689,-11.7643,-11.4834,-11.4473,-11.312,-10.9449,-10.912,-10.9418,-11.008,-11.018,-11.0478,-11.1207,-10.7201,-10.454,-10.3876,-10.0341,-9.8538,-9.8538,-9.8538,-9.8538,-9.8538,-9.785,-9.7491,-9.7461,-9.6204,-9.3507,-8.5101,-8.6625,-8.8064,-8.7933,-9.1685,-9.6916,-10.2411,-10.389,-10.6581,-11.5715,-11.4919,-11.3138,-11.4566,-11.5815,-11.6962,-11.8314,-12.2403,-12.5773,-12.7124,-12.6903,-12.6416,-12.5924,-12.5178,-12.4691,-12.4465,-12.3898,-12.318,-12.2386,-12.0987,-11.9808,-11.8778,-11.7443,-11.6523,-11.6094,-11.4995,-11.4313,-11.4313,-11.3479,-11.3214,-11.3403,-11.3214,-11.3706,-11.4805,-11.4805,-11.4805,-11.4805,-11.4805,-11.4805,-11.4805,-11.4805,-11.5601,-11.7004,-11.7496,-11.9278,-12.159,-12.1704,-12.25,-12.3409,-12.2916,-12.3182,-12.3758,-12.318,-12.3347,-12.3539,-12.1578,-12.0792,-12.0059,-11.8408,-11.778,-11.7667,-11.744,-11.7512,-11.7583,-11.7797,-11.8689,-11.951,-11.9796,-12.0902,-12.1794,-12.1794,-12.2008,-12.2008,-12.1615,-12.1508,-12.1223,-12.0402,-11.9016,-11.6572,-11.2744,-11.1286,-11.0483,-10.9932,-10.9882,-11.018,-11.0809,-11.1405,-11.1505,-11.1207,-10.7683,-10.552,-10.5267,-10.083,-9.8748,-9.9197,-9.8748,-9.8538,-9.8538,-9.8329,-9.797,-9.7491,-9.7102,-9.4562,-8.5886,-8.744,-8.9259,-8.9904,-9.4225,-9.9948,-10.6315,-10.9613,-11.3214,-12.0301,-11.8899,-11.6814,-11.8482,-11.8709,-11.9013,-12.0112,-12.3106,-12.5494,-12.6176,-12.61,-12.5911,-12.5608,-12.4812,-12.4205,-12.3788,-12.2992,-12.2007,-12.0908,-11.9922,-11.8823,-11.7686,-11.6587,-11.5791,-11.5109,-11.4085,-11.3403,-11.31,-11.2607,-11.2304,-11.2304,-11.2304,-11.2797,-11.3782,-11.4199,-11.4313,-11.4313,-11.4009,-11.4199,-11.4805,-11.4502,-11.5298,-11.689,-11.7193,-11.8709,-12.0794,-12.1021,-12.159,-12.2424,-12.2007,-12.231,-12.2992,-12.2613,-12.3122,-12.3683,-12.2346,-12.1791,-12.1383,-11.9428,-11.8624,-11.83,-11.778,-11.7626,-11.769,-11.8297,-11.9117,-12.001,-12.0616,-12.1508,-12.2186,-12.2186,-12.2186,-12.2115,-12.1794,-12.1723,-12.158,-12.1116,-11.8869,-11.6143,-11.2866,-11.1051,-11.0113,-11.0577,-11.0577,-11.0875,-11.1604,-11.2035,-11.2234,-11.2101,-10.8456,-10.6436,-10.6689,-10.1769,-9.8987,-9.9107,-9.8987,-9.8778,-9.8538,-9.8538,-9.8299,-9.788,-9.6862,-9.4228,-8.7402,-8.8691,-9.051,-9.2405,-9.7105,-10.3397,-11.1394,-11.7421,-12.1893,-12.4016,-12.159,-11.9619,-12.1097,-12.0188,-11.9695,-12.1201,-12.4007,-12.5676,-12.4984,-12.5477,-12.5591,-12.487,-12.3998,-12.3201,-12.2404,-12.1493,-12.0317,-11.8686,-11.8496,-11.7699,-11.6068,-11.5916,-11.5171,-11.3578,-11.3365,-11.2986,-11.219,-11.2114,-11.2114,-11.2114,-11.2114,-11.2114,-11.219,-11.31,-11.3479,-11.3403,-11.2607,-11.3214,-11.4502,-11.3896,-11.4502,-11.6094,-11.7004,-11.7913,-11.8899,-12.0415,-12.0908,-12.1021,-12.0908,-12.1514,-12.2083,-12.14,-12.2196,-12.3387,-12.26,-12.2594,-12.2601,-12.0698,-11.9861,-11.9185,-11.8189,-11.7667,-11.7868,-11.9367,-11.9688,-12.0117,-12.1687,-12.2008,-12.2115,-12.2186,-12.2186,-12.2008,-12.1223,-12.1116,-12.0962,-12.0654,-11.8462,-11.61,-11.4376,-11.2474,-11.1273,-11.1306,-11.1306,-11.1604,-11.2333,-11.2399,-11.2697,-11.3393,-10.9357,-10.7163,-10.7795,-10.2595,-9.9376,-9.8897,-9.9286,-9.9226,-9.8718,-9.8598,-9.8538,-9.8508,-9.5764,-9.3368,-8.7402,-8.9525,-9.2633,-9.6347,-10.4989,-11.3896,-11.9013,-12.2083,-12.3599,-12.2121,-12.2689,-12.3599,-12.3902,-12.3712,-12.3694,-12.427,-12.5056,-12.5622,-12.5784,-12.542,-12.5037,-12.4808,-12.4004,-12.3184,-12.238,-12.1501,-12.0277,-11.8594,-11.7868,-11.6759,-11.5076,-11.4808,-11.4089,-11.3099,-11.2105,-11.1508,-11.1394,-11.0712,-11.0295,0.0,-11.0295,-11.0712,-11.1394,-11.219,-11.2607,-11.2607,-11.2418,-11.2493,-11.291,-11.3403,-11.4199,-11.5184,-11.6701,-11.8179,-11.9619,-11.9922,-12.0491,-12.0908,-12.0301,-12.0604,-12.14,-12.1893,-12.2689,-12.3501,-12.3202,-12.3236,-12.2876,-12.0829,-12.0059,-11.966,-11.8625,-11.8075,-11.8102,-11.8997,-11.9169,-11.9189,-12.0117,-12.083,-12.1401,-12.2079,-12.2186,-12.2115,-12.2008,-12.1901,-12.0967,-11.8145,-11.7083,-11.5479,-11.2307,-11.1424,-11.1405,-11.2002,-11.2101,-11.2399,-11.3128,-11.3194,-11.3227,-11.3426,-10.9357,-10.7036,-10.7131,-10.2778,-10.0693,-10.162,-10.0214,-9.9675,-10.0064,-9.9017,-9.8538,-9.8508,-9.6233,-9.4027,-8.763,-9.07,-9.5703,-10.2298,-11.0106,-11.708,-12.0794,-12.2811,-12.3725,-12.3231,-12.4026,-12.4812,-12.4812,-12.4975,-12.5196,-12.537,-12.5572,-12.5803,-12.6062,-12.5311,-12.462,-12.4199,-12.3125,-12.1769,-12.0581,-11.9699,-11.8473,-11.6787,-11.6338,-11.5418,-11.4065,-11.3916,-11.338,-11.2577,-11.1984,-11.1271,-11.0798,-11.0303,-10.9999,-10.9802,-10.9802,-10.9992,-11.0485,-11.1318,-11.1887,-11.2304,-11.1508,-11.1584,-11.2304,-11.238,-11.3593,-11.5488,-11.6397,-11.7686,-11.9202,-11.9202,-11.9202,-11.9202,-11.9202,-11.9505,-11.9998,-12.0794,-12.159,-12.2395,-12.2774,-12.3118,-12.3127,-12.1504,-12.1016,-12.0508,-11.9052,-11.8407,-11.8258,-11.8465,-11.8597,-11.8975,-12.0117,-12.0723,-12.1223,-12.2008,-12.2186,-12.2186,-12.2186,-12.2186,-12.1129,-11.7672,-11.7197,-11.5955,-11.2723,-11.23,-11.2399,-11.2797,-11.283,-11.2996,-11.3393,-11.3426,-11.3426,-11.3426,-10.9615,-10.7574,-10.789,-10.3942,-10.18,-10.1501,-10.0812,-10.0304,-10.0004,-9.9316,-9.8837,-9.8328,-9.5709,-9.3556,-8.7819,-9.2102,-9.9038,-10.7718,-11.3085,-11.7206,-12.0393,-12.21,-12.3413,-12.4788,-12.4903,-12.4775,-12.5002,-12.5308,-12.5475,-12.5592,-12.5816,-12.6005,-12.6094,-12.5211,-12.4289,-12.3406,-12.1908,-12.0333,-11.8605,-11.7721,-11.6608,-11.4994,-11.4802,-11.4303,-11.342,-11.3289,-11.2905,-11.2099,-11.1967,-11.1439,-11.0282,-11.0229,-10.9938,-10.9503,-10.9634,-10.9689,-10.9802,-11.0522,-11.1205,-11.1811,-11.0409,-11.0598,-11.1811,-11.1318,-11.2797,-11.5488,-11.5791,-11.6814,-11.8217,-11.8292,-11.7913,-11.7383,-11.8292,-11.8596,-11.8709,-11.9505,-12.0301,-12.1211,-12.2007,-12.2916,-12.3325,-12.2287,-12.1754,-12.1218,-11.9366,-11.8733,-11.8371,-11.8115,-11.846,-11.9161,-12.0474,-12.0902,-12.1223,-12.2008,-12.2186,-12.2186,-12.2186,-12.2186,-12.1235,-11.8156,-11.7784,-11.6673,-11.3854,-11.3426,-11.3426,-11.3426,-11.3426,-11.3426,-11.3426,-11.3426,-11.3271,-11.296,-10.9933,-10.8192,-10.8412,-10.5254,-10.2817,-10.1201,-10.159,-10.1291,-10.0184,-9.9945,-9.9556,-9.8865,-9.5175,-9.3121,-8.7668,-9.377,-10.1919,-10.821,-11.3781,-11.8432,-12.0965,-12.2459,-12.3479,-12.3709,-12.4268,-12.5034,-12.5799,-12.6008,-12.6131,-12.6524,-12.5928,-12.5604,-12.6022,-12.471,-12.3396,-12.2623,-12.1618,-12.0305,-11.8604,-11.7715,-11.6826,-11.5822,-11.501,-11.4314,-11.3426,-11.308,-11.2492,-11.1606,-11.1262,-11.0692,-10.9802,-10.9379,-10.8865,-10.8202,-10.8575,-10.912,-10.9802,-10.9916,-10.9992,-11.0106,-10.9916,-10.9916,-11.0219,-11.0788,-11.1811,-11.2986,-11.4389,-11.5601,-11.6473,-11.7193,-11.7383,-11.7383,-11.8292,-11.8596,-11.8709,-11.9505,-12.0301,-12.1211,-12.2007,-12.2916,-12.3325,-12.2287,-12.2002,-12.1526,-11.9603,-11.8876,-11.8661,-11.8697,-11.9092,-11.9622,-11.9912,-12.0509,-12.1223,-12.2008,-12.2186,-12.2186,-12.2186,-12.2186,-12.1235,-11.8156,-11.7784,-11.6673,-11.3854,-11.3426,-11.3426,-11.3426,-11.3426,-11.3426,-11.3426,-11.3426,-11.2705,-11.1241,-10.9545,-10.8031,-10.6527,-10.5027,-10.4134,-10.3895,-10.3416,-10.3087,-10.2907,-10.177,-10.1171,-10.1052,-9.6207,-9.3964,-9.1496,-9.5325,-10.0393,-10.8229,-11.2442,-11.5573,-11.9091,-12.0479,-12.1275,-12.2198,-12.2617,-12.2886,-12.3791,-12.4584,-12.4909,-12.4588,-12.4811,-12.5017,-12.4673,-12.359,-12.2313,-12.0998,-11.9683,-11.8406,-11.7091,-11.6201,-11.5389,-11.4616,-11.4113,-11.3494,-11.272,-11.2498,-11.2,-11.1112,-11.0883,-11.03,-10.9282,-10.9112,-10.8911,-10.8613,-10.8284,-10.8784,-10.9802,-10.931,-10.9385,-10.9802,-10.9802,-11.0106,-11.0598,-11.0902,-11.2114,-11.3782,-11.4502,-11.5298,-11.6094,-11.6473,-11.6284,-11.6094,-11.7383,-11.7913,-11.8103,-11.9392,-11.9998,-12.0491,-12.1325,-12.2196,-12.2575,-12.1616,-12.1705,-12.16,-11.9639,-11.9088,-11.9018,-11.8769,-11.9274,-11.9884,-12.0155,-12.0786,-12.1529,-12.2044,-12.2186,-12.2186,-12.2186,-12.2186,-12.1235,-11.8156,-11.7784,-11.6673,-11.3854,-11.3426,-11.3426,-11.3426,-11.3426,-11.3426,-11.3426,-11.3426,-11.2745,-11.1337,-10.9864,-10.847,-10.7366,-10.5904,-10.5002,-10.5002,-10.4313,-10.3805,-10.3416,-10.2817,-10.2189,-10.1471,-9.7125,-9.4778,-9.286,-9.4904,-9.7591,-10.5791,-10.9465,-11.2176,-11.6704,-11.8029,-11.8828,0.0,-12.0729,-12.0497,-12.1216,-12.2624,-12.3495,-12.2916,-12.3395,-12.359,-12.301,-12.2197,-12.0998,-11.9296,-11.802,-11.682,-11.5699,-11.4809,-11.3997,-11.3378,-11.3107,-11.272,-11.2101,-11.2101,-11.1714,-11.0786,-11.0786,-11.0218,-10.8801,-10.8492,-10.8427,-10.8536,-10.7926,-10.8191,-10.9499,-10.8893,-10.8893,-10.9499,-10.9689,-11.0219,-11.0788,-11.1015,-11.2304,-11.4199,-11.4389,-11.4995,-11.5791,-11.5791,-11.5374,-11.4995,-11.6473,-11.708,-11.7496,-11.8785,-11.9505,-11.9922,-12.0491,-12.14,-12.2115,-12.1374,-12.1579,-12.1615,-12.0007,-11.9403,-11.9052,-11.8876,-11.949,-12.0285,-12.0928,-12.1452,-12.194,-12.2351,-12.2458,-12.2305,-12.2305,-12.2151,-12.1235,-11.8156,-11.7784,-11.6673,-11.3854,-11.3426,-11.3426,-11.3426,-11.3426,-11.3426,-11.3426,-11.3625,-11.2916,-11.1031,-11.0001,-10.8742,-10.7486,-10.6309,-10.569,-10.569,-10.5002,-10.4403,-10.3924,-10.3745,-10.3296,-10.2488,-9.8187,-9.5734,-8.8274,-9.095,-9.4273,-9.9622,-10.4489,-10.9299,-11.4305,0.0,-11.6784,-11.9298,-11.9103,-11.8522,-11.8602,-12.069,-12.2392,-12.2275,-12.1694,-12.1192,-12.1114,-12.0379,-11.918,-11.7517,-11.7285,-11.6511,-11.4809,-11.3881,-11.3378,-11.33,-11.2604,-11.2101,-11.2101,-11.2101,-11.1714,-11.0786,-11.0786,-11.0012,-10.8393,-10.7102,-10.6621,-10.6706,-10.6706,-10.7409,-10.8703,-10.8589,-10.8589,-10.8703,-10.9499,-10.9802,-10.9916,-11.0788,-11.1584,-11.2493,-11.3289,-11.4199,-11.4881,-11.4881,-11.4805,-11.4881,-11.5791,-11.6701,-11.7307,-11.7383,-11.8482,-11.9809,-11.9809,-12.1021,-12.2327,-12.2186,-12.2115,-12.1828,-12.0772,-11.9943,-11.923,-11.923,-11.9845,-12.0573,-12.1611,-12.2506,-12.3045,-12.2967,-12.2737,-12.2621,-12.2621,-12.2423,-12.1235,-11.8156,-11.7784,-11.6673,-11.3854,-11.3426,-11.3426,-11.3426,-11.3426,-11.3426,-11.3426,-11.4022,-11.2929,-10.934,-11.0228,-10.9232,-10.5776,-10.6049,-10.6318,-10.6318,-10.572,-10.5331,-10.5331,-10.4702,-10.4613,-10.5018,-9.9449,-9.683,-8.8489,-9.007,-9.2066,-9.6634,-10.0516,-10.3967,-10.7481,-11.0098,-11.2411,-11.4422,-11.5002,-11.5312,-11.5892,-11.8484,-12.0418,-11.9915,-11.9489,-11.918,-11.86,-11.7787,-11.6782,-11.5699,-11.5002,-11.4499,-11.3881,-11.2991,-11.2488,-11.2488,-11.2295,-11.2101,-11.2101,-11.1598,-11.0902,-11.0012,-10.9509,-10.8581,-10.7498,-10.6972,-10.6989,-10.7308,-10.6507,-10.6897,-10.8077,-10.7265,-10.7301,-10.7794,-10.8097,-10.8514,-10.912,-10.9916,-11.0788,-11.1697,-11.31,-11.3782,-11.4085,-11.4578,-11.4805,-11.4881,-11.5791,-11.6284,-11.6701,-11.78,-11.852,-11.9126,-11.9619,-12.0983,-12.2214,-12.1509,-12.1704,-12.1828,-12.0829,-11.9906,-11.923,-11.923,-12.0208,-12.1367,-12.1549,-12.1975,-12.2506,-12.3009,-12.3003,-12.2852,-12.2852,-12.2079,-12.0794,-11.8761,-11.7681,-11.6349,-11.4428,-11.4193,-11.4193,-11.4193,-11.4193,-11.4393,-11.4793,-11.4819,-11.3676,-11.0859,-11.0973,-10.9512,-10.6243,-10.6288,-10.6408,-10.6408,-10.5331,-10.5211,-10.6019,-10.4912,-10.4523,-10.454,-9.9363,-9.6717,-8.7734,-8.8679,-9.0268,-9.5122,-9.7176,-9.922,-10.3784,-10.5719,-10.7305,-11.0206,-11.1482,-11.2488,-11.3881,-11.6279,-11.7787,-11.7207,-11.7091,-11.6898,-11.6395,-11.5815,-11.5118,-11.4306,-11.3687,-11.3184,-11.2991,-11.2411,-11.2101,-11.2101,-11.2101,0.0,-11.1714,-11.1095,-11.0283,-10.9084,-10.831,-10.7614,-10.6995,-10.6995,-10.7092,-10.7297,-10.6314,-10.6413,-10.7378,-10.6809,-10.6808,-10.7301,-10.7604,-10.8097,-10.8703,-10.9499,-11.0295,-11.1281,-11.291,-11.3593,-11.3706,-11.4502,-11.4805,-11.4881,-11.5488,-11.598,-11.6701,-11.78,-11.852,-11.9126,-11.9619,-12.0983,-12.2176,-12.1499,-12.1721,-12.1953,-12.1164,-12.0132,-11.923,-11.923,-12.0027,-12.0896,-12.1113,-12.191,-12.2844,-12.3348,-12.3308,-12.3267,-12.3267,-12.2115,-12.0669,-11.9157,-11.775,-11.6308,-11.4762,-11.4612,-11.4612,-11.4612,-11.4612,-11.4914,-11.5617,-11.5647,-11.4582,-11.1764,-11.1591,-11.0005,-10.6767,-10.6603,-10.6603,-10.6603,-10.5314,-10.5134,-10.6109,-10.4912,-10.4493,-10.4511,-9.9592,-9.5936,0.0,0.0,0.0,-9.4651,-9.4505,-9.5081,-10.3398,0.0,-10.1889,-10.6995,-10.8813,-11.0206,-11.2797,-11.3881,-11.4499,-11.4499,-11.4499,-11.4616,-11.4616,-11.4499,-11.419,-11.3494,-11.33,-11.2914,-11.2217,-11.2101,-11.2024,-11.2101,-11.2101,-11.1714,-11.0786,-11.0786,-11.0012,-10.831,-10.7382,-10.6995,-10.6995,-10.6995,-10.6783,-10.6372,-10.6084,-10.6222,-10.663,-10.7112,-10.7301,-10.7301,-10.821,-10.8514,-10.8589,-10.9423,-11.0219,-11.1205,-11.291,-11.3479,-11.3706,-11.4502,-11.4805,-11.4805,-11.4805,-11.5905,-11.7193,-11.7307,-11.8406,-11.9695,-11.9809,-12.0983,-12.231,-12.231,-12.2072,-12.2002,-12.1879,-12.0655,-11.923,-11.923,-11.923,-11.9411,-12.0208,-12.2308,-12.3902,-12.4011,-12.3791,-12.3605,-12.3605,-12.2198,-12.0544,-11.9157,-11.775,-11.6308,-11.4729,-11.4579,-11.4579,-11.4579,-11.4679,-11.4981,-11.565,-11.642,-11.5236,-11.1828,-11.2322,-11.0986,-10.7346,-10.7153,-10.7153,-10.7153,-10.5857,-10.5335,-10.5391,-10.4702,-10.4702,-10.5138,-10.025,-9.4644,-8.6529,0.0,0.0,0.0,0.0,0.0,-9.3959,0.0,-9.8021,-10.1889,-10.4403,-10.6802,-11.0012,-11.1289,-11.2101,-11.272,-11.33,-11.3687,-11.3687,-11.3184,-11.272,-11.2488,-11.1908,-11.1714,-11.2101,-11.1018,-11.0709,0.0,-11.1521,-11.1095,-11.0786,-10.9703,-10.8504,-10.7382,-10.7111,-10.6995,-10.6995,-10.6995,-10.6885,-10.6817,-10.6784,-10.6936,-10.6988,-10.7186,-10.6998,-10.6391,-10.6694,-10.6808,-10.6884,-10.8286,-10.8703,-10.8589,-11.0902,-11.2114,-11.2797,-11.3593,-11.4313,-11.4805,-11.4805,-11.5109,-11.5677,-11.689,-11.761,-11.8179,-11.9392,-12.0491,-12.1514,-12.2121,-12.1659,-12.0985,-12.0218,-11.9573,-11.923,-11.923,-11.9628,-12.0135,-12.0425,-12.1403,-12.2381,-12.2996,-12.3032,-12.3213,-12.3792,-12.1889,-12.006,-11.9676,-11.7612,-11.5909,-11.5504,-11.5538,-11.5538,-11.5538,-11.5943,-11.6618,-11.7427,-11.666,-11.5316,-11.3565,-11.2175,-11.0199,-10.7729,-10.7729,-10.7517,-10.7032,-10.6153,-10.5534,-10.5205,-10.3815,-10.3356,-10.3853,-9.8902,-9.3473,-8.6726,-8.661,-8.6958,-8.8389,0.0,0.0,-9.0981,-9.218,-9.3843,0.0,-9.9994,-10.2701,-10.5796,-10.7614,-10.9007,-10.9819,-11.0709,-11.1598,-11.2681,-11.2101,-11.1598,-11.1598,-11.0786,-11.0515,-11.1018,-11.009,-10.9896,-11.0902,-11.0515,-11.009,-10.9819,-10.8504,-10.7498,-10.6995,-10.6608,-10.6608,-10.6995,-10.6608,-10.6608,-10.6995,-10.7095,-10.7212,-10.7204,-10.7278,-10.6998,-10.6581,-10.6581,-10.6581,-10.6694,-10.8021,-10.8324,-10.8097,-11.0598,-11.1887,-11.2418,-11.3706,-11.4389,-11.4805,-11.4805,-11.4995,-11.5601,-11.689,-11.7496,-11.8103,-11.9392,-12.0415,-12.1107,-12.156,-12.123,-12.0463,-11.9464,-11.923,-11.923,-11.923,-11.9592,-11.9918,-11.9918,-12.0316,-12.1004,-12.2489,-12.2779,-12.3105,-12.3902,-12.1663,-11.9897,-11.9897,-11.7647,-11.5831,-11.5831,-11.5831,-11.5831,-11.5831,-11.6507,-11.7218,-11.803,-11.6961,-11.5448,-11.4228,-11.2346,-11.0541,-10.83,-10.8574,-10.827,-10.7356,-10.659,-10.5668,-10.4463,-10.3583,-10.238,-10.075,-9.7487,-9.3249,-8.6648,-8.6687,-8.7461,-9.0516,-8.9124,0.0,-9.16,-9.0826,-9.0168,0.0,-9.5777,-9.8292,-10.0883,-10.332,-10.51,-10.5989,-10.6995,-10.8581,-11.1405,-11.1095,-11.0709,-11.0709,-10.9896,-10.9393,-10.9509,-10.9316,-10.9316,-10.9393,-10.9316,-10.8891,-10.8078,-10.7382,-10.6995,-10.6879,-10.6105,-10.6105,-10.6802,-10.6105,-10.6105,-10.6918,-10.7172,-10.7327,-10.7281,-10.7393,-10.7415,-10.7415,-10.7301,-10.7301,-10.7415,-10.821,-10.8589,-10.8817,-11.1091,-11.2114,-11.238,-11.3896,-11.4578,-11.4692,-11.4881,-11.5374,-11.6094,-11.708,-11.7913,-11.8596,-11.9505,-12.0301,-12.0783,-12.0796,-12.0468,-12.0242,-11.9434,-11.9121,-11.9121,-11.9194,-11.923,-11.923,-11.923,-11.923,-11.9918,-12.22,-12.267,-12.2924,-12.3465,-12.1543,-11.9735,-11.9641,-11.7509,-11.5831,-11.5831,-11.5831,-11.5831,-11.5932,-11.6609,-11.7387,-11.8199,-11.7094,-11.5808,-11.4357,-11.2967,-11.1129,-10.905,-10.9479,-10.9173,-10.7731,-10.6964,-10.5491,-10.332,-10.3741,-10.1674,-9.694,-9.6326,-9.3363,-8.6996,-8.7112,-8.7809,-8.8466,-8.9163,0.0,-8.9008,-8.9549,-9.0362,0.0,-9.2644,-9.4772,-9.7325,-9.8756,-9.9839,-10.069,-10.2082,-10.479,-10.9393,-10.9896,-10.9819,-10.9819,-10.9007,-10.8813,-10.9393,-10.831,-10.7807,-10.8504,-10.7885,-10.7111,-10.6299,-10.6686,-10.6686,-10.5989,-10.5796,-10.5796,-10.5989,-10.5796,-10.5796,-10.6028,-10.7479,-10.8209,-10.8201,-10.8306,-10.8324,-10.8324,-10.7604,-10.7301,-10.7415,-10.821,-10.8589,-10.8703,-10.9802,-11.0712,-11.1508,-11.2418,-11.3214,-11.4009,-11.5374,-11.5488,-11.5412,-11.761,-11.7989,-11.78,-11.9316,-11.9922,-12.0035,-11.9799,-11.9217,-11.8813,-11.9143,-11.8795,-11.8505,-11.9121,-11.923,-11.923,-11.923,-11.923,-11.9701,-12.1475,-12.1801,-12.1657,-12.1553,-12.0546,-11.9512,-11.843,-11.6878,-11.5831,-11.5831,-11.5831,-11.6034,-11.6609,-11.7387,-11.8199,-11.8909,-11.7179,-11.5951,-11.5571,-11.2595,-11.0789,-11.0133,-10.9733,-10.9027,-10.8351,-10.663,-10.522,-10.3851,-10.3541,-10.0902,-9.61,-9.6085,-9.3222,-8.8234,-8.7886,-8.8118,-8.8931,-8.9472,0.0,0.0,-8.8853,-8.9163,-8.9163,-9.0207,-9.16,-9.3302,-9.4694,-9.5816,-9.6628,-9.7866,-9.9762,-10.2701,-10.4984,-10.6183,-10.5796,-10.568,-10.568,-10.568,-10.568,-10.5912,-10.6299,-10.5989,-10.5487,-10.51,-10.5487,-10.5487,-10.51,-10.4713,-10.4597,-10.5022,-10.4713,-10.4713,-10.51,-10.6479,-10.7396,-10.7818,-10.7887,-10.821,-10.8589,-10.7718,-10.7528,-10.8021,-10.84,-10.8817,-10.931,-11.0106,-11.0712,-11.1281,-11.2493,-11.3214,-11.3782,-11.4995,-11.5184,-11.5109,-11.7307,-11.7686,-11.761,-11.9316,-11.9382,-11.8955,-11.8946,-11.8161,-11.762,-11.7957,-11.8107,-11.8179,-11.8614,-11.8904,-11.923,-11.923,-11.923,-11.9411,-12.0208,-12.1077,-12.1621,-12.1422,-12.06,-11.9383,-11.8159,-11.6736,-11.5831,-11.5831,-11.5831,-11.6101,-11.6812,-11.7624,-11.8035,-11.7981,-11.63,-11.5077,-11.4073,-11.1836,-11.0352,-10.9983,-11.0013,-10.9273,-10.7889,-10.6443,-10.494,-10.3844,-10.3299,-10.0575,-9.5463,-9.5211,-9.2709,-9.0052,-8.9511,-8.9588,-9.0439,-9.0787,-9.071,0.0,0.0,0.0,-8.8273,-8.8582,-8.9163,-8.9782,0.0,0.0,-9.307,0.0,0.0,0.0,-9.8794,0.0,-10.0883,-10.1502,-10.1812,-10.1193,-10.2392,-10.3204,-10.3204,-10.3204,-10.3204,-10.3204,-10.3707,-10.3901,-10.3901,-10.3514,-10.3514,-10.421,-10.3514,-10.3514,-10.421,-10.5287,-10.617,-10.6898,-10.7012,-10.7604,-10.8589,-10.7718,-10.7907,-10.8817,-10.8817,-10.9196,-10.9916,-11.0598,-11.1015,-11.1281,-11.2797,-11.3479,-11.3782,-11.4881,-11.5109,-11.5109,-11.708,-11.78,-11.7989,-11.9392,-11.9066,-11.8268,-11.8287,-11.75,-11.6746,-11.6942,-11.7274,-11.7709,-11.7998,-11.8614,-11.9012,-11.9194,-11.923,-11.923,-11.9411,-12.0606,-12.1512,-12.1176,-12.0441,-11.9452,-11.775,-11.6451,-11.5831,-11.5831,-11.5831,-11.6135,-11.7015,-11.7691,-11.7767,-11.6798,-11.5806,-11.4573,-11.246,-11.1316,-11.0444,-10.9767,-10.9918,-10.9116,-10.7336,-10.6107,-10.494,-10.3783,-10.2637,-9.9751,-9.5041,-9.4437,-9.2043,-9.2257,-9.2992,-9.4153,-9.2064,-9.4346,-9.6087,-9.2296,0.0,-9.1793,-8.9511,0.0,-8.8079,-8.8157,0.0,0.0,-8.9511,-8.9859,-9.0478,-9.2064,-9.2683,-9.4075,-9.7015,-9.7479,-9.7789,-9.8485,-9.8717,-9.8833,-9.8833,-9.8833,-9.8833,-9.8833,-10.0999,-10.2199,-10.2199,-10.2817,-10.3204,-10.3282,-10.3204,-10.3204,-10.3398,-10.5095,-10.5863,-10.6016,-10.6175,-10.7111,-10.8589,-10.7718,-10.821,-10.9689,-10.9689,-10.9689,-10.9802,-10.9916,-11.0409,-11.1205,-11.2114,-11.291,-11.3896,-11.6208,-11.598,-11.5298,-11.8482,-11.9505,-11.9619,-11.9695,-11.9231,-11.8504,-11.8268,-11.7178,-11.6096,-11.6645,-11.6405,-11.6296,-11.7781,-11.8179,-11.8397,-11.9121,-11.923,-11.9411,-12.0135,-12.1004,-12.0858,-11.8411,-11.9146,-11.899,-11.6451,-11.5942,-11.5831,-11.5831,-11.5831,-11.6406,-11.7793,-11.803,-11.7969,-11.7528,-11.7047,-11.5667,-11.3195,-11.2,-11.1147,-11.0343,-10.9269,-10.829,-10.7356,-10.6799,-10.5365,-10.3783,-10.0654,-9.7784,-9.489,-9.4378,-9.1895,-9.4578,-9.5429,-9.6512,-9.4423,-9.6009,-9.7247,-9.3921,-9.307,-9.2567,-9.0981,0.0,0.0,0.0,0.0,0.0,0.0,-8.8776,-8.8698,0.0,0.0,-8.982,-9.2721,-9.3998,0.0,-9.6474,-9.7054,-9.7363,-9.7363,-9.7363,-9.7363,-9.7363,-9.8369,-9.9181,-9.9684,-9.9994,-10.0496,-10.0922,-10.1386,-10.1696,-10.1696,-10.3595,-10.4719,-10.5211,-10.5795,-10.6998,-10.8589,-10.821,-10.8703,-10.9802,-10.9802,-10.9802,-10.9802,-10.9802,-10.9992,-11.0485,-11.1811,-11.2493,-11.31,-11.5184,-11.5677,-11.5905,-11.8292,-11.9392,-11.9809,-11.9809,-11.8797,-11.7736,-11.759,-11.6725,-11.5736,-11.5492,-11.5898,-11.6405,-11.6695,-11.7383,-11.8179,-11.8505,-11.8904,-11.9411,-12.0208,-12.1004,-12.0676,-11.7953,-11.8914,-11.8851,-11.5587,-11.5526,-11.5831,-11.5831,-11.5831,-11.6406,-11.7928,-11.8097,-11.7463,-11.6131,-11.5938,-11.4368,-11.1313,-11.0201,-10.9545,-10.93,-10.7914,-10.7122,-10.6799,-10.6249,-10.5001,-10.3481,-10.0341,-9.7189,-9.4189,-9.2213,-8.9877,-9.7905,-9.8678,-9.9529,-9.686,-9.7673,-9.833,-9.5274,-9.4462,-9.4075,-9.2953,-9.2257,0.0,0.0,0.0,-8.9704,-9.0168,0.0,-8.8079,-8.8505,-8.7461,-8.7306,-8.9124,-9.0903,0.0,0.0,-9.4385,-9.4965,-9.4733,-9.4926,-9.5236,-9.5739,-9.6203,-9.6938,-9.806,-9.833,-9.8717,-9.9297,-10.0187,-10.0613,-10.0613,-10.2636,-10.3809,-10.4291,-10.5368,-10.6809,-10.821,-10.821,-10.8703,-10.9499,-10.9499,-10.9499,-10.9499,-10.9499,-10.9613,-10.9992,-11.1697,-11.2493,-11.291,-11.4805,-11.6208,-11.7307,-11.8292,-11.9126,-11.9809,-11.9809,-11.8688,-11.7426,-11.7218,-11.636,-11.5539,-11.4731,-11.5391,-11.6187,-11.5789,-11.6767,-11.7781,-11.8071,-11.8687,-11.9411,-12.0208,-12.0826,-12.034,-11.7988,-11.8914,-11.8747,-11.5145,-11.5323,-11.5831,-11.5831,-11.5831,-11.6406,-11.7928,-11.7759,-11.674,-11.5054,-11.4662,-11.2921,-10.9785,-10.8836,-10.8226,-10.8013,-10.6937,-10.6416,-10.6372,-10.5668,-10.4514,-10.342,-9.9534,-9.6321,-9.3593,-9.0669,-8.835,-10.2779,-10.3514,-10.4287,-9.9259,-9.9916,-10.069,-9.6435,-9.6744,-9.7441,-9.5739,-9.5352,-9.5081,-9.423,-9.2025,-9.0903,-9.2605,-9.0091,0.0,0.0,-8.8157,-8.6648,-8.6726,-8.8273,-8.9008,0.0,-8.9627,-9.0284,-8.9511,-9.0168,-9.1329,-9.3031,-9.4655,-9.6319,-9.806,-9.8872,-9.9259,-9.9297,-10.0187,-10.0613,-10.0613,-10.2784,-10.3711,-10.3487,-10.4796,-10.6099,-10.7301,-10.7301,-10.7794,-10.8589,-10.8589,-10.8589,-10.8589,-10.8589,-10.912,-10.9992,-11.1697,-11.2797,-11.3896,-11.6397,-11.8292,-11.9619,-11.8823,-11.9126,-11.9809,-11.9809,-11.9193,-11.828,-11.742,-11.6528,-11.5604,-11.4749,-11.4521,-11.4811,-11.5499,-11.6296,-11.7165,-11.789,-11.8687,-11.9411,-12.0208,-11.9949,-11.923,-11.7829,-11.8914,-11.8747,-11.5145,-11.5323,-11.5831,-11.5831,-11.5831,-11.6406,-11.7928,-11.6483,-11.5298,-11.4955,-11.3868,-11.213,-10.9762,-10.8862,-10.8167,-10.7505,-10.683,-10.6403,-10.6372,-10.5001,-10.4028,-10.342,-9.7683,-9.4344,-9.3593,-9.0669,-8.8035,0.0,0.0,-10.9393,-10.3707,-10.3784,-10.3978,-9.9104,-9.8911,-9.9259,-9.7557,-9.7634,-9.7595,-9.6164,-9.3843,-9.2296,-9.2915,-9.1058,-8.9588,0.0,-8.8389,-8.7461,-8.7461,-8.8505,-8.9279,-8.9549,-9.0594,-9.1135,-9.0865,-9.1097,-9.1754,-9.2953,-9.3534,-9.4617,-9.6319,-9.6628,-9.7054,-9.7634,-9.8524,-9.922,-9.9762,-10.1395,-10.2595,-10.3372,-10.4185,-10.5262,-10.6505,-10.7111,-10.749,-10.7794,-10.8893,-10.912,-10.8703,-10.9196,-10.9916,-11.0788,-11.1887,-11.2493,-11.3214,-11.6208,-11.7989,-11.9013,-11.9316,-11.9619,-11.9809,-11.9809,-11.8763,-11.7463,-11.7218,-11.6414,-11.5565,-11.4731,-11.5318,-11.6006,-11.5789,-11.6695,-11.7781,-11.7998,-11.8687,-11.9411,-12.0208,-11.9985,-11.9148,-11.7829,-11.811,-11.7747,-11.507,-11.5323,-11.5831,-11.5831,-11.5831,-11.6237,-11.7251,-11.5761,-11.4261,-11.3559,-11.0884,-10.8934,-10.8184,-10.7429,-10.6932,-10.6737,-10.6187,-10.5427,-10.5001,-10.4514,-10.3926,-10.2718,-9.8114,-9.4762,-9.3084,-8.9246,-8.683,-10.962,-11.1598,0.0,-10.8504,-10.8194,-10.7685,-10.281,-10.2609,-10.2918,-10.0914,-10.0574,-10.0496,-9.9831,-9.657,-9.4055,-9.4413,-9.2289,-9.0133,0.0,-8.8068,-8.7617,-8.7977,-8.8713,-8.9395,-8.9936,-9.0207,-9.0478,-9.0787,-9.0826,-9.1329,-9.2489,-9.3108,-9.4075,-9.5468,-9.5816,-9.6241,-9.6783,-9.7673,-9.8485,-9.9336,-10.0805,-10.2213,-10.3372,-10.3985,-10.4887,-10.6088,-10.6619,-10.6998,-10.7415,-10.8514,-10.8817,-10.8703,-10.9499,-11.0295,-11.1205,-11.2001,-11.31,-11.4389,-11.689,-11.8292,-11.9126,-11.9619,-11.9809,-11.9809,-11.9809,-11.8504,-11.7321,-11.8463,-11.7058,-11.5499,-11.6405,-11.6513,-11.6405,-11.6187,-11.7093,-11.8107,-11.8107,-11.8687,-11.9411,-12.0208,-11.9612,-11.8705,-11.8092,-11.7529,-11.6604,-11.4892,-11.5323,-11.5831,-11.5831,-11.5831,-11.6101,-11.6778,-11.4805,-11.2723,-11.1076,-10.8677,-10.7367,-10.7061,-10.6686,-10.631,-10.6187,-10.5365,-10.5668,-10.6861,-10.4836,-10.387,-10.4133,-9.7932,-9.4102,-9.183,-8.7621,-8.5258]}]]